GFSNE_sfc_wetblb_000.txt.gz
Wetbulb
40.32 40.63 40.73 41.50 42.24 42.11 41.87 40.96 38.38 34.83 36.47 39.74 39.08 42.93 44.93 49.82 49.88 50.72 51.70 51.46 48.61 47.74 48.39 49.78 52.41 54.92 55.84 56.77 57.40 57.67 58.16 58.13 58.00 58.02 57.73 58.00 58.18 58.33
39.83 39.32 39.53 40.08 40.40 40.94 41.16 41.56 41.79 39.37 35.79 40.57 41.27 40.42 42.12 46.53 49.45 48.52 49.17 49.51 48.01 46.84 46.33 46.98 48.88 51.53 53.93 54.65 55.20 55.61 56.13 56.39 56.69 56.78 56.81 57.00 57.39 57.60
37.84 37.93 38.00 38.85 38.57 39.11 39.63 39.90 39.45 39.65 36.72 38.94 41.17 41.42 40.09 40.63 43.47 46.97 47.77 47.58 49.38 46.78 44.70 45.17 45.70 47.31 48.99 52.46 52.86 53.69 54.06 54.31 54.67 55.42 55.95 56.16 57.22 57.30
36.09 36.09 36.16 38.54 36.73 37.54 37.90 37.59 38.09 38.87 37.80 35.97 38.91 39.31 38.63 38.90 39.33 41.27 46.63 46.98 45.56 46.61 45.44 44.83 44.59 44.96 46.13 46.18 49.47 50.72 51.52 51.24 51.46 52.88 53.79 54.57 55.81 56.04
35.00 34.75 35.02 35.44 34.82 35.76 36.34 36.37 37.14 38.64 38.01 37.10 36.74 39.20 39.28 37.86 37.11 38.18 39.82 43.02 45.23 46.19 44.01 43.07 43.56 44.25 44.79 45.26 46.26 48.92 49.43 48.90 47.75 48.26 49.79 50.85 52.11 52.51
34.46 34.40 34.17 33.64 32.95 33.07 33.80 33.83 35.10 34.60 35.52 35.74 36.40 36.92 37.68 38.10 36.52 34.48 34.57 39.03 39.53 43.94 43.86 42.67 43.04 43.52 44.07 44.48 44.52 46.51 48.72 48.64 48.08 47.81 45.99 45.15 46.06 47.65
31.82 31.93 31.58 32.28 34.23 33.58 32.44 31.53 31.84 31.89 33.15 33.58 34.08 35.27 35.53 35.37 33.83 34.97 34.58 35.27 37.83 38.09 39.19 40.86 40.47 43.22 43.80 43.58 44.89 45.08 47.09 48.17 47.47 47.02 46.68 44.99 43.44 44.18
28.99 29.82 29.92 31.29 31.44 32.40 32.82 33.03 32.32 29.90 29.76 30.64 31.75 32.73 33.35 34.52 35.48 34.66 34.31 33.27 34.92 34.86 35.61 37.53 35.52 38.23 39.51 44.54 44.39 43.99 44.43 46.71 47.16 46.22 45.26 44.38 43.50 42.60
28.21 28.22 28.58 30.28 31.01 30.76 31.68 32.49 32.47 33.01 31.09 30.26 28.17 29.79 31.31 32.59 35.14 33.78 32.39 33.21 36.19 34.30 34.94 32.70 33.01 33.78 33.69 37.74 41.08 42.51 43.69 44.70 46.17 45.58 43.82 42.43 41.18 39.87
28.40 28.77 28.58 28.66 29.70 30.23 29.94 30.10 31.27 32.27 32.48 32.08 30.87 30.80 31.47 32.94 33.60 35.40 33.69 33.97 33.98 33.56 31.85 32.02 30.29 30.07 32.62 33.68 39.54 41.46 42.91 43.35 43.64 43.14 42.19 40.50 38.85 37.78
29.32 29.66 29.58 28.99 30.56 31.87 30.43 29.88 29.30 30.08 33.76 35.18 34.96 34.38 34.01 33.66 33.89 33.13 30.97 32.37 31.81 31.07 31.58 27.59 28.25 28.07 29.43 30.73 32.65 38.19 40.10 41.43 41.80 41.22 40.36 39.48 37.79 36.32
30.55 31.11 31.82 31.56 31.49 31.32 29.69 29.22 28.13 28.83 30.23 30.43 30.99 33.20 34.53 33.90 34.05 33.35 31.50 30.03 31.07 29.97 31.54 25.61 27.18 27.82 25.45 29.91 30.89 32.46 33.19 35.66 38.74 38.74 38.03 37.12 35.79 33.85
28.40 27.82 29.08 30.67 31.08 31.49 32.20 29.80 29.27 30.30 30.26 30.21 30.46 30.51 31.66 32.65 32.72 33.47 32.99 31.88 31.58 32.77 29.54 26.95 25.09 26.19 26.57 26.43 29.20 30.81 31.43 31.51 31.48 32.53 36.03 36.05 35.61 32.90
27.57 29.09 29.47 30.97 30.99 31.37 30.89 30.91 30.86 30.37 31.03 30.57 29.68 29.08 30.55 32.03 32.43 33.63 33.79 33.69 35.29 35.14 31.26 28.12 23.76 25.50 26.21 25.81 24.02 29.37 30.26 31.22 31.55 30.50 30.88 32.27 32.30 31.87
28.22 28.80 30.23 30.58 30.54 30.04 30.43 30.28 29.31 28.24 27.39 27.89 28.71 29.41 30.62 31.82 33.69 32.87 32.07 34.54 34.05 33.33 31.81 30.22 27.83 27.59 27.87 25.38 25.07 26.77 26.88 28.98 30.54 29.65 29.56 27.42 25.04 24.83
29.02 28.60 28.03 27.97 28.61 28.93 29.43 30.60 30.52 29.97 27.63 27.42 29.27 29.89 32.82 32.55 32.72 32.11 30.45 30.26 28.34 28.50 31.04 30.63 30.22 29.09 27.45 26.99 27.29 25.46 26.32 24.54 28.25 28.93 28.89 27.17 27.24 28.04
28.54 28.54 27.84 26.87 26.18 26.70 27.94 31.02 28.90 28.10 28.39 30.15 29.14 29.45 30.65 31.19 31.99 31.04 29.52 28.06 26.66 26.22 26.95 29.29 30.02 29.47 28.44 27.54 24.86 25.15 25.01 25.42 27.12 26.58 24.91 22.40 24.68 26.29
27.52 25.40 23.85 24.09 24.87 25.23 25.83 28.67 29.26 26.95 27.49 27.25 26.84 29.97 31.05 31.43 29.96 29.06 29.24 27.69 26.61 24.75 25.45 25.44 25.28 24.13 25.01 24.94 27.58 23.64 24.33 24.95 25.09 25.14 24.28 22.58 22.32 25.15
25.02 23.21 23.04 23.18 22.99 24.33 24.84 26.09 26.35 30.47 30.16 28.94 27.03 30.36 29.69 28.35 29.14 28.36 28.52 27.71 26.19 25.85 25.78 25.50 24.46 23.49 20.95 18.30 22.73 27.61 23.13 23.99 23.69 23.04 23.95 23.64 22.54 23.30
26.07 24.34 23.40 22.97 24.19 22.87 23.86 24.76 26.29 27.27 27.47 28.07 30.44 30.89 27.19 27.07 27.47 27.64 26.15 25.40 24.68 25.45 24.65 25.33 24.44 25.59 22.79 19.22 18.75 18.35 27.72 23.79 22.61 22.00 22.47 22.03 23.03 26.14
24.32 24.11 25.65 24.59 23.17 24.23 23.92 23.58 25.04 25.20 26.55 26.96 26.96 27.71 28.20 28.32 27.71 27.28 24.18 24.73 24.26 24.10 23.11 22.87 25.28 25.87 21.49 20.29 16.98 14.44 17.09 27.47 25.65 22.85 23.32 19.65 18.39 18.94
22.63 23.76 24.32 25.23 25.25 23.85 23.23 22.97 22.97 23.94 25.18 24.47 23.97 23.99 25.61 26.20 25.47 24.18 23.76 23.17 23.91 21.22 18.51 21.06 23.32 23.34 20.35 18.80 14.27 12.66 14.00 16.47 22.23 23.18 22.81 21.03 19.51 15.94
19.81 21.19 22.80 23.49 24.32 24.56 24.40 23.04 22.54 22.19 22.86 24.10 23.31 23.20 21.56 20.20 21.88 20.57 19.46 19.49 19.54 19.14 19.45 20.23 23.31 22.91 20.42 18.10 16.28 15.11 14.47 15.38 16.41 14.41 12.80 19.24 19.98 20.36

GFSNE_sfc_wetblb_003.txt.gz
Wetbulb
38.81 39.08 39.22 39.96 40.02 40.73 40.53 39.71 37.10 33.12 34.46 38.49 38.18 41.69 43.52 48.05 48.25 48.34 49.67 50.32 48.39 46.71 47.45 48.93 50.60 52.24 53.42 54.69 57.03 58.04 58.34 58.57 58.58 58.60 58.44 58.68 58.94 59.08
38.47 37.23 37.45 38.89 39.32 39.38 39.71 39.90 39.38 37.15 34.02 38.85 39.58 41.12 41.72 44.29 48.11 48.46 47.46 48.58 47.38 45.41 44.99 45.66 46.96 48.81 49.85 50.89 53.32 55.37 56.83 57.08 57.38 57.48 57.53 57.83 58.26 58.45
35.60 35.72 35.94 36.68 36.76 37.33 37.79 38.01 37.61 37.47 34.54 36.73 39.38 39.58 39.28 40.00 41.50 44.98 46.75 46.32 46.23 46.24 44.57 44.21 44.19 45.10 45.98 46.71 47.41 50.58 54.63 55.18 55.64 56.00 56.52 57.15 57.85 57.95
34.24 33.50 33.93 36.68 33.89 33.94 34.59 34.46 35.24 36.03 34.99 33.13 36.11 37.20 37.50 38.67 38.22 38.29 42.22 46.53 44.86 45.69 44.89 43.72 43.84 44.34 44.37 44.37 44.57 45.66 46.56 52.85 53.09 53.54 54.17 55.23 56.09 56.69
32.97 32.55 33.16 32.80 31.88 32.31 32.34 32.78 33.89 36.07 34.86 34.12 33.68 35.66 35.68 36.24 36.18 36.92 37.43 40.21 43.71 45.39 43.56 41.70 42.34 43.10 44.19 44.05 44.68 44.93 45.13 45.48 50.09 50.30 50.61 51.44 52.54 53.87
31.65 31.51 31.08 30.47 29.64 29.18 30.46 30.62 31.99 31.70 32.32 32.23 32.59 33.46 34.39 35.99 34.53 33.70 33.32 34.83 36.56 42.54 43.29 41.39 41.60 42.79 43.53 44.09 43.96 44.35 44.77 44.95 45.10 48.71 47.93 48.00 48.68 50.05
29.44 29.77 29.92 31.12 33.86 33.08 31.20 29.83 29.62 29.14 29.61 29.64 29.77 31.06 31.48 32.27 31.36 32.41 31.62 32.08 33.70 35.91 36.07 36.49 36.89 38.22 41.70 43.37 44.11 44.12 43.83 44.03 44.41 44.77 47.54 47.22 46.82 47.79
26.82 28.04 28.56 31.09 30.52 32.02 32.08 32.19 31.03 28.03 27.12 27.31 27.34 27.71 29.59 31.30 32.19 31.86 30.73 29.36 29.54 32.45 35.13 34.39 35.07 37.08 37.93 41.03 41.55 41.41 43.25 43.12 43.48 44.03 44.88 47.22 46.14 46.14
26.48 26.82 27.32 29.10 30.02 28.87 30.04 31.07 31.13 32.03 30.25 29.64 27.20 27.23 28.06 30.41 32.07 30.04 32.71 31.68 29.61 32.44 35.31 34.35 29.52 31.15 32.39 35.31 37.03 38.60 40.01 42.56 42.92 43.14 43.30 44.92 46.06 45.36
26.78 26.99 26.86 26.83 27.92 28.26 27.85 27.36 28.00 29.04 30.44 30.81 30.25 30.07 30.21 30.48 30.42 30.95 31.25 33.04 31.67 33.34 33.59 32.19 23.54 24.38 26.76 33.22 35.20 37.10 39.51 41.67 42.15 42.22 42.59 43.54 44.52 43.90
28.17 28.69 28.75 28.22 29.88 31.33 29.53 28.48 27.98 28.21 31.62 33.11 33.57 33.80 33.73 33.58 32.92 30.21 27.86 27.99 28.26 30.23 31.81 30.34 27.76 26.75 24.03 23.28 30.65 34.66 35.77 39.68 41.36 41.92 42.33 42.77 43.08 43.43
27.45 28.76 30.09 29.26 30.94 31.66 30.07 29.02 27.43 27.86 28.58 29.20 29.52 31.45 33.19 33.37 33.69 32.29 30.51 26.89 26.47 27.50 28.39 30.34 27.31 26.70 23.10 21.06 26.18 31.61 32.49 36.43 39.79 40.98 42.32 41.58 41.97 43.47
26.40 26.84 27.91 29.69 30.25 30.99 31.40 29.99 28.90 30.04 29.54 29.03 28.77 29.16 29.69 30.10 31.38 32.84 33.06 31.87 28.73 27.34 31.37 30.23 26.38 25.82 24.25 21.23 25.12 30.14 30.99 32.15 33.53 36.24 39.60 39.84 40.01 39.68
26.28 27.45 27.52 29.01 29.48 30.15 30.54 31.01 31.02 30.08 30.13 29.37 28.77 28.55 28.83 29.60 30.55 32.06 32.68 32.69 32.51 31.08 31.31 31.40 28.22 26.35 23.63 22.79 23.71 26.65 29.33 30.90 31.58 30.73 31.44 32.67 33.31 35.23
28.79 29.15 30.46 30.83 30.70 29.51 29.90 30.30 29.60 28.90 27.28 26.28 25.73 27.50 29.18 30.32 31.25 32.14 32.65 33.35 32.72 32.55 32.22 29.84 28.03 27.14 27.16 20.81 23.32 21.58 26.76 28.26 29.75 27.71 27.24 28.61 28.04 29.04
27.88 27.81 27.35 27.85 27.24 27.10 26.66 28.53 28.83 29.27 28.68 26.74 26.15 26.95 29.38 29.93 29.84 31.17 30.97 31.79 31.03 27.94 31.20 31.41 29.84 29.31 27.24 26.36 26.17 25.53 26.11 24.57 27.93 27.39 25.99 25.70 25.85 26.95
26.36 24.73 23.16 22.67 23.25 24.44 24.89 25.57 27.55 25.25 27.96 27.32 26.17 26.74 27.90 29.16 30.66 31.76 30.31 29.00 26.07 25.70 26.19 27.79 28.78 28.07 27.19 27.10 24.22 25.89 24.98 26.28 27.64 26.07 25.71 24.34 25.20 25.52
25.19 21.94 20.92 20.81 20.50 21.98 22.35 23.37 25.67 26.82 26.20 26.69 27.01 27.68 28.44 29.62 29.08 28.78 28.90 28.40 25.79 24.81 24.54 24.68 24.78 24.59 24.59 23.40 26.87 23.59 24.80 24.80 25.35 24.81 24.95 22.83 22.86 25.13
24.01 21.45 18.79 20.27 19.81 21.62 21.84 22.55 23.41 25.63 28.54 26.53 27.10 29.45 29.03 27.18 27.85 27.39 27.26 26.25 23.74 23.38 23.42 23.75 23.14 19.39 18.59 14.20 22.25 27.43 23.83 23.55 23.14 22.81 24.22 23.89 22.69 23.63
23.85 22.30 22.58 20.28 20.89 21.21 21.38 21.11 22.53 23.41 24.94 24.98 27.90 26.39 26.58 26.88 26.56 25.77 25.06 18.34 21.81 22.09 21.92 23.20 23.54 21.94 21.05 17.92 17.35 17.74 26.52 22.93 23.04 21.71 20.93 21.83 24.59 26.60
20.37 22.01 21.85 22.73 22.18 21.06 20.65 20.61 20.63 22.10 21.18 21.81 22.31 23.41 23.55 18.72 19.51 20.18 20.11 16.43 17.04 19.96 20.76 20.56 20.11 20.58 19.98 20.38 15.73 13.74 16.07 27.09 25.37 22.95 21.48 20.70 20.04 19.95
17.96 19.07 19.55 20.78 21.11 21.74 21.12 20.65 19.62 20.47 20.88 20.76 20.31 19.83 20.00 21.59 21.71 20.89 18.45 19.65 19.00 15.40 17.17 19.40 21.70 21.76 17.47 17.99 12.37 10.88 14.71 18.18 23.25 24.37 24.89 23.00 19.70 16.64
15.93 16.74 17.33 17.80 18.39 19.27 21.26 21.14 19.82 18.73 19.40 19.45 19.60 19.75 19.82 19.78 20.31 19.03 18.05 17.91 18.61 19.00 19.25 20.08 20.80 20.08 17.61 16.29 13.58 12.21 10.94 13.01 14.64 13.74 15.78 22.15 23.21 24.03

GFSNE_sfc_wetblb_006.txt.gz
Wetbulb
36.74 36.66 37.07 38.25 38.67 39.02 38.33 36.96 34.31 30.80 32.33 36.83 37.28 41.07 41.41 42.16 44.34 45.66 46.63 48.62 48.12 46.88 46.30 48.07 49.39 50.64 51.17 51.91 52.48 53.67 54.77 58.52 58.56 58.54 58.52 58.78 59.08 59.28
36.56 35.68 36.47 37.32 37.67 38.29 38.07 37.19 36.33 34.10 30.70 35.62 36.95 39.37 41.07 42.43 43.78 43.51 44.28 47.38 46.43 44.90 43.61 43.63 46.41 47.89 47.85 48.29 49.20 50.43 51.09 53.17 56.02 57.32 57.59 57.84 58.47 58.56
34.61 34.67 34.80 35.46 35.24 35.28 35.54 35.92 35.01 34.60 32.11 34.21 37.13 38.32 38.53 39.34 40.88 41.99 42.67 43.19 44.45 44.08 42.11 43.12 43.86 43.79 43.86 44.11 44.66 46.23 47.94 50.34 50.52 54.12 56.70 57.32 57.92 58.26
32.51 32.61 33.20 34.95 33.02 32.68 32.73 32.62 33.10 33.09 32.24 30.38 33.19 34.66 35.46 37.62 38.32 38.43 39.96 42.47 43.19 44.21 44.32 44.53 43.34 43.01 41.48 42.26 42.19 43.03 44.61 45.59 46.86 48.79 53.20 55.66 56.59 57.24
32.13 31.52 31.62 31.48 30.02 30.05 29.99 29.85 30.79 32.74 31.53 30.73 30.21 33.12 34.54 35.98 35.89 36.81 37.23 38.03 40.83 44.55 43.49 42.39 41.71 42.52 42.00 42.19 42.69 42.52 42.61 43.17 43.29 44.56 45.30 50.47 53.21 54.42
29.64 29.45 29.62 29.41 28.52 28.08 28.37 27.87 29.17 28.64 29.41 29.03 29.26 30.08 31.20 33.75 33.63 32.02 33.03 34.55 34.55 38.49 42.09 41.32 41.52 42.57 42.45 41.75 41.45 42.37 42.44 42.38 43.07 43.65 43.12 43.50 47.06 51.33
28.28 28.38 28.96 30.05 32.60 32.12 30.59 29.11 28.27 27.09 26.88 26.42 26.13 27.12 27.81 28.30 28.20 30.03 30.09 31.19 33.06 33.77 35.21 36.58 37.38 37.35 38.62 40.57 42.14 42.61 42.48 42.82 42.89 43.07 43.29 42.96 43.32 47.22
26.17 27.08 27.51 29.65 29.30 31.03 31.82 31.94 30.44 26.83 25.81 25.31 25.27 25.05 25.44 26.63 28.34 28.98 29.43 28.79 29.36 31.76 34.16 33.61 35.70 36.63 37.60 36.13 39.35 38.31 38.65 39.84 41.22 42.56 43.22 42.74 43.50 43.32
26.18 26.05 26.40 27.91 28.89 28.00 29.38 30.57 30.71 31.42 29.37 27.74 26.10 26.54 26.80 28.48 28.02 26.83 27.91 29.20 29.59 33.55 33.59 32.58 31.42 32.96 30.79 34.80 36.66 37.39 38.01 38.64 39.12 40.25 41.83 42.10 41.31 42.23
26.79 26.79 26.44 26.29 27.33 27.92 27.31 26.68 27.32 27.71 28.15 28.50 28.13 28.50 29.35 30.03 29.54 28.99 27.91 27.95 29.18 32.84 34.00 30.46 30.17 23.48 23.10 27.26 34.77 36.08 36.76 36.99 37.07 38.41 39.86 41.13 41.06 40.39
27.71 28.05 28.31 28.34 29.74 31.18 29.25 28.19 27.56 27.99 30.69 31.93 32.36 32.09 32.22 32.77 32.05 29.37 27.53 26.41 25.03 26.54 30.75 31.46 29.84 28.91 22.37 22.66 24.20 33.03 34.61 35.64 36.18 36.53 38.76 40.53 41.03 40.19
25.74 26.61 28.49 28.03 29.28 29.93 27.83 27.37 26.63 27.32 27.94 27.88 28.20 29.93 31.81 31.53 32.68 32.21 30.57 26.97 26.07 19.50 27.18 29.27 22.98 23.65 26.30 18.09 19.68 21.57 25.35 32.85 34.84 36.14 38.36 40.29 40.70 42.47
25.26 25.63 26.53 28.75 29.39 30.12 29.79 28.07 27.66 28.69 28.94 28.37 28.32 28.58 28.75 28.30 29.20 30.64 31.57 30.93 28.38 26.83 28.42 28.95 23.56 21.01 21.66 20.31 18.51 20.02 22.45 26.38 32.06 33.55 37.23 39.81 40.68 41.90
25.76 27.05 27.90 29.70 30.01 30.61 30.29 29.68 30.04 29.40 29.32 28.37 27.29 27.21 27.61 27.71 28.88 29.73 30.38 31.55 32.10 30.56 29.86 29.58 25.24 23.98 19.80 16.12 19.25 18.57 18.68 22.29 30.34 30.23 31.56 35.31 38.25 39.76
28.26 28.25 28.78 27.81 27.59 27.78 28.65 29.22 28.03 28.14 27.64 26.64 25.69 25.77 27.83 29.11 29.54 29.26 28.04 29.79 29.04 30.89 31.63 30.42 29.40 26.02 27.34 25.23 20.50 15.91 18.67 19.34 24.54 26.68 27.32 28.73 30.07 32.25
26.10 25.14 24.11 24.52 22.79 23.08 25.13 25.71 26.43 27.48 27.63 27.03 26.43 26.78 28.21 28.62 29.02 28.12 25.91 29.40 29.00 29.47 32.36 32.25 31.11 30.29 26.77 21.92 24.86 18.10 22.38 22.64 19.68 26.11 25.79 26.14 27.36 28.40
25.04 21.94 21.22 20.86 21.07 21.87 22.59 23.78 25.06 26.84 26.14 26.32 27.15 25.84 26.03 26.67 27.36 27.00 29.01 29.29 28.65 25.57 26.72 29.98 31.10 30.91 28.98 25.82 21.85 26.10 20.79 24.17 22.20 24.66 25.76 24.05 24.74 26.08
24.52 19.69 18.84 19.30 19.30 20.60 20.28 20.79 22.82 23.36 25.31 22.51 18.95 21.44 21.96 25.04 26.35 26.69 28.31 28.61 26.86 25.75 24.60 24.62 25.34 25.19 25.40 24.26 27.61 23.79 22.58 23.86 20.34 24.64 25.54 22.94 22.30 24.78
22.64 20.99 19.35 19.43 19.01 20.23 19.95 20.16 20.19 22.52 24.47 24.65 27.87 26.38 27.66 26.29 29.32 27.80 27.83 26.54 25.05 24.95 24.72 25.33 25.82 23.97 19.50 16.79 19.76 26.66 22.88 23.49 22.22 23.37 24.73 23.89 22.38 23.47
20.40 20.17 19.53 20.06 20.30 19.83 19.40 18.82 19.25 20.90 20.61 22.27 22.57 23.13 23.86 22.10 22.48 23.71 23.52 22.83 22.04 21.01 22.09 23.78 24.21 23.80 20.65 16.05 13.46 14.42 26.63 23.29 23.31 21.53 21.45 23.47 24.81 26.91
17.67 18.24 18.06 18.33 18.69 19.89 19.09 17.47 16.95 18.19 18.84 18.98 19.33 20.07 19.85 17.49 19.58 19.94 19.77 19.21 17.71 20.51 19.82 20.46 20.52 22.02 20.54 18.71 14.24 13.10 18.84 27.50 26.05 22.65 22.36 21.22 19.91 20.23
15.30 16.04 16.43 16.87 16.82 17.21 17.79 18.56 16.61 16.91 17.08 16.95 17.80 17.80 18.91 18.59 18.81 20.29 18.00 15.90 16.76 15.19 17.69 20.47 22.47 22.07 17.46 17.29 10.14 5.37 14.41 18.71 24.74 25.75 25.79 24.02 20.31 17.00
13.76 13.49 13.92 14.10 15.14 15.35 15.74 16.36 18.66 15.49 16.87 16.19 15.67 15.78 17.12 16.95 16.73 15.99 15.29 16.17 18.02 19.00 19.55 18.55 19.65 19.02 17.65 15.87 14.07 11.74 12.22 14.67 15.72 14.89 13.57 22.09 26.05 25.56

GFSNE_sfc_wetblb_009.txt.gz
Wetbulb
37.55 36.32 35.03 35.49 36.09 36.72 37.48 36.24 33.57 29.29 29.66 33.35 34.01 38.12 39.33 40.12 42.23 43.36 43.44 45.00 45.15 45.66 45.58 46.22 49.63 49.95 50.18 50.49 51.36 52.38 52.34 52.76 55.17 58.86 58.93 59.11 59.53 59.56
36.18 34.43 34.40 35.43 35.58 36.08 36.46 36.31 35.55 32.88 29.17 32.35 33.46 34.53 37.39 39.55 41.31 41.98 42.05 44.23 44.34 44.09 43.43 44.17 44.90 47.25 47.99 48.04 48.04 49.23 49.95 51.12 50.49 52.05 57.07 58.18 58.78 58.97
33.78 33.62 33.20 33.90 33.53 33.43 33.95 34.37 34.07 33.69 30.40 31.69 33.32 34.84 34.91 35.57 37.28 39.03 40.94 41.03 42.43 42.99 42.85 41.90 43.04 43.96 44.72 43.78 44.24 44.63 45.55 47.32 50.10 50.21 51.54 54.01 58.36 58.75
31.71 31.48 31.53 33.63 31.70 31.94 31.58 30.81 30.81 31.26 30.41 28.79 30.24 31.57 32.66 35.30 36.23 36.47 38.92 40.28 40.21 41.82 42.31 42.32 43.06 42.69 42.30 41.95 41.61 42.00 42.84 43.91 44.47 47.00 48.28 49.76 51.26 57.52
30.97 30.38 30.33 30.20 29.23 29.32 29.43 28.99 29.17 30.76 29.54 28.27 27.73 31.02 31.61 32.79 33.43 35.08 35.67 35.83 37.91 40.40 39.74 40.55 41.68 42.24 42.19 41.57 41.47 41.94 41.65 41.88 41.95 42.02 43.11 44.51 47.41 50.05
28.87 28.57 27.74 27.52 27.46 27.55 27.99 27.42 28.02 27.33 27.55 27.30 27.06 27.46 28.91 30.80 31.16 30.75 31.20 32.88 33.37 36.76 38.51 38.35 39.54 41.28 41.72 41.72 41.12 40.95 42.03 42.05 41.73 41.53 41.17 40.69 41.45 43.97
27.78 27.66 27.74 28.87 31.54 30.65 29.42 28.31 27.71 27.08 26.69 25.91 25.19 25.14 25.38 25.93 26.92 28.51 28.43 29.84 31.68 33.07 33.46 35.43 36.09 37.43 38.72 40.29 41.81 41.81 41.30 40.31 41.72 41.93 41.73 41.58 40.91 42.16
25.61 26.48 26.90 28.97 28.20 29.82 30.14 30.90 30.07 26.67 25.47 24.72 24.43 23.55 24.45 24.50 25.32 25.62 25.95 26.09 25.57 31.07 31.56 30.96 34.15 35.31 36.51 36.41 38.26 39.17 39.26 39.23 39.28 40.29 40.11 40.82 40.79 40.71
25.94 26.11 26.50 27.73 28.48 27.53 28.62 29.54 29.94 30.63 29.25 27.55 26.10 25.87 25.28 26.38 27.95 27.26 26.05 25.84 26.55 29.13 32.09 28.05 28.22 29.13 32.74 35.08 37.29 37.90 38.07 38.45 38.89 38.41 37.79 38.04 38.92 39.52
26.13 26.38 26.30 26.26 27.15 27.53 27.37 27.05 27.49 27.93 27.79 27.75 27.15 27.52 27.91 28.40 28.41 28.80 27.40 26.87 27.60 27.63 31.15 28.05 26.47 25.85 24.90 29.23 34.56 36.14 37.24 37.17 36.70 36.53 36.48 36.92 37.62 38.19
26.28 26.75 26.49 26.28 28.13 30.11 27.51 26.53 26.57 27.22 30.40 31.54 31.46 30.96 31.12 31.81 31.13 28.68 27.33 26.40 24.02 25.15 25.78 28.33 26.23 21.87 20.47 27.60 28.23 33.88 35.43 35.21 35.63 36.24 36.77 36.65 37.07 37.95
25.73 26.31 27.73 27.10 28.52 28.93 27.43 26.93 25.40 25.92 26.71 27.70 28.22 29.70 31.80 30.91 31.94 30.78 29.91 26.34 25.46 22.55 24.39 25.58 23.24 23.64 27.47 18.47 18.34 21.18 24.80 31.83 34.25 34.68 35.55 35.80 36.98 38.19
24.61 25.56 26.88 28.66 29.13 30.04 30.31 28.69 28.43 28.11 27.35 27.00 27.66 28.45 28.45 28.68 28.65 29.81 30.61 29.74 27.93 26.38 27.40 27.37 22.71 22.58 22.66 24.17 16.67 17.41 22.42 20.24 24.53 28.19 33.40 34.60 36.28 38.23
25.44 27.61 27.51 28.31 28.39 27.63 27.37 28.80 29.24 29.34 28.33 27.60 27.43 27.25 27.71 28.12 28.51 29.35 29.73 30.47 30.98 30.44 29.91 29.44 25.75 24.26 21.42 24.39 25.97 16.01 14.86 16.39 18.44 19.84 22.99 30.91 33.36 35.80
28.45 27.18 26.95 26.52 26.08 24.82 25.83 26.97 25.72 25.90 26.28 25.79 25.85 26.66 27.83 28.42 28.86 28.53 28.90 29.79 30.80 31.62 31.66 30.94 28.70 25.11 25.00 26.12 20.11 15.20 17.72 15.31 15.55 15.48 18.28 24.90 27.29 29.87
25.79 25.05 23.36 23.81 22.13 22.54 23.89 24.85 25.36 25.49 25.71 25.76 26.46 27.28 27.94 27.55 28.25 28.92 28.19 27.62 28.01 28.51 31.49 32.15 30.99 30.46 27.79 26.41 26.38 24.91 14.79 20.06 18.28 14.63 15.70 16.64 22.27 27.12
24.46 21.54 21.19 19.44 18.77 19.94 20.79 21.36 22.28 22.82 23.23 24.95 24.86 24.81 25.82 26.61 26.24 26.25 27.72 27.18 26.46 25.01 26.96 30.15 31.84 31.84 31.25 30.26 24.85 23.66 22.23 18.62 17.65 16.47 15.52 15.11 17.55 20.68
23.15 20.37 18.47 17.31 16.25 18.47 17.96 18.08 19.07 20.38 21.35 22.96 23.39 22.97 22.41 23.92 24.12 23.86 27.80 27.47 26.33 25.91 24.95 25.00 26.25 25.70 25.62 24.85 28.56 21.55 23.14 23.07 19.53 15.51 16.19 15.90 16.32 22.62
19.39 18.50 17.46 15.86 17.22 18.81 18.14 17.49 17.22 19.56 20.73 21.47 22.51 24.07 25.12 25.48 25.43 26.40 27.30 27.54 25.82 25.23 23.46 24.72 25.34 25.31 21.69 20.06 21.32 26.37 22.52 21.70 16.47 17.60 16.93 15.83 17.62 23.37
17.90 17.27 15.92 16.29 16.46 16.92 18.08 17.46 16.50 16.21 16.94 18.15 18.89 19.39 20.55 22.07 22.30 23.03 24.11 22.88 20.40 20.49 20.65 23.12 24.59 24.19 23.02 20.91 18.55 18.91 26.06 15.55 12.68 13.35 16.37 22.27 24.28 26.72
15.32 15.51 15.33 15.40 15.43 15.33 14.95 16.00 14.35 14.33 13.33 14.10 14.93 15.84 16.23 21.46 21.15 18.48 19.40 18.84 20.97 21.82 20.45 20.07 20.08 22.72 21.11 20.56 16.10 15.21 18.98 27.23 22.05 15.60 17.25 18.37 17.21 19.32
13.29 13.70 13.87 14.10 13.87 14.10 13.63 13.33 16.26 15.72 14.92 14.77 14.10 13.92 14.14 13.37 17.30 18.91 17.35 15.10 16.48 12.93 16.67 18.62 22.52 22.98 20.39 18.43 13.35 9.89 11.67 16.03 21.97 23.07 24.58 23.87 20.36 16.86
11.61 11.68 11.75 11.76 12.61 13.14 12.91 12.36 12.75 14.38 15.31 12.95 12.11 12.76 10.43 9.66 13.93 13.01 11.60 12.33 12.86 12.38 12.53 15.80 18.18 17.44 16.85 15.99 14.82 12.57 12.41 13.32 14.58 16.25 14.97 21.23 26.23 25.56

GFSNE_sfc_wetblb_012.txt.gz
Wetbulb
37.62 37.83 37.53 37.91 37.79 37.69 37.33 36.25 33.09 28.86 29.46 32.06 32.87 37.56 38.38 39.37 40.46 41.42 41.46 42.78 42.93 42.82 43.41 44.23 45.33 48.97 48.81 49.62 49.52 50.81 51.53 51.14 51.21 52.61 55.09 59.91 60.04 59.83
37.20 36.13 35.42 35.88 35.87 36.04 36.12 36.16 35.02 33.00 29.05 32.59 33.35 35.15 37.03 38.52 40.10 40.12 39.08 42.40 42.05 42.26 42.48 42.96 43.06 43.95 47.03 47.74 48.39 48.17 48.28 49.29 51.14 50.03 51.24 55.85 59.15 59.36
34.06 33.31 32.69 33.10 32.76 32.99 33.06 33.29 32.87 32.74 30.02 31.69 33.16 34.73 35.11 35.59 36.90 38.23 39.42 39.80 40.85 41.85 41.30 41.86 42.10 42.21 42.29 43.85 45.01 45.24 45.79 46.53 46.66 48.91 49.81 51.30 54.62 59.02
30.96 30.65 30.67 32.88 31.23 31.75 31.29 30.36 30.71 31.04 30.24 28.30 30.37 31.67 32.68 35.46 36.30 36.34 37.02 38.92 39.39 39.90 40.62 40.56 41.37 41.82 42.11 41.76 42.04 42.10 42.82 43.04 43.69 44.23 45.24 47.70 49.92 51.81
29.59 29.10 29.03 29.14 28.06 28.62 28.99 28.73 28.93 30.61 29.49 28.87 28.15 30.35 31.54 32.79 33.09 34.38 35.45 36.67 37.64 39.40 39.31 39.05 39.84 40.56 41.33 41.98 41.64 41.60 42.06 41.67 41.41 41.75 41.46 42.12 43.83 46.25
28.80 28.14 27.58 27.21 26.68 26.56 27.01 27.02 27.70 27.39 27.74 27.30 27.29 27.67 28.44 30.40 30.94 29.75 29.92 33.19 33.67 35.40 37.26 37.37 38.44 39.75 40.90 41.28 41.33 41.34 41.51 41.59 41.41 41.12 40.54 40.10 39.74 41.51
28.21 27.96 27.88 28.67 30.81 30.07 28.30 27.46 27.14 26.96 27.48 27.22 26.96 26.77 26.54 26.08 26.44 28.49 28.17 29.62 31.19 32.74 32.84 33.94 36.11 37.18 37.66 39.62 40.92 41.57 41.09 41.80 41.78 41.60 41.06 40.44 40.47 40.76
26.30 26.39 26.61 28.55 28.09 29.47 29.84 30.23 29.60 26.72 25.81 25.40 25.59 24.60 25.02 25.36 26.04 25.95 26.03 25.27 24.11 31.29 30.56 30.68 34.17 34.35 36.30 37.41 38.15 39.04 40.40 40.28 40.27 40.09 39.98 39.15 38.53 39.12
25.48 25.51 26.02 27.36 28.15 27.56 28.36 28.81 28.80 29.42 28.25 28.07 26.53 26.46 26.13 27.32 27.13 26.02 26.19 25.78 25.53 28.61 31.02 29.28 31.63 32.05 34.53 35.57 36.92 37.91 38.68 38.92 38.97 38.89 38.78 37.76 37.36 37.14
25.39 25.56 25.54 25.74 27.12 27.25 27.42 27.29 27.38 27.81 27.91 27.70 27.22 27.34 28.51 29.18 28.19 28.12 27.66 27.65 28.31 28.68 30.58 26.36 29.37 28.41 30.33 32.06 35.03 36.46 37.30 38.00 37.85 37.36 37.21 36.74 36.41 36.03
25.53 26.29 26.41 26.49 28.14 29.39 27.40 26.53 26.79 27.31 29.92 30.96 31.46 31.21 30.65 30.90 30.35 28.12 26.65 26.30 24.82 26.01 27.86 27.52 27.76 27.18 27.80 30.69 32.78 34.73 35.94 36.97 37.15 36.72 36.99 36.78 36.60 36.62
24.92 26.40 27.38 27.21 28.65 29.56 28.14 27.06 25.56 26.84 28.16 28.67 28.45 29.17 31.04 31.21 31.61 30.31 29.44 25.80 25.52 24.52 26.63 26.30 26.40 26.65 26.19 27.27 28.48 30.58 32.98 35.05 35.03 35.19 36.04 35.61 35.62 36.29
25.31 25.18 26.45 28.68 28.46 28.44 28.15 25.77 25.61 27.67 28.84 28.84 27.91 27.89 28.44 28.44 29.59 30.68 31.19 29.66 27.43 26.54 28.54 27.79 25.39 25.19 26.25 26.74 26.66 26.75 27.69 28.93 30.68 31.55 33.89 34.26 33.30 35.62
25.26 26.75 27.06 27.26 27.12 26.63 25.71 26.44 26.93 26.93 26.49 26.40 26.83 26.64 26.90 27.62 28.77 29.45 29.94 30.01 30.86 29.39 30.49 29.03 27.32 26.70 26.25 25.72 26.25 25.65 25.97 25.88 27.36 28.19 29.60 29.71 31.46 33.00
27.76 28.48 26.27 25.35 24.75 23.64 25.02 25.79 24.95 24.71 24.39 24.58 25.03 26.29 27.99 29.18 30.35 30.21 29.90 29.89 30.05 31.11 31.31 30.64 29.90 27.38 27.88 27.09 26.38 26.60 27.11 25.50 25.52 25.75 26.08 26.91 28.17 29.41
26.54 26.11 24.31 24.02 20.93 21.03 22.28 22.88 22.90 23.97 23.28 23.96 25.90 27.90 29.27 28.88 28.27 29.45 28.19 28.26 27.53 28.01 31.24 31.98 31.63 30.54 28.16 27.96 28.60 28.31 24.43 27.48 25.72 24.35 24.48 24.51 25.56 26.75
25.35 22.99 20.93 19.67 18.51 19.63 20.00 20.07 20.73 21.50 21.51 22.48 23.96 24.53 25.35 26.31 26.49 27.54 28.72 28.20 26.57 26.30 27.29 29.98 31.49 32.14 31.48 30.33 26.26 28.01 27.60 24.46 25.79 25.64 23.76 24.33 24.81 25.52
21.73 18.88 17.91 16.81 15.79 17.93 17.81 17.27 17.78 18.44 19.56 21.00 22.82 24.06 24.14 24.26 24.98 25.62 26.57 26.79 26.08 26.61 26.82 27.77 29.10 28.88 26.49 26.55 29.66 27.82 26.09 26.56 25.20 24.82 23.96 23.44 23.09 25.22
17.92 17.40 15.95 15.59 15.67 16.62 16.99 17.47 16.11 16.92 18.61 18.68 19.53 20.32 21.23 23.19 24.23 23.77 25.68 27.46 26.89 27.76 26.89 26.39 26.91 26.40 22.48 20.62 23.27 27.06 25.12 24.32 24.82 24.07 24.21 22.76 22.41 23.97
16.22 15.57 14.61 14.95 15.48 15.40 15.04 14.76 15.78 15.97 15.99 15.85 16.55 17.14 17.75 22.07 20.31 21.32 22.15 22.36 23.36 23.36 23.19 24.96 24.65 24.74 24.06 22.94 21.29 22.68 27.01 24.57 23.47 21.96 22.64 23.60 24.93 26.28
13.90 14.04 14.23 13.88 13.89 14.57 13.55 13.01 13.10 14.87 14.38 12.20 14.00 14.32 13.93 17.58 21.26 20.25 18.30 17.55 19.63 22.09 19.87 19.14 20.13 21.97 21.69 22.24 18.87 18.45 19.95 27.11 24.75 22.93 22.12 20.89 20.48 21.60
12.04 12.34 12.71 12.95 12.78 12.94 12.66 12.16 12.97 13.65 15.07 13.85 12.46 11.84 11.82 13.42 15.10 16.55 16.33 14.90 16.71 16.77 18.16 20.05 21.93 22.96 20.35 19.52 15.78 15.58 17.06 19.04 23.06 23.90 25.18 24.29 21.98 18.73
10.73 10.90 10.84 11.20 11.45 11.47 11.53 9.84 10.53 12.31 13.48 13.51 11.86 11.96 9.05 10.68 13.50 13.97 13.73 14.90 15.99 16.49 17.21 17.49 17.69 17.42 16.97 17.39 16.35 15.90 15.98 16.26 17.35 18.51 18.70 24.98 26.00 25.65

GFSNE_sfc_wetblb_015.txt.gz
Wetbulb
39.10 39.28 38.65 38.62 40.01 40.24 39.40 38.12 34.89 31.28 33.28 37.79 37.71 41.46 42.15 43.04 43.69 44.48 45.34 43.60 42.04 42.37 43.13 43.89 44.24 45.49 46.39 48.80 49.02 48.50 48.15 49.48 50.54 50.63 50.46 51.84 54.04 59.04
40.17 39.74 39.33 39.21 39.82 39.21 38.33 38.09 37.78 34.88 31.31 36.08 37.28 39.23 40.74 40.61 42.08 43.45 43.04 42.50 41.64 41.80 42.15 42.39 43.26 43.43 43.34 43.61 45.23 47.77 47.55 47.69 48.65 49.41 50.21 49.41 51.26 54.19
39.46 38.65 37.96 38.29 37.54 37.51 37.71 37.43 36.19 35.64 32.51 35.20 37.77 39.28 38.98 39.20 39.95 41.26 41.82 41.93 42.51 41.53 40.99 40.91 41.42 41.74 42.39 42.02 42.13 43.50 45.34 46.67 46.21 46.69 47.82 48.97 48.73 50.68
36.32 36.24 35.51 35.65 35.94 36.36 36.06 35.33 35.40 35.97 34.21 32.10 35.24 36.34 36.95 38.63 39.26 39.34 39.62 40.35 40.90 40.11 40.29 40.29 40.79 40.54 40.52 41.23 41.36 41.82 42.07 42.21 43.60 43.68 44.45 45.77 47.28 47.46
34.84 34.34 33.82 33.68 32.90 33.34 33.46 33.02 33.42 33.57 33.90 32.43 32.26 35.13 35.67 36.62 36.13 37.29 37.37 38.43 39.05 39.11 38.52 39.23 39.76 39.97 40.26 40.29 41.41 41.73 41.45 41.10 41.24 41.42 41.87 42.00 42.59 43.96
33.75 33.19 32.76 32.03 31.61 31.54 31.35 31.53 31.74 31.55 31.86 31.21 31.10 31.67 33.00 34.58 34.50 33.18 33.58 36.16 35.77 36.87 37.19 37.02 37.81 38.79 39.74 39.50 40.23 41.57 41.30 41.28 40.87 40.88 40.56 39.86 39.91 41.57
32.80 32.23 32.04 31.73 30.99 30.99 30.72 31.18 31.42 30.31 29.58 28.50 28.10 29.06 28.99 29.24 28.94 32.41 32.11 33.49 34.64 35.82 35.56 36.74 37.92 38.77 39.22 38.69 39.10 40.26 41.31 41.28 41.20 41.01 41.11 40.06 39.57 40.30
29.70 30.19 30.43 30.32 30.34 29.65 29.71 30.04 30.50 28.81 27.75 27.68 27.44 27.48 29.02 29.73 30.70 30.50 30.69 29.85 28.41 35.78 33.66 33.14 36.70 36.10 37.66 39.31 37.78 38.67 40.12 40.79 40.56 40.55 40.74 39.76 38.93 38.18
28.86 28.92 29.03 29.65 30.05 30.40 29.61 28.89 28.94 29.29 28.44 28.47 27.03 28.03 28.12 29.68 29.77 28.49 29.08 30.00 29.83 33.24 33.10 30.77 34.68 34.30 37.62 38.64 37.89 37.93 38.52 38.79 39.34 39.76 39.18 38.58 37.64 36.91
29.09 29.37 28.93 28.95 29.35 27.99 28.18 28.75 29.36 30.15 30.53 30.22 29.62 29.70 31.08 31.65 31.02 30.66 30.10 30.49 31.84 32.10 33.29 27.65 33.28 33.03 35.58 37.93 36.78 36.22 37.13 37.93 38.38 38.52 38.05 37.65 37.01 36.47
28.89 29.15 29.46 28.47 28.95 29.78 28.73 28.35 29.09 29.67 31.29 31.53 31.61 32.10 31.91 31.71 31.61 31.14 29.29 28.51 28.12 28.59 32.29 29.53 31.26 31.90 33.66 36.12 37.98 35.69 35.82 36.76 37.25 37.77 37.83 37.33 36.84 36.62
28.45 29.07 28.73 28.87 28.78 29.20 29.37 28.21 26.89 27.79 28.17 29.65 30.34 31.47 32.16 32.76 31.98 32.52 31.20 28.06 27.27 26.76 31.56 29.15 30.11 31.05 29.24 35.51 36.09 37.45 37.47 35.19 35.45 36.96 37.22 36.87 36.65 38.45
27.24 28.06 29.48 29.37 28.43 27.87 27.42 27.27 26.55 27.74 27.78 28.13 28.86 29.76 30.52 31.20 31.83 32.77 32.57 32.20 29.55 28.55 32.37 31.46 30.04 31.18 30.40 30.79 33.64 35.93 36.74 36.00 36.07 36.16 34.70 35.63 35.21 35.28
26.95 28.50 30.01 26.95 26.43 25.63 25.82 26.04 26.55 26.58 27.67 27.23 26.91 27.59 28.83 29.82 30.74 32.00 32.73 32.96 34.01 31.92 33.20 32.79 30.44 29.91 29.38 29.68 29.93 34.50 35.96 36.03 36.34 36.11 36.29 34.32 32.10 33.14
28.71 28.01 26.54 25.59 24.74 24.65 24.11 24.49 25.16 26.12 26.27 26.12 27.13 28.24 30.17 31.18 32.10 32.52 32.80 32.66 32.96 33.22 32.46 32.72 32.34 31.68 31.35 29.84 29.16 31.14 32.20 34.95 35.05 35.52 35.38 35.07 35.48 36.34
27.04 27.20 25.19 24.18 23.75 24.10 24.79 24.99 25.43 25.43 24.96 25.40 26.46 28.61 30.74 31.10 30.37 31.51 30.75 30.99 29.97 29.78 32.27 33.14 32.79 32.41 31.25 30.69 30.51 29.94 32.18 31.29 33.93 34.13 34.62 34.90 34.61 34.16
25.85 24.78 22.70 22.00 22.33 22.69 23.47 23.36 23.99 24.51 24.13 25.03 26.41 27.16 28.89 29.51 29.48 30.54 30.18 30.36 28.99 28.42 29.60 31.39 32.42 33.10 33.17 32.61 30.78 31.47 31.74 31.70 33.86 34.26 30.69 33.21 34.99 34.52
22.57 20.30 19.68 20.23 20.42 20.81 21.04 21.09 22.72 22.28 22.80 23.76 25.12 25.80 26.52 27.64 27.98 29.15 28.65 28.90 28.84 29.22 29.66 30.90 31.45 30.85 30.95 30.47 29.70 30.45 31.22 31.27 33.26 32.85 31.87 31.43 32.79 34.58
19.16 18.49 18.09 18.25 19.16 20.00 20.27 20.34 20.10 21.69 22.51 22.70 23.19 23.70 24.75 27.45 27.74 28.27 28.75 29.10 29.08 29.47 30.54 31.89 30.75 29.45 26.66 25.21 28.74 27.16 29.50 31.13 31.35 29.98 30.44 29.55 30.95 32.59
17.47 17.03 16.81 17.40 17.78 18.25 18.72 19.15 20.08 21.36 21.58 21.37 22.09 22.34 22.96 24.17 26.13 26.64 27.58 27.72 28.86 28.54 28.30 29.24 29.34 29.26 28.03 27.84 27.67 27.06 26.89 28.92 29.37 29.68 28.54 29.59 28.54 26.25
15.03 15.69 16.25 16.16 16.34 17.21 17.86 18.38 19.46 20.02 20.45 20.87 21.29 21.33 21.71 23.06 23.55 25.04 26.26 24.24 26.46 27.63 25.82 25.57 25.61 24.54 28.46 28.81 25.87 24.71 25.82 27.35 27.95 29.14 27.46 28.06 26.91 27.63
14.07 14.34 14.88 15.32 15.74 16.39 17.40 17.54 18.84 19.54 19.65 20.47 20.45 21.38 21.77 22.54 22.51 23.26 24.10 25.22 25.12 25.55 24.44 25.49 26.17 26.88 27.19 25.95 23.98 22.25 23.96 25.45 25.60 25.29 26.29 26.26 27.88 26.51
13.17 13.49 14.15 14.74 15.15 15.72 16.15 16.73 17.29 18.14 18.16 18.60 20.04 20.87 21.47 21.15 22.26 23.26 23.78 23.65 23.77 24.14 24.26 25.08 24.96 24.42 23.24 23.66 23.03 22.95 21.58 22.71 24.67 25.11 25.21 24.18 25.75 25.81

GFSNE_sfc_wetblb_018.txt.gz
Wetbulb
41.67 41.47 40.62 40.29 40.73 40.02 39.70 38.70 35.68 32.67 34.53 39.20 40.34 44.86 45.42 45.77 45.50 45.84 46.21 45.10 44.09 42.18 42.49 43.77 44.47 44.93 45.66 46.83 49.12 49.55 49.48 49.89 50.42 50.80 50.82 51.31 51.48 53.40
42.37 42.19 41.76 41.69 41.04 40.54 39.46 38.86 38.26 36.16 33.56 37.66 38.65 40.87 42.53 42.42 43.72 43.88 43.99 43.75 42.48 41.85 41.87 42.83 43.41 43.94 44.14 44.38 44.26 44.75 46.33 48.39 48.47 48.58 48.99 49.34 50.27 50.76
41.36 41.10 40.63 41.02 39.88 39.77 39.72 39.38 38.04 37.82 34.77 37.10 39.44 40.94 41.22 41.43 42.16 43.15 43.40 43.38 43.58 41.40 40.96 41.74 41.54 41.67 42.20 42.33 42.82 43.02 43.10 44.38 46.66 47.42 47.50 47.59 48.31 49.61
38.76 39.19 38.82 38.40 38.15 38.65 38.27 37.94 37.88 38.19 36.28 34.42 37.51 38.57 39.32 40.78 41.24 41.11 41.28 41.73 42.61 41.69 41.59 41.17 40.85 40.62 40.81 40.70 40.89 41.31 41.77 42.10 42.08 43.42 44.70 45.50 46.06 46.74
37.94 37.20 36.98 36.84 36.19 36.40 36.76 36.07 36.28 36.30 36.54 35.11 34.82 37.72 38.31 39.54 39.14 39.97 40.07 40.85 41.08 40.59 39.25 38.86 39.63 39.80 39.90 40.33 40.25 40.18 40.78 40.83 40.73 40.59 41.43 42.06 42.77 43.48
36.83 36.49 36.13 35.39 34.99 34.80 34.57 34.56 34.44 34.35 34.89 34.19 34.07 34.67 36.07 37.70 37.82 36.35 36.26 38.64 38.35 39.61 39.20 37.67 37.86 38.53 39.09 39.52 39.58 39.55 39.69 40.58 40.34 40.43 39.72 40.00 40.08 41.24
35.35 35.13 35.30 34.76 32.75 32.39 32.21 32.82 33.72 33.56 33.68 33.18 32.12 32.94 33.12 33.56 33.27 35.03 33.64 34.96 36.85 38.61 37.69 39.27 40.09 40.47 40.60 38.38 38.37 39.15 38.71 38.74 39.95 40.44 40.61 39.62 40.11 40.61
33.52 34.24 34.45 33.48 33.43 32.26 31.49 30.85 31.17 29.81 29.16 29.18 29.87 29.21 30.70 32.17 33.23 33.46 33.15 31.36 29.52 38.00 36.32 35.92 38.53 37.48 39.44 40.78 38.83 38.54 38.82 38.45 39.54 40.42 40.48 39.85 40.47 39.21
33.26 32.93 32.49 33.13 32.61 31.68 31.11 31.12 30.42 30.07 28.96 29.60 27.94 29.22 29.22 31.80 32.87 32.04 31.95 31.16 30.42 34.17 35.35 33.07 36.44 35.47 37.14 37.33 37.47 38.10 38.46 38.68 39.08 39.35 39.29 39.28 38.89 38.19
32.70 32.38 32.22 31.43 30.94 30.68 29.88 29.40 30.16 31.38 32.19 31.96 31.46 31.16 31.95 31.93 32.77 32.77 32.85 32.67 33.84 33.45 34.67 30.93 35.37 33.90 36.55 37.72 36.61 37.32 38.25 37.82 37.93 38.48 37.93 38.08 37.99 37.24
29.65 30.20 30.21 29.88 30.26 30.43 30.31 29.72 29.93 30.73 32.45 32.82 32.70 32.21 32.20 32.34 32.58 32.68 30.98 29.86 29.75 30.38 34.00 31.21 33.18 33.89 35.14 36.36 38.75 36.69 36.93 36.50 36.36 37.18 37.88 37.58 37.05 36.70
29.07 29.71 30.06 30.56 30.00 29.67 30.21 29.29 27.70 28.42 29.82 30.47 30.54 31.68 32.72 33.12 31.70 33.04 32.90 30.07 29.73 29.18 33.62 31.11 31.14 31.53 30.27 36.48 37.29 37.90 39.37 35.82 35.47 36.28 37.16 37.70 37.90 40.51
27.12 28.51 31.01 30.26 27.92 27.73 27.42 27.87 27.21 28.59 27.85 29.17 29.83 29.65 31.25 32.80 33.51 34.41 34.43 33.01 30.88 30.12 33.25 32.36 32.38 31.25 31.55 32.12 35.24 36.98 37.89 38.44 38.63 38.09 35.85 37.29 36.88 37.25
27.30 29.29 31.20 27.50 27.35 26.48 26.29 26.23 25.94 26.48 29.36 29.88 29.94 29.60 29.73 31.04 32.54 33.44 34.18 34.32 34.91 33.27 34.45 33.96 32.66 31.95 30.95 30.57 31.03 35.17 37.18 37.82 36.75 36.11 39.27 37.80 35.50 34.85
29.20 28.34 27.06 26.38 26.33 26.51 25.74 25.37 25.81 28.39 27.76 27.68 28.60 29.51 31.60 32.90 33.56 33.65 34.31 34.60 34.32 34.71 34.38 34.42 34.00 33.12 32.19 30.93 31.41 33.25 33.42 36.26 36.23 36.65 37.30 38.15 38.14 39.40
26.85 29.14 26.90 25.94 26.71 26.92 27.10 26.80 27.61 27.99 27.08 27.20 27.90 29.30 30.95 32.01 32.34 32.76 32.18 32.93 31.70 31.81 33.93 33.99 33.75 32.81 31.22 32.51 32.05 32.06 34.33 32.38 36.22 36.05 36.13 36.90 37.68 37.68
25.44 27.04 25.41 24.35 25.33 25.62 25.51 26.16 26.82 26.48 26.10 27.68 28.22 28.66 29.82 30.84 31.55 32.56 30.81 31.90 30.85 30.59 31.53 32.38 33.34 33.25 33.51 32.72 31.35 32.61 32.90 33.77 35.27 35.74 34.79 33.96 36.00 36.92
24.65 22.95 22.24 22.17 22.96 23.53 23.67 23.65 24.84 24.34 24.85 25.83 27.06 27.31 27.14 28.42 29.96 30.67 30.27 29.84 30.17 31.47 31.01 32.74 32.40 31.52 31.68 32.16 33.24 31.61 32.67 33.24 34.56 35.44 34.92 31.61 32.76 36.83
21.50 21.15 20.66 21.23 21.74 22.34 22.23 22.82 22.78 23.96 24.96 24.87 25.37 25.89 26.36 27.57 29.39 30.27 31.39 30.55 30.51 31.16 32.02 33.55 32.21 31.07 28.11 27.29 30.20 27.61 30.40 32.02 34.49 33.43 34.29 31.12 31.67 34.11
19.73 19.49 19.23 20.29 20.81 20.92 21.26 21.22 22.42 23.25 23.69 23.87 24.37 24.95 25.40 26.12 26.69 27.93 29.57 29.61 30.62 30.87 31.15 31.63 31.55 31.21 29.94 29.62 30.68 27.85 27.27 29.02 31.08 31.37 31.93 32.45 30.22 25.92
18.06 18.38 19.00 19.25 19.85 20.56 21.11 21.26 22.53 22.46 22.91 23.62 23.71 23.96 24.58 25.63 25.67 26.15 27.03 27.79 28.06 28.17 26.91 26.91 27.39 26.62 30.89 31.60 28.65 27.17 27.38 27.58 28.87 30.82 32.12 30.32 28.94 30.02
17.72 17.81 18.45 18.77 19.25 19.69 20.40 21.10 22.48 22.48 22.15 22.55 23.19 24.17 24.57 25.22 24.79 24.94 25.70 25.91 26.24 26.78 26.25 27.57 28.95 29.16 28.63 27.10 27.57 24.99 27.25 27.57 27.08 26.23 26.28 26.48 27.92 27.85
17.51 17.66 18.15 18.50 18.72 18.99 19.27 20.24 20.82 21.60 21.48 21.34 22.24 23.24 24.65 23.99 25.11 25.31 25.63 25.92 25.52 25.82 25.85 26.34 27.42 28.57 26.70 26.50 26.39 26.13 23.82 25.15 27.83 28.00 27.15 26.03 26.02 26.38

GFSNE_sfc_wetblb_021.txt.gz
Wetbulb
43.13 42.69 41.45 41.79 41.91 41.09 39.45 37.90 35.15 31.89 33.69 38.04 38.92 44.23 45.89 46.96 46.54 46.96 46.65 45.86 44.17 44.70 43.71 43.47 44.02 44.56 45.19 45.82 46.63 49.53 50.57 50.71 50.80 50.92 51.23 51.70 52.02 52.30
42.45 41.79 41.67 42.22 41.63 41.49 40.63 40.04 38.13 34.88 32.12 37.75 39.65 42.09 43.20 42.44 44.41 44.84 45.21 44.25 44.14 43.33 42.25 42.08 42.80 44.12 45.17 45.59 45.44 45.54 47.31 48.14 48.72 49.34 49.40 49.72 50.02 50.09
41.61 40.71 40.57 41.29 40.76 40.54 40.23 39.73 39.08 38.99 35.63 37.76 40.23 41.24 41.47 42.10 42.35 44.41 44.53 44.42 44.44 42.25 41.50 41.71 41.67 42.28 42.97 43.14 43.32 43.76 43.66 44.10 44.47 46.28 48.24 48.65 48.73 49.26
39.10 39.15 39.05 39.06 38.98 39.03 38.59 37.61 37.94 38.49 37.03 35.51 38.01 39.09 39.98 41.68 42.39 42.57 41.67 42.17 43.60 42.21 41.91 41.30 41.36 41.70 41.38 40.79 40.98 41.36 41.54 41.73 42.25 42.77 43.62 45.79 46.47 47.17
37.64 37.36 37.30 37.14 36.50 37.16 37.12 36.80 36.85 36.50 36.94 36.17 35.50 38.39 38.96 39.93 39.96 40.90 41.22 42.31 41.82 41.98 40.80 40.80 41.08 41.40 41.09 40.59 40.20 40.29 40.42 40.03 39.78 40.40 40.98 41.55 42.57 44.14
37.02 36.98 36.80 36.43 35.93 35.65 35.39 35.32 35.09 34.51 34.98 34.86 34.92 35.59 36.94 38.56 38.90 37.67 37.54 40.06 39.80 40.42 40.17 38.76 39.81 39.99 39.61 39.47 39.26 39.49 39.45 39.79 39.24 39.17 39.30 39.12 39.21 40.75
35.41 36.00 36.55 36.69 34.43 33.96 33.03 32.53 32.31 32.07 32.87 33.29 33.65 34.84 35.23 34.89 34.59 36.39 35.92 37.15 38.34 39.22 38.97 39.85 40.62 40.94 40.74 38.76 39.01 39.17 39.35 39.64 39.55 39.22 39.17 38.85 39.13 39.30
33.12 34.56 35.61 35.64 35.33 34.13 33.36 32.75 31.93 29.63 28.66 29.47 30.19 29.83 30.67 32.74 34.17 33.91 33.84 32.64 30.79 38.28 36.19 36.42 38.72 38.27 39.51 40.59 38.90 37.98 39.16 38.20 38.73 38.65 38.21 38.95 39.36 39.24
33.06 33.54 33.56 34.77 34.20 34.04 33.40 32.14 31.73 31.75 29.95 29.90 28.04 28.82 29.37 31.65 32.14 31.45 32.19 32.45 32.13 34.74 35.16 33.26 37.80 36.65 38.98 38.05 38.09 37.73 37.54 38.28 38.79 38.79 39.00 38.95 38.49 38.31
32.16 32.24 32.05 31.97 32.81 31.47 30.84 30.74 31.15 31.93 32.33 32.34 31.57 31.79 33.15 33.57 33.26 32.86 32.01 32.31 33.69 34.77 35.83 30.87 35.85 34.88 37.61 38.71 37.56 37.42 37.25 37.12 38.22 38.47 38.37 37.89 37.44 37.48
29.91 30.99 30.81 30.32 31.33 31.43 30.21 29.64 29.76 30.91 33.00 33.16 33.34 33.11 32.95 33.04 33.13 32.58 30.31 30.08 29.78 31.01 34.77 32.70 33.84 33.80 35.41 36.48 38.15 37.20 36.71 36.57 36.62 37.55 37.09 37.10 37.15 37.15
29.09 29.43 29.94 30.36 30.35 30.60 30.46 29.88 28.30 28.38 29.45 30.33 31.03 31.66 32.56 33.05 32.18 33.26 32.01 28.72 29.02 28.88 33.58 31.72 32.38 33.01 30.67 36.59 37.21 38.18 38.42 36.20 36.34 36.67 36.46 36.69 37.28 38.49
27.61 28.62 30.50 29.20 28.46 28.34 28.32 28.02 27.37 28.77 27.78 28.35 29.10 30.51 31.68 32.14 33.06 34.20 34.31 32.65 30.74 30.39 33.37 33.08 32.07 32.41 32.66 32.04 35.60 37.27 38.34 38.76 38.83 38.15 36.00 36.04 36.81 37.60
26.97 29.22 30.48 28.47 27.71 27.33 27.12 27.48 26.69 26.63 28.04 28.72 29.81 29.96 31.28 31.74 32.88 34.41 34.92 35.48 36.00 34.13 35.10 34.29 32.54 32.13 31.44 31.29 30.72 35.65 37.07 37.95 38.31 36.62 38.00 37.94 35.86 36.92
28.88 27.87 27.80 27.97 27.48 27.40 28.67 26.95 26.86 28.28 29.37 28.11 28.38 29.72 31.35 32.42 33.38 34.28 35.23 35.27 35.16 35.69 34.80 35.14 33.50 33.55 32.87 30.84 31.09 32.89 33.64 36.11 37.11 35.52 37.31 36.49 36.11 36.49
26.08 26.53 28.49 27.40 27.58 28.77 28.89 28.76 29.23 29.13 27.86 28.23 28.51 30.08 31.75 32.60 32.73 33.77 33.32 32.96 32.83 32.68 34.82 34.86 34.11 33.26 31.09 32.05 31.55 31.62 33.58 32.48 36.15 36.12 35.68 34.85 35.92 37.55
24.33 27.40 25.95 24.52 24.33 25.67 27.13 27.33 27.89 27.37 26.72 27.18 27.94 28.82 29.17 30.10 30.84 33.20 32.27 31.38 30.61 31.04 31.68 33.42 33.86 33.98 33.06 32.04 30.23 32.13 32.63 33.53 35.37 35.57 34.79 34.62 35.57 36.37
24.70 23.53 22.72 22.68 22.86 23.49 23.81 24.55 25.60 25.32 25.56 26.38 26.99 27.04 27.05 27.69 28.87 31.98 32.33 30.48 29.76 30.87 31.98 33.11 32.38 30.83 30.57 31.29 32.75 30.80 32.41 32.98 34.47 35.35 35.21 33.54 33.38 36.71
22.21 21.99 21.30 21.21 21.94 22.74 22.51 22.61 22.56 24.60 25.70 25.13 25.77 25.76 26.73 26.77 28.43 29.41 31.16 31.16 31.97 32.35 33.15 34.05 33.65 31.15 28.14 26.11 29.87 28.72 30.31 31.61 33.42 33.06 34.78 34.34 31.54 33.39
21.00 20.44 20.18 20.91 20.89 20.95 21.41 21.45 22.64 24.01 24.19 24.78 25.45 25.46 26.11 26.77 27.42 26.91 28.02 28.50 28.88 30.16 30.79 31.05 30.83 28.73 27.92 27.58 29.05 26.69 27.83 27.86 29.77 30.63 32.06 34.62 31.74 27.78
19.57 19.58 20.37 20.04 20.05 20.59 21.39 22.33 23.48 23.65 23.67 23.85 24.64 24.91 25.74 26.52 26.14 26.48 26.51 27.38 27.74 27.92 27.18 26.60 27.39 28.10 30.15 32.13 29.36 27.76 27.78 27.66 27.84 28.14 29.92 32.25 29.63 29.60
19.24 18.75 19.48 19.85 19.91 19.90 21.04 21.89 22.57 23.12 22.87 22.44 23.33 24.82 25.99 26.37 25.59 25.84 26.29 26.22 26.50 27.16 26.68 28.34 29.46 28.86 28.89 27.45 27.77 26.09 27.29 28.30 27.34 26.99 26.98 26.91 26.73 25.24
18.20 18.95 19.35 19.23 19.36 19.40 19.26 19.73 20.39 21.27 21.52 21.64 22.17 23.61 25.27 24.77 25.82 26.23 26.07 26.27 25.88 26.05 26.44 26.51 27.83 28.35 26.81 26.15 26.23 26.72 24.44 25.96 27.07 28.83 26.85 26.92 27.27 27.38

GFSNE_sfc_wetblb_024.txt.gz
Wetbulb
41.94 41.64 40.70 40.47 40.49 39.97 38.02 36.20 33.94 28.84 29.59 34.66 35.32 39.12 40.97 45.13 45.67 45.29 44.50 45.49 44.09 44.00 44.62 45.27 45.22 45.36 45.39 45.03 45.38 46.05 47.06 50.98 51.87 52.03 51.95 52.23 52.65 52.64
40.53 39.92 40.13 40.62 41.10 40.58 39.77 38.88 37.49 33.83 29.69 34.24 35.80 38.10 40.45 41.41 41.52 42.19 42.75 45.36 43.91 43.10 43.02 43.16 43.01 43.97 44.15 44.37 45.14 45.44 45.43 46.34 49.30 49.98 50.16 50.26 50.58 51.07
38.49 38.56 38.35 38.83 38.31 38.76 38.50 37.84 36.55 36.06 32.45 34.41 37.15 38.16 37.54 38.41 39.80 40.05 41.37 39.86 40.10 42.33 42.12 41.76 41.47 41.91 42.25 42.58 43.40 43.83 44.00 43.92 43.90 44.33 45.38 47.92 49.27 49.62
36.15 36.56 36.53 37.89 36.04 35.78 35.30 34.26 33.88 33.57 31.94 30.22 32.27 33.06 34.05 36.23 36.80 36.50 39.14 40.82 38.24 41.63 41.99 41.65 41.62 41.37 41.11 41.29 41.32 41.32 41.18 41.40 41.78 42.11 42.41 42.72 43.66 46.89
33.72 33.55 34.20 34.39 33.13 33.46 33.78 33.33 33.13 34.49 32.21 30.74 30.14 31.84 32.29 33.23 34.02 34.84 35.57 35.54 39.46 41.86 40.47 40.77 41.09 41.47 41.21 41.08 41.18 40.91 40.30 39.80 39.56 39.75 39.89 40.54 41.66 42.14
32.49 32.54 32.80 32.85 32.15 31.93 31.83 30.54 31.28 29.34 29.25 28.61 28.89 29.89 31.16 32.53 33.36 32.17 31.52 33.78 34.08 38.71 39.27 38.33 39.48 40.80 41.21 40.85 40.77 40.66 40.15 39.99 39.47 38.99 38.46 38.00 38.21 39.74
30.30 31.63 32.45 34.15 36.23 33.73 31.51 28.97 28.32 27.28 27.06 26.97 26.95 28.04 28.79 29.71 29.47 31.71 30.42 30.61 31.52 34.24 33.23 33.27 33.77 34.94 37.16 39.94 39.78 39.93 39.94 39.58 39.41 39.22 39.02 38.36 37.90 38.47
27.89 29.46 31.42 33.84 33.62 34.67 34.35 34.14 31.37 27.24 25.80 25.45 25.06 24.41 25.61 27.27 28.27 27.49 27.12 26.39 25.60 32.31 30.73 29.14 32.53 32.13 34.57 35.62 38.47 37.99 38.11 37.57 38.56 39.20 39.20 38.70 38.13 38.02
27.94 28.49 29.50 32.09 31.48 30.93 30.46 31.79 31.56 32.39 29.63 27.75 25.79 25.98 25.43 26.84 27.86 27.09 26.35 26.81 27.96 30.00 30.32 28.88 27.32 29.49 32.72 36.76 37.68 38.17 37.65 37.30 37.32 37.43 38.20 37.91 37.40 37.43
27.35 26.89 26.72 27.48 28.51 29.27 28.46 27.83 28.62 29.26 30.69 31.33 30.26 29.42 29.97 30.50 30.60 31.55 30.31 29.87 29.34 28.81 30.20 27.08 26.22 30.16 28.88 31.65 37.56 38.44 37.89 37.42 37.35 37.41 37.66 37.67 37.22 37.16
26.71 27.10 27.44 26.75 29.36 30.88 28.87 27.59 27.72 28.25 32.15 33.41 32.72 33.07 33.16 33.25 32.98 30.48 27.84 26.56 24.64 26.02 29.69 29.89 28.21 28.32 29.18 31.09 31.27 37.36 37.68 37.19 36.85 36.80 36.88 37.54 37.29 36.73
25.79 27.02 29.05 28.82 29.07 28.77 27.69 27.36 26.16 26.18 26.64 27.56 28.29 28.57 30.01 30.39 31.60 31.07 29.09 25.68 24.89 23.72 28.02 27.74 28.00 27.45 24.99 29.60 31.94 32.18 29.79 35.68 36.50 36.53 36.63 37.17 37.20 34.12
24.44 24.78 26.55 29.15 29.84 29.07 28.22 25.96 25.66 27.29 26.87 25.91 26.16 26.52 28.05 29.31 30.68 31.45 31.01 29.66 27.58 25.81 29.56 29.98 28.87 26.12 26.58 26.45 26.49 29.20 32.44 32.95 32.56 32.70 36.63 36.75 37.03 35.92
23.79 25.31 27.22 27.20 28.76 28.03 27.50 28.01 28.53 27.03 25.38 25.07 25.78 27.50 28.51 30.36 32.02 32.54 33.09 33.17 33.47 31.74 32.27 32.78 31.07 29.36 25.44 25.46 27.13 28.37 30.74 31.39 29.35 28.63 28.86 34.05 36.36 36.26
24.97 25.61 26.46 27.81 28.03 27.34 28.18 29.28 28.04 26.31 26.83 26.21 26.33 27.62 28.18 29.45 30.44 29.76 30.59 32.14 32.53 32.58 33.56 32.87 31.83 31.50 30.24 27.32 26.33 24.88 26.06 29.69 33.68 33.88 27.44 27.57 29.23 31.34
23.81 23.48 25.15 26.11 25.79 26.53 27.09 27.70 27.59 27.44 26.07 26.42 25.73 27.34 29.68 29.82 27.71 28.93 29.63 29.12 25.43 28.58 30.57 33.44 32.51 31.72 29.70 27.73 26.22 23.77 26.09 25.74 30.59 33.55 27.77 33.20 33.82 34.06
22.45 24.45 23.56 22.47 22.76 23.21 24.15 24.67 26.04 25.26 24.43 24.80 25.46 25.82 26.48 26.50 27.05 28.01 30.31 25.55 22.28 23.79 26.22 28.68 30.70 29.78 29.47 29.55 26.58 26.42 26.28 27.31 27.86 30.21 32.76 29.61 31.30 33.11
22.60 21.26 20.27 19.90 20.27 21.64 21.92 21.77 22.57 23.18 23.36 24.38 24.33 24.50 24.94 25.03 25.96 27.26 29.87 29.55 23.36 24.24 27.06 29.79 30.79 29.13 28.40 27.48 31.47 27.42 25.13 26.36 28.69 31.92 32.88 30.82 27.32 28.25
20.25 19.98 19.06 19.40 19.81 19.98 19.99 20.64 20.58 23.04 23.68 22.89 24.37 23.71 24.47 24.74 25.88 25.71 26.19 26.97 25.97 27.31 29.26 28.55 29.63 29.39 25.82 22.69 25.92 29.83 28.31 28.89 28.91 25.66 28.12 31.06 30.91 28.09
19.44 18.73 18.43 18.95 18.70 18.52 19.12 19.49 20.42 22.23 21.38 21.12 22.25 23.03 23.10 24.08 25.16 24.10 24.69 25.48 25.54 26.98 24.69 23.52 21.60 23.13 24.09 22.39 24.32 22.19 28.44 26.27 26.87 26.29 26.31 30.75 27.54 29.39
17.62 17.94 18.33 18.30 18.03 18.26 18.18 18.68 19.61 19.94 20.65 19.61 20.14 21.44 23.15 24.38 23.33 22.43 24.38 23.45 24.88 25.50 23.55 21.98 22.85 24.03 25.11 25.11 26.86 23.07 23.41 27.77 25.79 24.00 24.88 25.72 26.90 26.51
14.76 16.73 17.90 18.01 17.71 17.38 17.12 17.49 17.68 17.85 17.84 18.21 17.92 19.22 21.96 23.45 22.68 23.87 23.65 23.52 24.00 23.96 25.13 24.18 27.94 27.57 25.69 25.46 25.03 14.57 19.11 18.99 25.42 27.37 27.37 26.37 23.05 22.17
11.92 15.80 16.88 16.89 16.91 16.67 16.84 16.13 15.85 15.16 15.21 15.72 16.13 17.31 19.93 20.15 21.93 23.58 20.63 23.38 23.33 18.41 19.50 22.18 24.75 25.79 24.96 23.80 21.70 21.28 16.71 19.11 21.16 24.40 20.13 27.28 27.60 27.94

GFSNE_sfc_wetblb_027.txt.gz
Wetbulb
38.02 38.47 40.13 40.00 41.04 40.28 39.28 38.00 35.03 29.36 28.12 30.63 31.67 36.39 36.93 39.02 43.10 42.97 43.77 44.01 43.52 44.24 44.06 44.93 46.12 46.08 45.73 44.90 44.38 43.94 44.36 45.53 46.65 51.07 52.06 52.22 52.67 53.32
37.93 37.17 38.32 39.44 38.71 39.29 39.11 39.04 38.37 34.82 30.68 31.53 34.27 35.88 36.47 39.26 40.54 41.61 42.88 43.37 41.84 42.65 43.14 43.69 44.53 44.94 44.63 44.76 44.71 44.63 43.58 43.83 44.74 46.60 49.46 50.37 50.63 51.01
35.50 35.41 35.37 36.44 36.84 37.42 37.63 37.42 36.30 35.60 30.60 32.26 33.98 35.59 34.62 34.00 36.24 38.64 39.83 39.17 39.80 41.07 41.19 42.04 42.42 42.78 42.78 42.78 43.23 43.82 44.23 44.39 44.19 44.11 44.44 44.94 46.65 48.90
31.06 30.73 31.13 33.73 31.93 32.61 32.80 32.54 32.76 32.67 29.90 26.80 28.93 29.89 30.55 32.19 33.13 33.49 36.47 38.64 37.17 40.62 42.09 41.78 41.90 41.74 41.38 41.19 41.33 41.96 42.13 42.41 42.53 42.70 42.40 42.18 42.29 43.33
30.08 29.48 29.67 29.82 29.14 30.03 30.66 30.80 30.46 32.32 29.10 26.34 25.42 28.59 29.00 30.49 31.44 32.57 32.53 33.01 36.92 40.52 39.74 40.22 41.21 41.68 41.67 41.28 41.25 41.19 40.93 40.27 39.72 39.77 40.07 40.52 41.18 41.06
29.97 29.26 29.15 29.12 28.91 28.99 30.39 29.61 29.50 27.35 26.53 25.34 25.34 25.78 26.93 29.45 29.85 28.75 28.57 30.64 31.31 36.34 37.49 36.76 38.76 40.12 41.07 41.41 40.85 40.85 40.69 40.59 39.88 39.28 38.72 37.94 37.92 39.31
28.20 28.90 29.17 30.64 33.43 33.42 31.37 29.55 27.10 25.49 24.99 24.59 23.91 23.93 23.73 24.22 25.27 27.95 27.20 27.71 28.59 30.82 31.02 31.66 31.87 32.37 33.86 37.98 40.05 40.70 40.50 40.42 39.91 39.65 39.20 38.41 37.73 38.05
25.70 26.45 27.52 29.88 30.23 30.99 31.84 31.97 30.81 28.02 25.52 23.36 23.62 22.76 23.75 23.60 25.14 24.80 24.59 24.46 23.95 29.44 28.40 27.59 30.33 30.17 32.78 34.07 37.73 38.50 38.93 38.88 38.27 38.34 38.79 38.62 38.35 37.99
24.48 25.18 25.85 27.87 27.79 27.53 29.02 30.15 30.16 31.82 29.85 28.46 26.07 25.26 24.76 25.78 25.60 24.94 24.30 23.85 24.30 27.44 27.78 26.19 24.35 26.60 29.92 34.28 37.38 38.09 38.13 38.07 37.70 37.41 37.04 36.85 37.24 37.22
25.26 25.12 24.80 25.11 26.29 27.41 26.80 26.63 27.01 27.95 28.97 28.99 27.27 27.71 27.75 29.03 29.46 29.47 28.31 29.85 30.22 28.02 27.40 25.15 23.08 26.13 25.84 28.91 35.37 37.69 38.29 38.11 37.82 37.39 37.03 36.66 36.27 36.33
26.76 26.75 25.91 25.22 27.78 29.92 27.68 26.15 25.71 27.00 30.60 32.06 32.36 32.27 32.53 32.82 32.69 30.70 28.28 27.13 24.83 25.18 26.52 26.91 25.91 23.74 23.67 26.99 29.18 35.27 36.53 37.07 37.47 37.31 37.21 36.99 36.75 36.39
25.02 25.55 26.76 26.21 28.18 28.51 28.09 24.70 23.04 23.79 25.16 25.46 26.09 27.32 28.62 28.53 29.95 29.29 28.02 25.97 25.57 24.40 27.06 25.59 25.23 23.13 19.99 24.27 29.47 30.83 28.31 35.06 36.51 36.88 37.20 37.29 36.88 34.61
22.82 22.88 24.35 26.86 27.12 28.30 28.37 26.33 25.26 26.13 26.71 25.70 25.24 25.33 26.32 27.37 28.69 30.11 30.67 29.31 27.05 26.48 28.76 28.70 23.90 24.12 25.18 25.26 22.56 24.68 26.74 29.65 31.44 32.83 36.43 37.13 37.13 36.34
21.96 23.33 24.67 26.93 28.46 27.61 27.51 28.89 28.93 27.82 26.05 24.90 24.81 24.69 26.43 28.69 29.81 31.44 32.75 31.99 31.87 30.56 31.13 31.44 29.45 28.37 27.60 25.81 24.00 25.63 24.18 27.53 26.33 25.42 27.21 32.99 35.66 36.49
23.58 24.65 26.16 26.84 26.38 26.43 27.59 27.29 27.71 26.82 25.92 24.82 24.84 25.09 26.54 28.93 30.50 30.55 30.44 30.48 31.74 31.65 32.93 33.53 31.98 31.80 30.61 27.98 24.90 24.10 24.63 24.56 25.29 28.90 32.76 32.49 27.56 24.99
23.56 23.23 24.84 24.42 24.63 24.61 24.83 24.99 25.44 24.75 23.94 23.44 23.72 25.29 26.61 26.57 25.83 27.44 25.23 26.04 22.43 23.81 29.11 30.96 32.38 30.99 28.83 29.51 29.43 27.70 26.87 26.38 25.77 31.74 29.65 22.24 25.67 29.39
22.24 22.31 20.91 20.36 20.76 21.98 22.01 22.99 23.03 23.89 22.85 23.14 23.43 23.93 24.22 25.40 25.38 26.60 26.67 28.77 24.06 21.18 23.59 26.55 32.08 31.41 30.76 28.86 27.44 28.21 27.97 25.50 25.33 24.61 30.25 30.72 32.32 32.56
20.32 18.59 17.24 18.14 18.56 19.19 18.98 20.03 21.28 22.41 22.40 22.45 23.14 23.16 22.76 23.32 24.26 25.82 25.08 23.17 24.84 26.63 28.13 30.32 30.41 29.55 29.51 28.09 31.39 28.50 25.63 24.59 24.42 27.62 30.83 30.01 30.28 27.88
17.60 17.31 16.08 16.92 17.03 17.82 17.89 18.38 18.44 21.00 22.15 20.68 20.83 20.70 22.40 23.66 24.17 23.23 23.44 24.25 24.39 26.81 24.72 22.52 22.86 22.43 24.02 22.36 24.29 29.20 27.87 27.16 24.71 21.52 22.39 23.27 28.01 28.97
15.92 16.98 16.38 16.91 16.84 16.76 16.64 16.74 17.60 18.85 18.39 18.02 18.09 18.76 20.12 22.71 21.77 22.00 23.04 21.32 23.04 23.49 22.38 20.53 18.65 20.14 20.98 19.36 19.09 16.25 28.20 21.57 20.43 20.75 23.08 25.95 25.18 29.91
11.42 14.54 16.38 16.31 15.99 16.08 14.17 14.57 15.19 15.27 14.66 14.92 15.39 16.44 17.21 20.82 20.31 21.81 21.15 20.35 18.84 22.16 22.58 21.71 22.73 23.38 24.41 21.65 20.02 15.20 16.61 27.28 22.26 17.91 19.99 19.92 24.15 26.39
5.23 10.41 14.93 16.00 14.05 14.69 12.54 12.59 14.01 12.76 11.89 12.50 12.45 13.49 15.66 18.59 18.52 20.48 19.84 19.76 17.95 14.61 18.25 20.26 24.57 27.38 24.17 23.99 20.27 13.69 14.29 12.89 22.87 27.22 27.27 25.01 20.80 21.11
2.37 6.10 7.57 9.91 13.09 13.97 15.39 13.37 10.67 8.13 10.01 10.28 10.36 11.58 12.46 15.10 16.10 18.07 18.07 17.24 19.37 16.03 17.06 20.03 22.84 22.32 22.47 21.21 19.69 16.87 11.81 14.49 17.72 20.47 15.68 26.24 27.70 27.51

GFSNE_sfc_wetblb_033.txt.gz
Wetbulb
34.53 34.25 34.12 34.82 34.45 34.65 34.01 33.64 32.53 27.90 28.36 30.08 30.18 35.60 35.85 35.47 37.10 35.50 38.36 41.76 42.88 42.68 42.06 42.37 44.20 44.64 45.05 45.18 45.84 45.41 44.78 44.75 44.67 45.25 47.53 51.04 52.17 52.05
34.54 32.03 30.17 30.59 30.16 29.84 29.87 31.02 31.30 31.05 27.69 33.25 31.32 32.97 34.80 34.84 35.71 32.99 33.42 37.86 40.85 41.71 40.76 42.23 42.05 42.58 43.26 44.01 44.13 45.65 45.13 44.03 43.78 43.38 44.05 45.58 48.73 50.29
28.60 28.39 28.45 28.83 28.62 28.55 28.40 28.33 27.96 27.89 25.74 28.05 30.37 32.22 30.16 30.29 31.78 32.67 33.12 32.35 32.73 37.54 39.81 40.86 41.60 41.81 41.67 41.82 42.90 43.01 45.03 45.17 45.10 44.10 43.51 43.77 44.87 46.61
27.78 27.52 27.84 30.19 26.53 26.27 25.92 25.82 26.29 26.93 26.47 25.23 26.98 27.10 27.58 29.31 29.21 29.57 32.69 34.72 31.70 36.47 38.77 38.73 40.20 41.39 41.11 41.03 41.40 41.71 42.13 43.06 43.52 43.79 44.23 43.79 43.27 43.50
27.35 27.21 27.09 26.56 25.19 25.09 25.55 25.52 26.72 28.93 26.89 26.29 25.76 26.10 26.33 26.59 27.15 28.12 28.77 29.22 32.40 34.80 36.21 36.21 37.26 38.74 40.91 41.26 41.07 41.01 41.29 41.12 40.84 41.38 41.82 41.98 42.85 42.42
27.99 27.51 26.88 26.01 24.90 24.77 25.38 25.89 27.63 27.06 26.73 25.97 25.01 25.14 25.24 26.66 26.33 25.02 24.13 26.60 26.47 31.20 32.46 33.41 35.36 36.90 37.69 38.85 40.69 41.32 41.14 41.07 40.50 39.83 39.44 38.59 38.48 39.69
27.31 27.33 27.08 27.72 30.34 28.75 26.14 24.37 24.20 24.90 24.89 24.52 24.28 24.97 24.22 22.98 22.48 23.72 23.14 23.32 24.67 26.66 26.40 27.31 29.66 30.19 31.62 34.34 36.12 38.27 39.74 40.50 40.41 40.12 39.27 38.42 37.56 38.41
25.58 26.48 26.26 28.17 27.13 28.89 28.37 28.17 27.57 24.68 23.91 24.07 23.43 23.20 23.69 23.08 23.39 23.01 22.15 21.96 21.11 25.79 25.74 24.75 27.16 27.23 28.74 30.11 34.91 36.30 37.40 38.20 39.17 39.86 39.37 38.76 38.32 37.77
25.56 25.34 25.30 26.33 26.35 25.21 26.33 27.29 27.52 28.60 27.49 26.43 24.45 24.57 24.94 24.59 24.70 22.85 22.18 22.07 22.25 24.99 24.30 23.17 22.47 24.75 28.15 31.09 34.91 35.76 36.53 37.07 37.72 37.63 38.41 37.97 37.44 36.89
23.95 23.89 23.83 23.20 24.18 24.98 25.39 25.80 26.28 26.39 27.97 27.45 26.87 27.06 26.71 26.98 26.23 26.53 25.13 25.56 26.05 26.48 25.86 24.64 24.22 22.43 25.92 26.99 32.74 34.73 35.68 36.68 37.38 37.47 37.56 37.05 36.48 36.27
23.67 23.94 23.63 23.03 25.65 27.62 26.07 24.84 24.46 25.14 28.79 29.59 29.39 29.24 29.49 30.55 30.84 29.32 26.37 26.13 23.86 24.43 24.42 23.33 23.75 21.30 21.53 25.17 27.18 32.83 34.71 35.84 36.26 36.79 37.11 37.40 36.88 36.20
22.10 22.74 24.30 24.90 26.86 28.00 26.02 24.88 23.30 24.54 25.52 25.21 25.48 26.02 27.30 26.70 28.01 26.19 23.78 22.73 22.20 18.44 24.10 23.50 24.03 22.02 17.95 20.45 24.51 25.74 27.38 33.67 34.97 36.00 36.72 37.18 37.41 34.11
21.18 21.50 23.45 26.07 26.32 27.05 26.89 25.63 25.52 25.99 26.12 26.71 26.84 26.59 26.60 26.57 26.51 27.00 27.01 25.22 23.49 23.07 27.25 26.79 23.43 23.67 24.41 20.59 20.64 21.78 23.85 23.36 24.29 27.34 34.81 36.28 36.98 36.29
21.49 22.20 24.25 25.06 25.55 25.69 25.17 26.30 26.02 25.18 24.00 23.81 23.78 24.73 25.32 26.40 28.28 29.63 30.28 30.24 30.01 28.60 29.71 29.46 25.29 24.45 24.27 20.49 20.06 22.57 22.24 20.13 21.23 21.71 23.05 29.68 34.23 36.19
21.77 22.91 23.47 23.59 23.60 23.68 23.96 24.78 24.06 23.12 22.74 21.33 21.63 23.01 24.65 26.38 27.59 28.16 29.32 29.49 29.57 30.30 32.18 31.30 29.80 28.68 28.06 26.76 25.28 22.87 24.19 25.21 27.24 26.98 28.99 27.71 24.70 25.78
18.70 18.16 18.40 21.55 20.45 20.79 20.99 21.78 21.99 22.28 21.59 20.87 21.21 22.67 24.66 25.19 25.45 27.04 26.48 26.92 27.84 22.84 26.38 30.24 30.74 30.40 29.14 29.58 29.23 26.57 26.42 25.95 24.61 27.50 30.05 29.06 28.27 28.49
11.39 10.34 12.80 15.69 16.33 17.14 17.44 18.56 19.27 19.27 18.19 19.22 19.42 19.95 21.10 22.78 24.18 26.29 25.79 25.44 22.56 25.64 26.54 27.56 30.26 30.59 31.22 29.73 27.35 27.17 25.01 24.21 22.07 21.83 26.98 24.29 24.69 23.92
12.24 6.63 3.00 4.99 10.82 15.08 14.41 15.02 16.16 15.86 15.94 17.02 17.28 18.13 18.14 19.30 22.04 23.38 23.95 21.77 23.58 24.58 22.45 21.45 21.30 28.56 28.94 28.35 30.28 26.42 27.88 27.52 26.94 24.85 27.67 27.74 24.56 26.11
6.61 4.21 0.28 2.82 4.09 14.25 13.76 13.82 13.05 13.23 14.73 13.85 14.33 14.70 16.09 17.63 19.25 21.17 21.42 21.71 21.74 20.63 19.93 17.16 16.74 15.47 21.01 19.58 21.07 27.47 24.73 26.65 23.86 26.06 24.35 25.54 24.09 20.48
8.22 4.37 2.28 4.09 6.79 12.78 13.02 11.99 11.56 9.97 9.52 10.17 11.22 11.29 12.48 15.17 16.51 17.70 18.95 16.89 16.37 19.41 18.85 17.90 16.50 17.92 18.57 15.21 19.32 14.33 25.64 15.74 20.97 20.68 16.58 17.74 19.17 26.48
7.47 7.68 2.07 5.36 5.49 7.26 3.91 3.37 3.00 6.44 6.29 4.93 7.19 8.38 8.16 11.84 14.16 15.41 15.09 13.38 13.38 17.22 15.64 15.17 16.12 20.25 20.82 15.26 11.80 11.60 14.68 25.10 21.54 21.50 21.13 21.17 21.84 22.68
2.54 6.40 6.73 5.43 1.53 1.86 -1.71 -1.89 2.08 2.32 6.57 6.50 5.80 5.55 5.73 8.06 11.57 11.60 13.10 11.92 12.11 11.50 14.09 17.42 20.15 22.34 18.28 20.79 14.05 11.64 17.80 10.14 19.64 25.95 26.69 24.90 16.25 15.54
1.96 4.58 1.42 -1.54 -0.28 -0.84 3.98 -1.53 -0.44 -2.81 3.73 6.28 6.14 6.74 4.87 5.51 10.47 9.28 9.14 10.79 12.11 11.27 12.44 14.67 17.13 18.67 20.04 19.67 15.48 17.24 11.96 10.78 17.24 17.42 13.58 24.56 27.22 27.21

GFSNE_sfc_wetblb_036.txt.gz
Wetbulb
34.51 34.60 33.36 34.05 31.51 32.04 31.54 33.12 30.92 23.92 24.94 29.04 31.24 35.09 36.48 37.97 37.40 35.56 35.10 38.63 39.46 41.45 42.17 42.69 43.64 44.28 44.67 45.15 45.43 46.01 44.93 45.13 45.83 48.05 51.86 52.70 53.66 54.46
34.58 31.93 29.49 29.93 29.13 29.46 29.36 30.06 30.54 28.74 24.45 29.45 30.37 33.18 34.76 36.00 35.97 35.51 33.96 36.85 36.84 37.96 38.43 40.64 42.00 41.25 41.03 42.87 43.36 44.02 44.50 44.54 43.85 44.37 45.78 49.77 51.53 52.05
29.37 29.01 28.67 28.52 27.76 27.64 27.67 27.47 27.06 27.35 24.39 26.72 29.42 31.24 31.59 31.86 32.79 33.29 34.91 34.37 34.01 36.02 38.89 39.14 39.62 41.63 41.80 41.91 42.46 42.30 42.03 42.70 44.13 44.00 43.75 44.63 47.30 50.04
28.36 27.72 27.63 29.70 26.89 26.74 26.09 25.50 25.93 26.59 25.66 24.79 27.87 28.73 28.96 30.26 30.57 29.91 32.22 34.08 32.56 34.23 36.39 37.41 37.25 38.55 41.28 41.19 41.76 42.20 41.54 41.86 41.78 43.72 44.64 44.63 44.82 45.82
27.50 27.33 27.32 27.13 25.90 25.23 25.16 25.13 25.84 27.26 28.27 27.59 27.21 28.02 27.90 28.56 28.39 29.15 29.43 30.00 31.68 33.65 33.51 35.34 35.11 35.83 38.37 40.68 41.45 41.54 41.14 40.73 40.80 41.56 41.91 42.46 43.42 43.98
28.00 27.69 27.17 26.85 25.80 24.96 25.30 24.95 25.69 25.58 25.38 24.78 25.07 25.67 26.76 28.32 27.52 27.09 26.66 28.08 28.06 30.51 31.99 32.38 33.17 34.32 36.92 37.69 39.00 41.18 40.89 40.87 40.51 40.10 39.98 39.39 39.58 40.57
27.44 27.70 27.85 28.77 30.75 29.73 27.79 26.70 25.52 23.74 24.18 23.66 23.48 24.16 24.72 25.12 24.60 26.07 25.66 25.84 26.64 28.09 28.33 29.16 30.02 31.98 32.71 33.12 34.60 36.68 38.54 40.60 40.79 40.40 39.74 38.98 38.43 38.80
26.60 26.72 26.38 27.04 26.63 28.01 27.42 27.47 26.72 24.28 23.83 23.35 23.37 22.46 23.81 24.71 25.71 25.00 24.40 23.63 23.01 27.92 27.11 27.53 29.44 29.22 30.75 31.78 33.21 35.31 36.44 37.16 38.30 39.93 39.82 38.98 38.47 37.92
23.55 23.13 23.49 24.86 25.05 24.47 25.51 26.49 26.85 27.75 27.27 26.97 24.99 25.51 24.78 25.92 26.43 25.35 23.89 23.97 24.24 26.55 26.63 25.38 27.34 28.09 30.37 31.37 33.32 34.87 35.88 36.05 36.55 37.19 38.15 38.36 37.73 37.07
22.92 22.79 22.87 22.64 23.80 24.99 25.48 25.52 25.93 26.30 26.77 26.53 27.12 27.09 27.36 28.26 27.99 27.85 26.72 25.67 26.10 26.71 27.61 24.61 27.28 27.25 29.30 30.13 32.11 33.46 34.70 35.89 36.34 36.77 37.10 37.38 37.24 36.80
23.22 23.20 23.63 23.35 25.66 28.65 26.31 24.91 24.80 25.73 28.50 29.64 30.02 29.96 29.79 29.54 29.18 28.85 26.39 25.28 23.52 25.31 26.85 26.52 26.66 26.01 26.45 28.52 29.98 32.03 33.58 34.79 35.89 36.35 36.61 36.96 36.93 36.37
22.60 23.34 24.37 24.86 26.30 26.67 25.80 23.94 22.86 24.06 24.84 26.09 27.20 27.57 28.47 28.20 28.50 27.34 25.81 23.47 23.97 22.42 25.49 24.38 24.96 24.76 23.58 25.66 27.10 29.24 30.35 32.81 34.46 35.48 36.10 36.70 36.94 37.54
21.70 21.67 23.14 25.07 25.49 25.90 25.74 24.24 24.37 25.19 24.79 24.65 25.13 26.36 27.88 28.17 28.34 27.56 26.67 24.80 23.18 22.96 27.44 26.80 25.61 25.27 25.89 25.17 26.46 27.98 27.82 28.52 30.98 33.38 35.24 36.10 36.56 36.78
20.55 21.64 22.09 24.20 24.33 24.13 23.66 25.07 24.78 23.76 23.65 23.08 22.76 23.48 24.29 25.05 26.74 28.40 30.00 29.33 28.61 27.30 29.27 29.35 27.82 26.70 25.94 24.65 24.67 28.26 28.53 27.83 28.65 29.97 30.87 31.45 34.44 36.14
20.46 21.22 22.18 22.10 21.81 21.71 21.94 22.90 22.03 21.50 20.89 19.99 20.39 21.47 23.14 25.17 26.64 27.57 28.79 29.79 30.30 31.20 31.18 31.22 29.71 28.47 28.50 26.84 26.21 26.19 27.91 29.93 27.55 28.28 29.05 28.59 30.66 30.30
17.45 16.44 15.70 19.54 16.61 17.61 18.38 19.61 19.77 19.05 18.31 18.37 18.98 20.55 22.48 23.69 24.70 27.22 26.72 27.93 27.92 27.89 29.02 31.64 31.42 30.76 28.81 28.67 28.88 27.59 27.59 28.00 28.73 28.48 30.06 29.24 29.70 30.73
9.84 8.91 11.25 11.68 13.37 15.14 15.27 16.47 17.41 16.36 15.52 16.10 17.35 17.92 18.84 20.52 22.58 25.53 25.73 25.42 24.98 25.59 26.22 27.21 30.43 31.04 31.45 30.94 28.27 29.09 28.65 28.66 28.94 28.20 30.09 28.94 29.92 30.59
11.40 4.84 -0.22 -0.59 5.00 12.42 12.21 13.08 14.05 12.82 13.33 14.58 14.87 15.79 15.88 17.32 19.78 22.83 23.73 23.71 23.24 24.52 24.21 23.83 24.12 28.61 29.79 28.74 29.99 28.28 28.29 28.48 28.83 28.95 28.15 27.26 28.35 30.98
7.08 4.35 -2.58 -3.49 1.23 10.98 11.97 11.62 11.49 11.50 12.26 11.88 12.52 12.36 13.66 16.01 18.02 18.92 20.04 20.39 20.19 21.62 22.38 22.96 22.81 22.41 23.33 22.04 24.33 28.17 25.71 26.60 25.64 27.96 28.14 29.84 28.65 28.87
8.98 5.40 1.95 1.59 6.45 9.70 11.22 10.16 9.44 8.03 8.39 8.82 9.55 9.14 9.19 12.75 15.33 15.77 16.25 15.48 17.24 18.99 19.48 20.87 21.04 21.65 22.10 20.74 22.85 24.89 25.17 23.05 22.98 22.53 22.81 24.29 24.63 26.00
8.19 8.77 4.14 6.21 7.25 7.51 0.85 -0.04 -3.31 1.17 4.53 5.26 6.94 7.24 6.26 9.25 12.01 13.46 14.48 12.34 12.37 16.18 15.79 17.06 19.18 20.71 22.40 22.58 19.68 20.83 23.96 24.47 23.58 23.20 22.59 22.25 22.94 24.52
5.87 8.09 8.88 7.52 4.53 4.11 -1.67 -5.84 -0.59 -0.97 1.28 6.09 6.84 6.36 6.19 6.84 9.41 9.94 10.58 11.76 13.16 13.99 14.24 17.01 20.48 22.41 23.44 22.56 20.95 18.66 21.91 20.01 21.79 25.31 25.71 24.61 22.88 21.40
6.09 7.23 6.03 2.67 2.30 1.31 5.74 1.21 0.06 -4.21 0.47 2.09 5.18 7.25 6.89 6.94 8.98 9.15 9.21 11.12 12.18 12.20 12.73 14.66 16.99 19.36 20.96 20.99 19.98 21.07 19.47 19.78 20.12 22.27 23.24 24.44 26.29 26.39

GFSNE_sfc_wetblb_039.txt.gz
Wetbulb
41.94 41.17 40.27 40.47 40.57 38.22 37.11 35.49 32.55 28.34 29.56 34.00 33.97 38.12 38.77 39.27 39.52 40.47 40.72 39.94 39.22 38.72 38.82 39.21 40.78 42.38 42.57 44.35 45.20 45.97 46.38 46.04 47.06 50.77 52.82 54.25 55.75 56.97
40.25 39.15 37.97 37.24 36.76 36.73 36.07 35.37 34.53 31.51 28.27 32.98 33.88 35.81 36.70 36.86 37.91 38.47 39.37 37.91 38.18 37.64 37.99 39.35 39.61 40.17 41.89 42.31 43.43 43.32 43.92 44.55 44.17 44.57 47.86 51.25 53.15 54.84
36.86 35.89 35.55 35.81 34.98 35.45 35.13 34.15 32.67 31.83 28.19 30.78 33.40 34.80 34.83 35.11 36.39 37.86 38.90 39.17 39.39 36.71 37.50 37.28 38.25 38.34 40.76 42.12 42.59 42.77 42.01 42.23 42.67 43.67 43.47 44.81 49.12 51.78
34.42 34.56 34.29 34.30 33.94 34.14 33.19 31.84 31.29 31.70 29.31 27.06 30.68 31.94 32.61 34.13 35.06 35.68 36.44 37.63 38.09 37.19 35.06 35.75 35.70 36.46 37.59 39.86 41.41 42.42 41.69 41.44 41.57 41.94 42.91 42.94 44.08 48.10
34.15 33.76 33.40 33.19 32.18 32.38 31.77 30.92 30.80 30.01 29.61 27.18 27.96 30.65 30.93 31.48 31.85 33.68 34.94 36.24 36.64 35.92 34.94 34.50 34.51 35.08 35.66 37.10 39.99 41.89 41.13 40.68 40.51 40.66 41.00 41.41 43.72 45.38
34.05 33.34 32.84 31.97 31.05 30.59 30.02 29.45 29.31 28.35 27.60 26.31 27.05 27.74 29.04 30.68 30.48 29.16 29.53 33.55 34.39 35.66 34.98 33.79 33.81 34.30 34.66 36.67 37.49 40.31 41.14 40.63 40.50 40.22 39.97 39.13 39.67 41.66
32.41 31.47 30.91 30.09 29.19 29.00 28.47 28.35 27.50 26.38 25.68 25.08 24.65 25.46 25.74 26.96 26.21 28.80 27.65 29.74 32.71 34.82 34.20 34.99 35.59 36.17 36.95 35.53 35.66 35.66 37.93 40.97 40.68 40.39 39.97 39.72 38.93 39.53
28.24 28.54 28.42 27.48 27.74 26.88 26.53 26.92 27.05 25.23 25.44 25.14 25.69 24.99 25.96 26.63 27.66 27.43 26.88 26.75 26.10 34.17 32.61 32.56 35.62 34.74 35.99 37.27 34.59 34.49 35.52 36.65 37.80 40.65 40.23 39.43 39.29 38.61
27.23 26.81 26.64 27.26 27.01 27.23 26.98 27.52 28.12 28.39 27.83 28.21 26.43 26.45 25.99 27.63 28.76 27.69 27.64 27.32 26.80 30.42 31.27 29.56 33.18 32.39 35.17 35.22 33.38 34.00 34.78 35.73 36.18 36.59 38.35 38.80 38.32 37.59
26.84 26.54 26.29 26.18 27.02 26.20 27.72 27.27 27.75 27.83 28.43 29.27 29.33 28.95 29.51 30.24 29.55 29.28 28.99 28.99 30.15 30.93 31.06 26.20 31.99 31.59 34.36 35.53 33.28 33.35 33.73 34.26 35.69 36.16 36.46 37.22 37.56 37.09
26.71 26.96 26.42 25.46 25.77 27.22 26.15 25.90 25.48 26.29 28.57 28.33 28.90 29.55 30.08 30.30 30.43 29.95 27.85 26.56 26.96 28.02 31.11 28.49 30.72 31.15 32.61 33.32 35.25 33.36 33.00 33.67 35.33 36.08 36.31 36.85 37.21 37.08
26.67 26.39 25.07 24.88 25.40 25.67 25.91 24.89 23.25 24.79 25.48 26.45 27.39 28.51 29.59 30.69 29.56 30.23 29.16 25.26 25.95 25.91 30.80 28.16 29.41 29.93 29.03 34.03 34.51 35.63 35.73 33.04 34.16 35.11 36.24 36.56 36.95 39.45
24.79 24.64 25.26 24.04 24.75 24.63 24.48 24.91 24.34 24.93 25.13 25.32 25.95 26.65 27.75 28.55 29.56 31.09 31.37 29.07 27.19 27.16 31.29 29.97 28.76 29.59 29.64 30.94 34.15 35.72 36.10 35.88 35.48 35.49 34.72 35.79 36.62 37.01
23.97 24.31 24.42 23.29 23.08 22.56 22.91 23.04 23.10 23.26 24.08 24.14 24.14 24.39 25.03 26.18 28.01 29.49 30.65 32.15 31.64 30.36 31.71 30.32 29.69 29.53 29.06 28.98 29.03 33.89 35.50 37.01 35.93 35.17 36.14 35.95 35.54 35.84
24.60 22.83 21.71 21.43 21.10 21.84 20.91 21.22 21.65 22.23 21.65 21.31 21.97 22.74 24.22 26.00 27.84 29.70 30.99 31.51 31.68 32.26 31.80 32.63 30.83 31.06 30.90 29.81 29.97 31.54 31.29 33.82 36.21 35.82 35.44 35.59 35.95 37.21
22.63 22.67 19.88 19.80 19.14 19.82 20.93 21.43 21.46 19.60 18.99 19.79 20.66 23.04 24.89 25.59 26.60 28.77 28.85 30.04 29.94 31.50 32.40 33.41 33.11 32.30 30.69 30.81 30.84 30.64 32.58 31.67 33.66 32.83 32.67 32.62 34.29 35.52
20.47 21.24 20.54 19.60 19.21 19.73 20.08 19.49 19.32 17.99 17.85 19.57 20.06 21.01 22.51 23.85 24.75 27.09 27.36 28.35 28.56 28.37 29.12 30.96 32.06 33.27 33.19 32.51 31.09 31.78 32.34 32.14 33.82 33.78 32.32 32.09 33.86 35.23
21.00 19.57 18.16 17.86 17.60 17.69 18.11 17.93 18.42 16.21 16.71 18.25 19.33 19.41 19.96 21.52 22.59 24.78 25.88 25.84 25.49 26.60 27.22 28.54 30.07 32.17 31.26 30.34 30.82 31.23 32.14 30.54 30.71 31.92 32.09 30.00 31.76 35.07
20.74 20.12 18.80 17.79 17.34 17.71 17.61 17.46 16.57 16.70 15.40 16.94 17.60 17.63 18.20 20.09 21.72 22.21 23.19 23.72 24.10 25.18 25.96 27.40 28.16 28.13 26.96 27.04 29.72 28.51 30.74 30.96 30.66 30.62 31.84 31.29 30.58 32.94
20.94 20.22 19.57 19.41 18.19 17.79 17.43 16.87 16.22 16.24 15.78 15.24 17.07 16.55 16.35 17.78 19.60 19.44 20.86 20.52 21.74 22.95 23.90 25.83 26.59 25.95 25.35 25.38 26.42 30.00 26.00 29.89 30.84 30.46 30.20 30.89 31.20 27.09
22.56 20.89 21.01 19.78 19.44 18.66 17.94 16.55 15.71 15.43 13.53 14.02 15.91 15.93 15.97 16.01 17.33 17.99 18.97 17.58 18.34 20.66 20.25 22.29 24.97 23.74 26.56 27.57 26.20 28.05 28.46 25.29 27.23 29.60 28.72 29.42 28.93 28.58
24.01 22.34 21.76 20.94 20.26 19.16 18.65 17.19 17.00 16.87 15.35 15.06 14.79 15.90 16.43 16.10 16.01 16.60 17.34 17.90 18.65 18.94 20.00 22.78 24.92 26.41 27.14 25.97 26.02 25.66 27.94 29.43 25.89 25.52 25.87 25.62 27.17 25.64
24.71 23.79 22.96 21.64 20.70 19.51 18.27 18.15 16.61 16.69 15.13 13.86 14.54 15.70 14.98 15.28 15.84 16.40 17.05 17.41 17.15 17.58 18.76 20.43 22.74 24.93 25.28 24.81 24.29 26.56 25.04 26.11 28.22 27.93 27.23 24.99 25.81 26.48

GFSNE_sfc_wetblb_042.txt.gz
Wetbulb
42.78 41.95 40.38 40.60 40.86 40.25 39.39 37.78 34.29 30.38 32.16 36.27 36.37 40.20 40.35 40.71 40.48 40.65 40.52 39.93 40.53 39.32 38.40 38.29 39.17 40.26 40.98 41.65 43.04 44.67 46.15 46.41 46.92 47.23 52.28 55.85 56.77 57.72
41.29 40.71 40.39 40.07 39.98 39.01 38.70 37.63 36.23 33.93 31.08 35.63 36.26 38.09 38.95 38.46 39.40 39.78 39.63 39.83 38.86 39.40 38.03 37.90 38.44 39.06 39.92 41.04 42.40 41.63 43.66 44.64 44.66 45.17 45.99 47.65 52.52 55.35
40.15 39.10 38.88 39.52 37.64 38.64 38.17 37.47 35.98 35.39 31.39 34.16 36.14 37.33 36.90 36.76 37.24 38.06 38.80 39.63 40.22 40.08 37.25 36.25 36.87 37.32 37.71 38.28 40.96 42.71 42.28 42.51 43.24 43.46 44.30 45.14 46.36 50.74
38.97 38.52 37.85 37.07 37.80 37.83 36.83 35.78 35.02 35.16 32.22 30.38 33.50 33.57 33.62 35.58 35.30 35.13 36.02 37.28 38.40 39.27 36.41 34.62 35.67 35.68 36.65 37.36 37.76 40.75 42.62 42.14 41.86 41.84 42.63 43.24 44.19 45.96
38.27 37.65 37.10 36.98 36.02 35.92 35.52 34.44 34.11 33.15 32.09 30.47 29.90 31.77 32.97 34.13 33.57 34.46 34.12 35.89 37.05 38.13 37.01 35.86 36.11 35.38 35.38 35.54 36.61 38.45 41.46 41.34 40.91 40.90 40.81 40.87 41.40 43.30
37.98 37.43 36.38 35.20 34.20 33.63 32.26 32.35 32.16 30.99 30.15 28.99 28.21 28.53 30.63 32.02 31.58 30.29 30.02 32.95 34.05 36.46 37.38 35.55 35.81 36.75 35.77 35.44 35.79 37.89 39.73 41.15 40.34 40.10 39.81 39.28 39.29 40.91
36.07 34.93 34.33 32.14 29.30 29.44 29.63 30.37 29.49 28.26 27.77 26.89 26.71 28.07 29.28 29.72 29.10 31.15 30.44 31.74 32.76 33.69 35.06 36.61 36.93 38.32 38.78 35.76 36.74 37.07 36.19 40.57 40.63 40.44 40.04 39.69 38.74 39.84
32.97 33.02 33.15 31.28 30.71 28.26 28.32 27.84 28.36 27.25 26.12 25.91 26.94 26.54 28.14 28.73 30.10 29.60 29.71 29.15 27.72 34.69 33.28 34.03 36.30 35.49 37.19 38.73 35.44 34.34 35.03 36.13 36.80 40.76 40.15 39.59 39.42 38.77
32.05 31.68 31.06 31.18 30.37 29.74 28.44 28.28 29.31 29.70 28.80 29.61 27.06 27.62 28.38 29.90 30.14 29.27 29.41 29.30 29.03 32.05 32.41 30.02 34.65 34.09 35.68 37.24 35.02 33.87 34.34 35.03 35.70 36.05 37.84 39.36 38.40 37.93
31.74 31.26 30.97 30.58 29.62 27.71 27.73 27.32 28.54 29.04 29.95 29.51 29.62 28.88 29.80 30.96 30.57 31.13 31.09 30.64 31.52 32.31 33.19 28.17 32.48 32.65 34.76 36.05 35.45 34.24 34.18 34.62 34.92 35.93 36.03 36.95 38.23 37.84
31.26 31.30 29.89 29.01 27.06 26.31 25.78 26.10 26.73 27.13 29.66 28.88 28.74 29.05 29.24 29.62 30.76 31.05 28.69 27.55 27.52 28.78 32.60 30.85 31.63 31.34 33.79 34.85 36.99 34.85 34.34 34.12 34.43 35.43 36.39 36.16 36.85 37.70
30.96 30.52 28.27 26.45 24.70 25.41 25.35 25.16 24.51 25.68 25.67 26.91 27.70 28.98 30.22 31.35 30.25 31.65 30.84 27.52 27.26 27.19 31.97 30.13 30.83 31.56 29.85 35.40 35.23 37.16 37.26 33.66 33.78 34.43 35.58 36.23 36.38 39.91
28.81 28.89 29.38 25.05 24.23 24.37 23.75 25.10 24.33 24.77 25.03 26.29 26.11 27.78 29.15 29.08 31.09 31.89 32.12 31.24 29.06 28.55 32.35 32.16 30.76 30.72 30.99 32.13 34.57 35.71 36.46 36.77 37.27 35.97 34.35 35.57 36.62 37.09
27.29 28.70 27.90 23.81 23.34 22.99 23.51 21.84 22.58 23.87 25.92 25.55 25.08 25.87 26.63 27.51 28.58 30.01 31.22 31.88 32.70 32.08 33.76 33.92 31.10 30.76 30.69 30.63 30.53 34.78 35.97 37.23 37.21 36.38 37.56 35.97 35.25 36.04
28.25 26.22 23.49 22.60 22.87 23.86 22.45 21.75 22.85 24.68 23.67 23.47 23.21 24.38 26.00 28.25 29.69 31.38 32.23 33.70 33.59 33.40 33.44 33.70 32.64 32.01 32.25 30.80 31.61 32.53 33.22 34.83 36.69 35.53 36.32 36.57 36.68 36.62
27.78 27.17 24.94 22.09 23.19 23.08 24.93 24.94 24.79 23.59 22.02 22.81 22.87 24.59 26.65 27.64 28.34 29.69 29.71 31.09 32.39 33.42 34.40 34.61 33.91 33.18 31.55 32.41 32.16 32.27 33.67 32.56 34.88 34.63 34.09 36.12 36.62 38.10
24.57 26.30 26.25 25.16 24.29 24.59 24.93 24.30 24.63 23.35 22.46 23.14 22.80 23.46 24.01 25.06 25.98 28.43 28.24 29.43 29.49 29.83 30.91 33.07 33.84 34.59 34.06 33.67 32.13 32.99 33.25 33.80 35.03 34.92 34.13 32.89 34.38 35.97
25.00 25.76 25.43 25.06 23.54 23.35 23.18 23.23 23.90 22.35 21.55 21.74 23.03 22.68 22.30 23.02 23.78 26.08 26.79 26.79 27.14 27.73 28.59 29.78 31.39 33.43 31.97 31.37 30.37 32.63 34.50 33.80 34.71 35.13 33.86 31.00 32.13 35.49
24.76 26.42 25.77 25.32 24.46 23.62 23.52 23.18 22.24 22.31 20.81 21.61 21.75 22.28 22.12 22.16 23.03 23.94 24.31 24.67 25.05 25.93 27.31 28.77 28.51 28.22 27.98 28.31 30.24 28.58 32.16 32.70 31.71 32.00 33.18 33.12 32.35 34.57
25.26 25.80 25.92 25.66 25.00 24.06 23.71 22.96 22.62 22.15 21.76 20.92 21.14 21.65 21.69 21.39 21.99 22.29 22.58 22.33 22.82 24.69 25.80 27.68 27.64 26.62 25.74 26.45 27.29 30.28 27.90 30.34 30.62 30.66 31.92 32.33 33.08 27.75
26.70 26.82 27.33 26.39 25.48 24.97 24.26 23.22 22.00 21.82 20.15 19.83 20.95 20.48 21.42 21.11 20.77 21.22 21.98 20.81 21.57 23.25 22.80 24.24 26.17 26.23 28.24 29.18 27.28 29.56 30.07 26.73 28.20 29.30 30.04 30.05 30.10 30.35
27.64 26.98 27.53 27.33 26.57 25.54 24.86 23.81 22.68 22.69 22.04 21.09 20.74 21.19 21.65 21.24 20.71 20.27 21.04 20.60 21.60 21.84 23.04 24.95 27.14 27.50 28.06 27.20 28.02 28.05 28.91 29.87 26.88 26.37 26.57 25.94 28.03 28.45
28.88 27.85 27.99 27.42 27.07 26.22 24.61 23.82 22.51 22.51 21.83 20.57 20.48 20.61 20.39 19.74 20.75 21.10 20.82 20.76 20.54 20.61 22.17 22.80 25.09 27.50 27.67 26.91 26.08 28.55 27.67 28.05 29.51 27.99 28.24 25.56 25.68 26.45

GFSNE_sfc_wetblb_045.txt.gz
Wetbulb
43.53 43.43 42.41 41.77 41.65 40.64 39.59 38.41 35.81 31.69 31.91 36.37 37.18 40.66 41.25 41.59 41.61 41.26 41.26 40.74 40.91 40.22 39.78 40.24 39.76 39.45 39.68 40.39 41.11 42.34 43.67 44.20 45.86 46.81 48.81 50.31 51.44 56.11
42.60 42.26 41.20 40.91 40.44 39.96 39.14 38.71 38.42 35.40 31.53 36.11 37.35 39.12 39.84 38.70 40.07 40.47 39.61 39.89 39.33 39.67 39.21 39.74 39.40 38.70 38.22 38.66 39.41 40.34 42.95 43.69 43.82 45.07 45.82 48.08 48.84 50.99
42.18 40.92 39.87 40.20 38.94 38.71 39.50 38.80 37.68 36.88 32.65 35.11 37.06 38.39 37.54 37.03 37.37 38.69 38.85 38.46 38.93 38.42 39.20 39.63 38.52 37.26 37.16 37.04 37.57 38.39 40.04 43.13 43.29 43.10 44.22 45.40 47.20 47.85
39.65 39.44 38.48 38.51 38.26 38.37 37.84 37.12 36.68 36.53 34.66 31.74 34.33 34.74 34.13 35.54 35.83 35.80 36.06 36.56 37.37 37.32 38.39 37.25 36.76 37.04 37.13 36.85 37.10 37.58 38.28 40.46 42.68 42.53 42.45 43.19 44.23 44.95
38.67 38.02 37.82 37.64 36.29 36.34 35.85 35.09 34.51 33.90 34.13 32.60 31.19 32.94 33.74 34.21 33.58 34.57 34.49 34.90 35.96 37.43 37.16 37.44 37.59 37.95 36.64 36.37 36.36 36.71 37.52 38.83 40.91 41.22 41.28 41.12 41.42 42.65
38.68 38.12 36.88 35.78 34.75 33.22 31.74 31.63 31.85 31.27 31.22 30.06 29.48 29.71 30.80 32.45 32.92 31.45 31.25 33.65 33.31 35.26 36.49 36.40 37.37 37.46 36.55 37.26 37.16 36.79 37.07 39.35 40.31 40.50 39.94 39.24 39.25 41.26
37.10 36.55 35.95 33.61 31.25 30.60 29.89 29.78 29.63 28.44 27.98 27.28 26.67 27.73 28.21 29.23 29.19 31.14 30.30 31.71 32.49 34.40 34.14 35.33 35.99 37.13 38.00 37.97 37.22 37.21 37.05 37.23 40.47 40.50 40.00 39.71 39.00 39.92
34.61 34.80 34.71 34.28 33.34 31.25 30.90 29.22 29.03 26.95 26.10 27.11 27.38 26.84 27.25 29.07 30.67 30.21 29.68 28.87 26.96 34.74 32.89 32.79 35.88 35.24 36.74 38.61 35.71 35.84 35.10 35.52 36.66 37.72 40.59 39.76 39.52 38.86
34.12 33.51 32.89 33.30 32.23 31.95 30.41 29.57 29.53 30.19 29.00 29.41 27.46 27.56 28.13 28.99 29.19 28.57 28.46 28.59 28.89 32.27 32.29 30.19 34.22 33.58 35.85 36.60 36.52 35.15 34.37 34.22 35.01 36.12 36.68 38.96 38.91 37.99
34.02 33.20 32.48 31.97 30.71 27.88 27.46 26.96 27.55 29.11 29.95 29.69 29.18 29.06 29.13 29.64 29.34 29.38 29.50 30.17 31.30 32.24 33.15 28.10 33.25 32.56 35.37 36.48 36.57 36.06 35.16 34.86 35.04 35.45 36.31 36.30 37.66 37.83
33.10 33.03 32.04 30.75 27.37 26.51 25.55 25.11 25.72 26.78 30.17 29.64 29.28 29.47 30.05 30.36 30.47 30.53 28.60 28.16 27.47 28.72 32.56 30.19 31.85 32.03 33.77 35.18 37.16 36.78 35.87 35.27 34.88 34.84 35.50 36.18 36.02 37.29
32.36 32.20 28.54 27.33 25.28 24.90 24.61 24.51 23.32 25.65 25.78 26.15 27.57 29.31 30.08 30.97 30.73 30.77 30.63 27.60 28.44 27.25 31.41 29.45 30.28 30.86 29.23 35.29 36.20 37.73 37.07 34.78 34.74 34.40 34.50 35.51 36.08 36.90
29.60 30.12 31.14 26.08 24.92 24.28 24.14 24.42 23.93 24.10 24.30 26.02 26.99 27.62 28.85 29.57 30.26 31.44 31.89 30.65 28.40 27.99 32.42 31.35 30.14 30.47 30.60 30.42 34.18 36.48 37.32 38.06 36.59 35.66 34.13 35.39 36.11 35.89
28.49 30.03 30.16 26.13 24.53 23.95 24.35 24.05 23.46 23.79 26.41 25.57 25.78 25.55 26.33 27.12 29.05 30.59 31.69 32.47 33.26 31.56 33.35 33.58 31.07 30.16 29.80 29.97 29.91 34.65 36.47 37.91 38.20 37.42 37.83 36.08 35.12 35.90
29.61 29.00 26.19 26.03 24.97 25.54 25.23 24.08 23.68 26.08 24.49 23.51 23.81 24.25 25.85 27.65 29.47 30.79 32.02 32.93 34.02 34.47 33.93 34.35 33.01 32.20 31.67 29.72 30.06 32.62 32.55 35.35 37.40 36.96 37.59 37.32 36.68 36.26
29.30 29.84 27.77 26.24 25.59 24.82 25.73 27.58 27.01 26.35 23.87 23.74 23.95 24.60 26.66 27.17 27.15 29.17 28.95 30.17 30.67 33.29 33.81 34.28 33.91 33.27 30.77 31.62 31.85 32.06 33.81 32.14 35.59 35.46 35.76 37.09 37.53 38.20
26.96 27.94 28.10 28.18 27.20 27.23 27.18 26.85 26.79 26.22 24.53 23.95 24.18 24.16 24.16 24.62 25.59 27.77 27.90 28.49 27.80 28.65 29.64 32.84 34.21 33.33 33.02 32.29 30.93 32.35 33.11 33.37 34.93 34.60 33.12 32.73 34.91 37.13
26.27 26.38 27.04 27.36 26.19 25.92 25.90 25.62 26.16 25.09 24.36 23.38 23.58 24.13 22.99 22.61 23.44 25.59 26.64 26.34 26.21 27.23 27.85 29.74 30.42 30.53 31.90 31.12 29.96 31.37 33.50 33.46 34.33 34.53 33.77 32.09 32.62 35.99
24.68 26.00 27.59 27.99 26.71 26.07 26.31 25.78 24.75 25.03 23.62 24.10 23.26 23.70 23.34 22.73 23.41 23.66 24.45 24.85 24.17 25.29 27.12 29.38 29.29 28.35 25.49 27.40 29.73 29.50 31.43 32.14 32.75 32.55 33.43 33.16 32.42 32.27
26.57 26.42 27.02 27.90 27.11 26.76 26.63 25.83 25.22 24.92 24.48 23.22 22.84 23.27 23.20 22.64 22.37 21.99 22.69 22.56 22.33 23.40 24.86 27.05 28.10 26.42 23.99 24.07 25.81 29.75 28.61 31.08 31.08 30.98 31.61 33.32 31.94 29.76
28.36 28.17 29.36 28.75 27.83 27.54 27.52 26.31 25.11 24.03 23.65 22.28 22.94 22.70 22.94 22.62 22.25 21.84 22.12 21.69 22.22 23.06 21.97 23.84 26.05 27.51 28.04 29.03 26.49 28.17 28.70 28.12 28.90 29.47 30.17 30.29 30.51 30.84
29.84 28.44 29.22 29.11 29.25 28.12 27.62 26.35 25.07 24.26 24.22 23.95 23.14 22.80 23.32 22.59 22.14 21.52 21.76 20.79 21.22 21.36 22.42 24.78 27.05 28.08 28.04 26.99 26.84 28.59 28.86 28.58 27.43 27.04 27.13 26.68 27.56 26.61
31.35 30.20 30.35 30.39 29.82 28.66 27.00 26.39 25.17 24.78 24.31 23.59 22.44 22.54 22.19 21.43 22.53 22.54 22.33 21.96 21.36 20.54 20.89 22.00 24.74 26.91 27.26 26.58 25.94 27.29 27.39 27.70 28.31 27.58 27.84 26.36 26.28 26.78

GFSNE_sfc_wetblb_048.txt.gz
Wetbulb
39.50 39.29 38.62 38.58 39.29 39.36 36.74 34.95 31.30 27.55 28.76 32.16 31.27 34.78 35.74 35.97 37.41 36.63 35.40 39.43 40.04 39.99 40.23 40.69 40.98 40.58 40.86 40.77 41.00 40.75 41.04 41.75 43.33 44.64 45.59 47.34 48.67 51.53
39.44 38.98 37.96 37.80 37.74 36.50 35.17 34.79 33.75 31.58 28.38 31.26 32.22 32.86 34.31 36.83 36.95 35.10 35.18 39.00 38.43 39.06 38.94 39.05 39.66 40.37 40.61 40.32 39.72 39.16 39.23 40.10 41.14 43.71 44.47 45.75 47.26 48.71
38.46 38.01 38.12 37.55 35.54 35.23 34.78 34.53 33.68 31.76 28.77 30.60 32.23 32.65 31.47 31.21 32.78 33.72 34.64 33.83 34.22 37.64 38.46 38.42 38.60 39.22 39.65 38.69 38.53 38.12 38.14 38.31 39.37 41.34 43.73 44.41 45.58 46.70
37.85 36.48 35.69 37.36 34.18 34.01 32.99 30.86 30.47 30.08 27.99 25.92 28.96 29.88 29.10 30.30 30.90 30.86 33.36 34.72 33.38 36.54 37.09 37.91 37.83 38.25 38.06 37.92 38.16 38.02 37.71 37.55 38.27 38.88 41.78 43.30 43.66 44.37
35.93 35.34 35.25 34.53 31.71 30.26 28.95 28.17 28.24 30.02 28.47 26.81 26.13 28.27 27.88 28.93 28.64 29.54 30.72 30.68 34.14 36.53 36.58 37.21 37.50 37.44 37.96 38.06 38.34 37.84 37.50 37.33 37.61 38.21 40.01 41.32 41.58 42.04
36.11 36.05 34.19 31.83 28.92 27.25 27.54 25.51 27.12 25.65 25.76 25.18 25.09 25.50 26.29 27.86 28.23 27.48 27.57 28.62 29.34 33.61 35.17 35.16 36.22 37.03 37.82 37.86 38.24 37.73 37.92 37.63 37.48 38.64 38.94 39.02 39.44 41.02
34.49 34.06 32.49 32.71 33.65 29.21 27.30 25.05 24.95 24.34 23.73 23.26 23.26 24.58 25.16 25.63 25.23 26.89 26.23 27.55 28.99 29.41 29.67 30.34 32.05 32.05 33.86 36.83 37.88 37.96 38.20 37.57 37.65 38.36 40.17 39.40 39.44 40.22
30.56 31.01 31.05 33.08 31.97 31.17 31.86 29.80 28.05 23.61 23.34 23.78 24.15 23.94 24.10 25.20 27.86 26.30 24.76 24.38 23.22 29.03 29.18 27.91 31.39 30.89 33.12 34.93 36.19 36.58 37.25 36.55 36.74 37.01 37.01 39.11 39.28 39.35
29.77 29.33 29.98 32.21 29.58 27.07 28.47 28.24 27.46 28.80 27.52 26.29 25.18 26.20 25.61 25.35 24.83 23.58 23.30 23.52 23.55 27.06 27.96 25.50 28.12 28.52 32.21 34.78 35.67 34.91 36.40 35.77 35.67 35.80 36.03 36.06 37.57 37.90
30.23 29.49 28.16 27.42 24.76 25.40 24.40 23.22 24.18 25.29 26.25 27.16 25.42 25.22 24.95 25.88 25.89 26.04 25.54 25.37 26.40 27.59 28.92 23.92 25.61 26.53 29.11 30.53 35.90 36.69 36.85 35.55 35.44 35.26 35.46 35.88 35.72 37.36
29.98 29.75 29.43 26.74 26.26 27.05 23.51 22.64 22.77 23.52 28.23 28.31 27.59 28.37 29.93 30.63 30.36 28.66 25.21 24.59 22.78 25.64 29.18 27.13 25.74 27.75 29.57 28.52 30.06 36.13 36.80 36.07 35.51 35.20 35.17 35.29 35.54 35.50
28.26 28.32 27.56 25.37 25.50 25.37 19.70 20.27 19.51 21.86 21.77 21.92 23.55 26.02 27.85 28.19 30.32 29.00 27.56 25.40 25.72 21.77 28.61 27.23 27.21 29.32 25.27 28.35 28.34 29.90 29.41 35.19 35.07 35.13 35.03 35.03 35.51 32.21
26.47 26.18 26.11 26.36 26.09 25.70 24.70 21.63 20.92 22.65 22.58 22.46 23.68 23.98 25.96 27.00 26.99 27.70 27.85 25.18 24.67 24.16 28.57 29.19 27.93 27.02 26.02 27.06 31.10 32.54 27.73 27.77 27.89 30.18 35.01 34.83 35.41 34.14
25.83 26.50 27.16 27.71 27.09 26.06 24.29 25.00 25.27 23.65 21.11 19.84 21.38 21.87 22.39 24.66 25.96 26.81 29.09 30.30 31.23 31.18 32.12 30.44 27.75 27.48 26.30 26.11 27.46 31.74 31.95 27.55 27.43 27.41 27.98 31.87 34.93 35.18
26.20 28.26 28.56 27.81 27.80 25.89 27.45 25.76 22.73 21.26 19.04 16.11 19.41 19.54 20.80 24.60 26.39 26.92 27.37 28.11 29.25 30.93 33.90 30.78 27.07 27.61 25.18 27.07 27.17 29.34 30.55 29.88 30.37 26.32 26.33 27.19 27.49 26.12
26.74 27.81 25.96 24.99 22.11 22.47 21.86 24.24 23.54 21.77 19.26 17.57 17.21 21.31 21.78 21.81 23.02 25.71 24.47 25.37 25.86 28.35 32.01 32.06 31.85 30.54 28.27 26.68 27.66 27.14 29.24 28.31 29.49 26.02 25.84 25.82 27.01 28.68
23.36 23.10 22.67 24.06 23.40 22.83 22.87 22.85 22.42 22.13 20.03 18.00 17.02 19.16 21.42 20.99 21.35 23.39 24.89 24.23 23.16 24.74 26.29 29.05 32.23 32.23 31.18 28.49 27.34 28.27 28.07 30.75 27.07 26.39 26.50 24.99 25.84 26.97
22.25 20.44 20.33 21.43 24.07 21.57 19.53 20.05 20.51 19.73 20.12 19.18 17.69 18.73 19.89 18.77 20.24 21.90 24.39 23.61 21.31 22.20 23.39 25.80 27.19 27.73 29.54 28.57 29.84 26.66 29.94 31.10 31.67 29.42 26.95 24.69 26.15 26.95
22.04 20.33 21.27 23.87 24.40 24.45 20.95 20.54 18.73 18.98 19.60 19.20 17.35 16.41 18.34 20.82 19.28 20.15 20.74 21.77 20.65 20.27 22.08 23.99 26.58 23.75 22.16 21.15 27.23 29.65 27.96 28.56 26.70 25.50 26.90 26.55 28.21 29.44
25.50 23.01 23.16 25.26 23.91 23.08 22.02 20.90 19.72 17.69 17.36 18.00 14.04 14.62 13.16 16.46 17.90 18.28 18.76 16.09 18.58 20.59 21.02 21.83 23.65 22.56 20.49 19.21 21.57 24.94 29.16 24.68 25.52 25.30 27.66 26.01 26.40 29.09
25.86 25.00 24.75 25.14 26.62 24.83 24.63 21.38 16.50 15.58 15.31 11.67 13.10 14.27 11.48 15.75 14.04 16.76 15.77 15.16 17.35 19.85 18.59 20.09 21.24 23.89 24.76 23.90 21.33 24.37 24.45 28.51 27.57 25.78 25.09 23.27 26.34 25.20
26.02 26.75 27.11 26.91 27.59 26.97 24.81 21.54 17.99 16.29 14.71 15.73 16.15 11.37 11.68 12.84 12.76 12.77 12.23 11.26 15.85 16.91 18.69 19.64 23.05 25.38 25.49 26.94 24.14 25.35 22.10 19.48 25.31 27.61 27.45 25.69 22.24 20.85
27.67 27.60 27.00 26.88 26.52 26.32 24.44 21.59 23.30 19.58 18.80 15.66 14.29 13.28 11.09 10.32 13.82 14.23 14.86 15.12 16.75 15.07 16.35 16.97 20.14 23.26 24.29 26.29 22.67 24.43 23.32 18.18 22.54 20.28 17.83 26.78 27.21 27.37

GFSNE_sfc_wetblb_051.txt.gz
Wetbulb
36.85 36.70 36.48 36.88 37.19 37.09 35.25 34.86 33.34 27.26 27.66 28.83 29.15 32.15 32.82 33.36 34.80 33.37 32.70 37.18 39.59 38.95 39.43 39.25 39.04 39.07 39.47 39.78 40.17 40.90 41.74 41.82 41.32 41.67 42.36 44.04 45.33 46.81
37.09 36.08 35.66 36.56 36.28 35.61 35.04 35.29 32.81 30.06 26.96 28.94 28.56 29.59 31.41 33.91 34.66 32.45 32.59 37.10 36.77 37.42 37.66 38.70 39.24 38.28 38.41 38.52 38.82 39.51 40.87 40.87 40.47 40.37 40.78 41.84 44.55 45.25
35.76 35.63 35.44 35.77 34.46 33.16 32.65 31.02 28.76 26.86 23.38 25.68 27.46 28.57 27.81 28.32 29.90 30.81 32.65 31.57 31.85 36.39 37.04 37.46 37.96 37.99 38.91 38.60 38.87 39.72 39.37 39.14 39.23 39.39 39.78 40.37 42.80 44.32
35.83 34.55 33.85 35.75 31.79 29.63 27.77 25.89 25.14 25.29 23.77 22.79 24.22 25.67 25.43 26.96 27.53 27.33 30.93 32.87 31.50 34.82 36.95 36.80 37.46 37.47 37.57 37.80 37.98 38.36 38.59 38.65 38.53 37.67 37.81 38.49 40.08 43.21
35.07 33.98 33.58 32.37 27.49 25.95 25.58 24.37 24.45 27.05 23.91 22.89 23.07 24.46 24.39 25.25 26.19 27.02 27.78 28.93 31.92 34.45 35.08 35.72 36.28 36.73 37.22 37.22 37.73 38.01 38.18 38.20 37.82 37.69 37.46 37.27 38.91 41.89
34.76 34.40 32.23 28.90 26.68 25.36 25.58 23.51 24.92 23.19 23.06 22.25 22.51 22.87 24.04 25.88 25.34 24.98 25.23 27.03 27.46 31.22 32.44 33.43 34.62 35.30 35.96 36.40 37.00 37.71 38.27 38.27 37.79 37.56 37.30 37.64 38.13 39.98
30.90 31.75 30.13 32.85 35.01 28.58 26.23 23.31 23.35 22.59 22.19 21.82 21.68 22.50 23.13 23.42 23.24 27.02 24.66 24.36 25.20 26.62 27.24 28.11 29.27 30.28 31.43 34.16 35.33 36.76 37.28 38.14 37.92 37.74 37.43 38.51 38.93 39.54
27.89 28.87 28.52 31.40 31.11 31.23 30.61 29.35 27.73 22.60 21.17 20.60 21.80 22.10 22.83 26.27 24.94 22.80 22.00 21.17 19.92 25.37 25.16 25.10 27.72 27.56 29.83 31.50 35.12 36.08 35.56 36.64 37.29 36.91 36.84 36.27 37.31 38.93
27.22 27.24 28.27 30.15 27.74 25.59 26.37 26.76 25.72 26.87 25.95 23.46 21.93 22.77 23.86 23.59 22.80 22.07 22.15 22.14 22.56 25.12 25.02 23.79 26.97 25.61 28.60 32.17 34.94 36.14 36.35 36.29 36.38 36.05 35.79 35.44 35.30 36.61
27.89 27.29 26.41 24.96 25.03 24.83 23.60 22.39 22.62 23.51 24.45 24.83 23.11 22.00 22.67 23.77 24.37 25.54 24.43 25.20 25.82 26.13 27.47 24.44 24.84 25.69 27.44 27.89 33.38 35.00 36.49 36.79 36.64 35.84 35.55 35.15 34.87 35.32
28.22 28.07 27.84 24.21 26.85 26.75 23.38 21.78 21.48 22.32 26.10 27.36 26.77 27.54 28.37 29.02 29.45 27.52 25.50 24.73 22.30 23.74 25.79 26.74 23.28 25.69 25.14 27.70 28.23 33.74 35.70 36.23 36.48 35.91 35.50 35.16 34.83 34.84
26.84 26.91 28.06 24.83 25.78 25.80 19.39 18.57 17.79 20.26 21.62 21.49 22.40 24.00 25.71 25.88 28.83 27.24 25.63 23.60 23.59 22.11 24.30 24.27 24.62 25.94 23.41 25.43 27.77 26.98 27.81 32.23 35.32 36.12 35.66 35.23 34.98 31.99
26.23 24.94 24.72 26.68 26.50 27.18 26.35 21.05 18.64 22.17 22.98 21.43 21.68 22.18 23.03 23.37 24.38 25.06 26.04 26.45 25.44 24.68 28.27 28.54 24.25 24.77 26.56 25.48 28.41 30.57 32.24 31.43 26.14 29.82 35.46 35.19 35.04 33.63
25.50 25.40 25.42 28.50 28.53 28.06 26.20 25.86 26.10 24.39 16.87 17.91 18.22 19.52 20.12 20.92 22.75 24.49 26.12 26.62 26.92 27.09 30.10 31.06 28.49 25.63 27.04 25.22 24.76 29.06 31.23 32.83 25.03 27.08 25.40 30.81 34.42 34.74
25.29 25.89 28.24 29.31 28.73 27.50 28.06 27.84 24.10 20.08 16.96 13.89 16.02 17.51 19.26 22.12 23.22 23.83 25.52 25.68 26.23 28.68 31.48 31.75 30.18 29.13 26.19 27.02 26.77 25.78 29.09 28.75 28.97 26.85 23.22 24.53 25.10 24.35
26.06 25.93 24.14 25.38 22.93 23.20 22.78 24.55 22.60 20.20 18.44 17.27 14.67 16.62 19.45 20.60 19.28 21.34 21.34 23.57 22.20 24.02 28.00 30.26 30.27 29.80 28.72 27.52 26.19 26.50 26.66 29.27 31.65 28.23 24.24 22.52 24.42 28.94
23.95 24.18 24.62 21.21 21.81 23.79 22.73 22.47 21.63 20.76 18.53 15.28 14.31 15.97 18.63 19.74 19.02 19.95 21.74 23.18 20.01 20.43 22.02 25.37 27.65 29.54 30.21 29.60 26.19 25.24 25.47 26.48 28.32 28.06 25.92 23.50 23.67 24.52
24.66 19.79 14.72 13.91 17.11 21.92 21.85 20.00 17.59 17.36 18.34 17.43 13.84 16.03 15.86 15.73 18.00 19.93 20.55 18.96 19.31 19.31 19.75 21.96 25.22 24.53 26.91 27.99 29.27 25.92 29.06 29.37 31.36 28.06 24.90 22.45 26.91 30.46
20.07 18.80 13.18 15.25 18.21 22.24 23.89 20.80 18.41 18.24 18.37 16.68 14.76 12.44 13.54 16.86 15.65 18.07 17.22 18.18 18.68 19.79 20.06 21.68 23.65 21.43 19.46 17.02 25.65 29.49 24.52 27.78 26.76 27.49 29.53 27.85 28.46 29.45
25.26 21.79 19.70 19.61 20.19 22.78 24.60 21.61 19.38 15.66 14.69 14.21 10.43 7.85 5.51 10.33 11.26 15.50 16.47 9.57 14.29 19.23 19.11 19.98 19.72 20.32 20.39 17.56 21.04 21.72 29.17 23.59 24.51 25.09 25.64 25.72 28.22 29.67
24.74 25.17 24.24 22.12 22.14 23.52 23.38 21.80 16.66 13.47 10.38 6.93 8.06 7.71 4.29 10.17 9.58 11.73 11.67 11.27 10.85 18.27 17.07 17.33 19.10 22.20 24.97 21.88 17.56 18.98 20.70 28.18 25.82 23.44 24.70 22.18 25.67 25.95
25.60 24.32 25.24 24.99 24.59 24.92 25.20 22.17 16.70 12.40 11.00 8.93 7.75 8.43 4.63 5.22 7.24 7.31 6.62 6.82 12.70 12.80 15.80 17.46 20.43 22.31 24.18 26.08 21.84 18.78 21.10 18.15 24.42 27.31 27.68 25.55 21.89 20.83
26.99 26.65 26.12 26.07 25.71 25.26 24.09 22.40 21.55 19.40 17.42 16.04 14.31 11.74 2.33 7.07 8.26 8.73 7.01 11.87 13.12 12.32 13.26 14.03 17.13 20.29 20.83 22.84 22.18 23.31 19.50 16.08 20.20 18.63 17.16 26.69 27.20 27.26

GFSNE_sfc_wetblb_057.txt.gz
Wetbulb
33.71 34.18 34.22 35.11 35.86 35.92 34.61 34.76 34.19 29.89 25.75 26.78 26.67 27.86 28.28 29.05 30.52 30.53 29.06 33.27 35.51 35.47 35.68 36.10 36.76 37.42 37.68 38.24 38.64 39.23 39.89 40.33 40.97 41.52 41.93 42.52 43.51 44.53
35.00 34.04 34.16 34.15 33.88 33.74 35.19 34.92 35.64 33.31 25.36 25.65 25.15 25.53 26.52 28.99 29.65 28.57 27.98 33.37 33.00 33.93 34.49 35.25 35.80 36.74 37.00 37.03 37.38 37.88 38.51 39.13 39.64 40.08 40.30 41.42 42.86 43.53
34.60 34.60 34.53 33.86 32.49 31.90 30.94 28.67 27.22 26.76 23.79 23.55 24.74 24.58 23.78 23.89 25.53 25.89 27.87 27.10 28.01 32.76 33.85 34.66 34.74 34.85 34.98 35.64 36.23 36.81 37.02 37.35 38.13 38.51 39.53 40.54 41.60 42.58
34.16 33.40 33.23 34.90 31.02 29.16 27.40 26.41 24.98 23.91 22.81 20.97 21.84 22.47 22.74 23.36 24.06 23.89 27.12 29.39 27.44 31.32 32.55 32.49 32.73 33.08 33.48 34.07 34.94 35.98 36.48 36.78 37.14 37.20 37.78 38.72 39.85 40.48
33.83 32.72 32.56 32.19 30.03 26.87 25.23 24.23 23.65 25.55 23.04 21.80 21.65 22.37 22.30 22.86 23.82 24.82 25.36 25.71 28.15 30.83 30.49 30.92 31.53 31.97 32.63 33.30 34.63 34.49 34.55 36.11 36.84 37.37 37.62 37.69 37.97 38.92
32.29 30.55 29.78 29.17 27.46 25.53 24.97 23.78 23.63 22.44 22.20 21.50 21.35 21.29 21.41 23.35 23.32 22.56 23.55 24.50 23.95 26.72 28.34 28.97 30.49 31.47 32.26 32.49 32.88 33.45 34.09 34.71 36.14 36.58 37.12 36.99 37.22 38.12
29.57 29.23 28.80 29.68 32.13 29.12 25.40 23.15 22.51 21.49 21.07 20.33 19.61 19.69 20.51 20.43 20.62 23.14 21.40 21.86 22.43 24.18 24.04 24.81 26.12 26.67 27.26 29.92 31.17 32.78 33.41 34.09 34.88 36.38 36.57 35.87 36.83 37.49
27.34 27.45 27.83 30.73 30.47 32.92 32.02 29.79 25.59 21.89 20.11 18.70 18.86 18.71 19.25 19.91 20.41 20.00 19.96 19.71 19.73 23.87 23.24 23.88 25.99 25.35 26.88 27.52 30.86 32.61 33.37 34.14 34.79 35.85 36.12 35.23 36.30 36.57
26.26 26.39 27.48 28.89 29.68 27.79 30.53 29.53 27.94 27.46 24.63 20.61 17.90 18.94 17.14 19.61 20.30 20.70 21.40 21.63 22.09 24.51 23.48 23.18 25.47 23.85 26.60 28.57 31.65 32.70 33.66 34.37 34.48 35.55 36.10 34.69 34.72 35.11
26.33 26.66 28.01 26.18 26.72 26.13 24.23 23.43 23.40 23.60 23.65 23.05 21.00 21.03 21.22 22.17 22.92 24.75 24.70 24.22 23.61 24.15 24.12 21.11 23.42 23.40 25.69 26.81 31.17 32.70 34.68 34.80 35.05 35.14 35.52 36.02 35.82 35.21
27.17 27.36 28.45 27.85 28.81 30.16 24.76 23.39 23.16 23.03 25.48 26.31 26.77 27.05 27.13 27.09 26.28 20.54 19.74 20.26 18.92 21.20 23.47 22.36 21.73 23.03 24.98 25.92 27.51 32.09 33.60 34.63 34.56 34.02 34.43 35.34 36.18 35.53
27.47 28.52 31.26 28.83 28.55 28.97 22.62 21.06 19.62 21.77 21.00 21.59 22.29 23.26 24.01 23.65 25.54 23.29 20.96 18.56 19.25 18.77 22.82 22.14 22.96 25.00 21.57 22.55 23.53 26.82 26.64 32.12 33.59 34.15 33.87 35.24 36.56 31.59
28.66 27.55 27.36 29.33 29.72 29.17 28.27 22.35 20.72 22.71 22.01 21.93 22.21 21.08 21.28 21.50 21.78 22.35 22.60 20.41 19.25 20.04 23.91 24.50 23.47 25.39 25.29 24.18 23.31 25.46 25.48 29.80 31.67 32.61 32.17 34.78 36.29 34.00
28.53 28.15 27.83 29.61 30.00 29.54 28.09 27.81 28.25 24.63 21.75 20.11 18.79 18.54 18.10 19.00 20.21 21.80 23.29 23.01 23.10 23.26 24.96 23.49 24.63 24.68 25.43 24.28 23.21 24.21 26.04 30.45 31.67 30.72 28.00 29.74 33.46 34.87
31.18 30.33 29.76 29.89 30.44 28.93 29.41 29.21 26.13 22.82 20.39 16.21 17.33 17.54 17.31 19.67 21.40 22.48 23.28 23.14 23.10 24.21 26.32 23.67 24.49 24.26 24.68 24.95 25.55 26.91 26.51 26.72 28.20 31.11 28.04 27.47 30.14 23.66
31.03 31.69 29.33 28.23 27.50 26.59 24.40 26.58 23.54 21.56 20.90 19.45 17.22 15.84 16.72 17.66 17.66 19.73 18.24 19.55 18.60 18.18 23.53 24.22 23.83 24.00 23.82 25.87 27.28 26.58 27.48 26.04 24.48 26.37 28.83 25.24 24.95 27.91
29.03 29.52 26.53 25.64 24.81 24.61 23.73 23.51 22.98 21.08 19.74 16.64 14.83 15.10 15.86 17.31 16.26 16.97 18.19 18.70 14.55 16.17 18.29 22.12 23.75 24.11 24.46 27.41 25.00 24.51 25.03 26.36 29.85 29.23 25.70 24.82 27.02 30.02
28.23 26.73 23.86 23.89 24.21 23.81 22.23 22.52 20.58 19.02 20.99 19.04 15.20 16.01 15.84 14.53 14.13 16.28 16.91 12.97 12.77 15.75 17.11 19.36 20.45 18.30 21.17 22.92 29.13 25.32 23.82 24.45 27.97 28.74 26.41 22.43 23.27 26.09
28.29 25.74 23.81 24.68 23.56 22.99 22.32 21.84 20.57 20.53 20.80 20.25 17.26 15.70 15.59 14.99 12.90 13.96 13.09 13.47 12.96 14.53 16.37 17.93 18.81 17.13 15.83 5.50 22.70 28.88 24.44 24.22 24.13 27.25 27.93 26.91 25.07 27.69
29.55 27.28 23.83 24.23 23.23 22.46 21.73 21.36 21.53 20.72 18.78 17.61 14.63 13.93 12.77 11.79 9.14 12.70 12.87 6.14 9.30 14.41 16.01 16.54 16.08 17.63 16.77 13.94 17.40 20.87 28.05 22.80 22.05 22.18 22.79 23.11 24.70 29.26
28.39 28.03 26.98 24.68 24.36 23.65 22.91 21.81 21.22 20.00 14.95 10.82 15.16 14.75 9.95 11.41 8.40 9.82 8.77 8.42 7.22 15.36 14.27 13.72 15.45 19.16 21.87 23.38 15.05 17.86 21.90 27.36 25.57 24.08 23.71 22.25 23.63 23.28
29.12 27.24 27.57 27.07 25.41 24.13 23.02 21.52 19.92 18.10 15.88 14.89 14.14 15.30 11.04 9.82 9.40 7.07 1.12 3.89 10.38 9.49 12.41 14.38 16.68 18.56 20.50 20.95 20.08 20.76 21.03 19.78 23.57 26.37 27.21 26.84 22.84 20.32
28.94 27.06 27.07 27.15 26.50 25.40 24.41 22.47 21.47 20.04 19.27 17.89 17.19 15.51 11.35 7.74 10.29 8.57 4.27 7.84 11.46 10.44 10.45 11.05 13.61 15.52 16.37 19.24 17.67 19.39 20.49 20.78 21.95 20.66 19.35 25.62 27.40 28.30

GFSNE_sfc_wetblb_060.txt.gz
Wetbulb
34.22 33.83 33.87 34.68 35.05 35.25 35.00 34.44 35.14 29.87 29.74 29.55 29.24 30.10 29.76 29.92 30.35 30.93 29.21 31.62 33.33 34.20 34.64 34.95 35.86 36.65 37.29 37.75 38.32 38.90 39.67 40.34 40.86 41.14 41.57 42.29 43.05 43.68
34.31 33.73 33.45 33.98 33.92 33.78 34.06 34.83 35.44 34.70 29.07 28.92 27.69 27.74 28.19 29.37 29.68 29.53 28.18 32.13 31.70 32.58 33.44 34.07 34.75 35.56 36.34 36.68 36.93 37.51 38.07 38.63 39.33 39.62 40.58 41.29 41.71 42.38
34.63 33.84 34.21 34.10 32.66 32.50 32.28 31.07 29.89 29.59 27.18 26.25 26.47 26.73 25.90 26.06 26.86 26.83 27.91 27.80 28.72 31.78 32.58 32.91 33.55 33.83 33.95 34.25 34.75 35.33 36.27 36.99 37.61 38.27 38.82 39.53 40.40 41.00
34.19 34.06 33.45 34.44 31.22 30.20 28.80 27.44 26.65 25.82 24.55 22.54 23.70 24.44 24.49 25.51 25.26 25.03 26.87 28.71 28.87 30.60 31.41 31.48 31.90 32.30 32.58 32.88 33.23 33.80 34.45 35.43 36.53 37.00 37.34 38.01 38.48 39.19
34.05 32.85 32.68 31.89 30.46 29.39 27.29 26.17 25.30 26.30 24.54 23.16 22.66 24.05 23.93 24.47 24.40 25.67 26.00 26.86 28.43 30.07 29.79 30.23 31.07 31.74 32.39 32.89 33.46 33.69 33.86 34.57 35.07 35.08 35.97 36.86 37.10 37.30
32.80 32.11 30.99 29.18 28.60 28.62 27.04 25.34 25.04 23.55 23.25 22.58 22.29 22.42 22.58 23.96 24.12 22.82 22.80 25.54 24.53 26.51 28.08 28.81 30.14 31.05 31.65 32.01 32.27 33.00 33.62 34.10 34.18 35.11 35.43 35.63 36.62 36.88
30.52 30.02 29.48 30.30 32.58 29.19 26.26 25.10 23.53 22.65 22.36 21.83 21.01 20.84 20.54 20.63 20.46 22.59 21.47 22.36 23.61 25.03 25.26 26.28 27.65 28.14 28.61 30.03 30.74 31.52 32.17 33.37 33.98 34.44 34.93 35.59 36.16 36.18
29.10 29.01 28.11 30.77 31.25 33.90 34.26 31.44 26.20 23.23 21.98 20.51 20.53 19.63 19.44 20.31 21.53 20.63 20.51 20.37 19.26 26.08 25.05 24.68 27.57 26.60 28.19 28.90 30.14 31.68 32.81 33.38 34.15 34.42 34.90 35.33 35.61 35.58
28.35 27.48 27.59 28.68 30.23 28.13 30.72 32.10 30.50 29.27 25.12 23.52 20.48 19.98 19.13 21.25 21.37 20.87 21.85 22.22 21.95 24.81 24.98 22.67 26.15 25.06 27.89 28.69 30.62 31.47 32.52 33.57 35.10 35.26 35.03 35.21 35.36 35.20
28.37 27.38 26.34 26.53 27.58 27.87 26.69 26.11 25.07 25.14 25.63 24.82 22.71 21.60 22.41 23.44 23.16 23.82 23.99 23.63 23.53 24.33 25.21 20.38 25.30 24.87 27.55 28.49 30.11 31.30 32.32 33.71 34.70 35.12 34.92 34.69 34.48 35.23
29.26 27.87 27.21 26.71 28.91 31.43 28.92 24.85 24.18 23.97 27.07 28.66 27.79 26.84 27.44 27.68 26.73 23.42 20.52 20.32 18.42 20.20 24.16 22.83 24.70 24.05 26.82 27.60 29.14 30.80 32.65 33.19 33.21 34.30 34.82 34.59 34.04 34.06
28.55 28.36 30.35 29.32 30.46 31.03 26.48 24.14 21.43 23.16 23.39 22.41 22.60 24.56 26.04 24.37 25.91 23.90 22.29 19.18 18.89 17.60 24.33 22.15 22.49 24.12 23.23 27.57 28.10 30.31 30.61 30.55 31.66 33.08 33.83 34.81 33.98 33.64
28.50 29.98 29.22 30.36 31.65 31.64 30.15 24.37 22.87 24.43 23.30 22.20 22.15 22.89 22.97 22.92 23.21 23.43 23.48 21.92 19.75 19.09 23.72 24.17 23.03 23.09 25.01 24.98 27.95 29.07 29.34 30.28 31.00 32.21 33.76 33.09 33.38 35.56
29.60 30.78 30.50 30.64 31.16 31.40 30.04 28.75 27.69 24.83 23.22 21.66 20.87 20.77 20.70 20.99 22.20 22.85 23.79 24.15 23.97 23.01 24.88 24.56 22.03 22.28 22.67 22.52 22.63 28.18 29.93 30.44 30.73 31.50 32.08 32.16 32.08 34.15
31.32 31.92 31.84 30.96 30.69 30.49 30.95 29.63 28.30 26.08 23.88 21.86 20.92 20.82 20.90 22.11 22.68 22.73 24.07 23.72 23.91 24.41 25.31 25.08 23.64 23.60 23.37 21.99 22.14 25.28 27.56 29.56 30.89 29.32 31.06 31.50 31.73 31.31
31.24 32.27 31.81 30.56 29.97 29.52 28.54 29.89 28.86 26.62 25.08 23.06 21.74 21.35 19.82 19.52 19.81 21.41 19.99 20.57 19.90 20.00 23.19 24.57 24.72 24.02 21.79 23.44 25.00 26.18 26.78 25.81 29.45 30.79 30.83 31.30 30.41 30.84
29.97 30.39 29.80 29.21 27.57 26.52 26.30 26.33 26.56 25.30 23.24 22.42 20.19 19.11 18.41 18.65 18.92 19.95 19.52 19.81 17.57 17.38 18.83 21.70 23.98 24.15 23.36 23.20 23.25 26.82 25.84 26.38 28.44 30.10 29.39 29.43 29.43 30.31
29.44 27.72 26.99 25.70 25.29 25.03 24.88 24.70 24.84 24.06 23.71 23.00 20.55 20.25 18.76 17.61 17.70 18.29 18.86 17.27 16.15 17.10 17.64 19.54 20.32 19.80 21.26 22.78 27.76 26.33 25.69 24.57 26.80 28.83 28.99 26.89 27.64 29.81
29.25 27.87 27.50 26.92 25.72 25.54 25.26 24.62 23.26 22.98 23.25 21.93 21.50 19.28 18.63 17.86 16.19 17.29 16.95 16.53 16.15 16.95 17.94 19.17 18.38 17.21 16.24 12.96 21.18 28.81 24.60 25.42 24.41 25.62 27.99 27.71 26.35 28.45
29.87 28.26 26.75 26.91 26.27 25.24 24.94 24.34 24.03 23.64 21.14 20.45 19.57 19.14 16.89 16.87 16.10 16.21 16.56 13.47 14.44 16.02 17.19 18.13 17.26 16.37 16.07 17.10 18.51 21.87 25.68 26.09 24.05 23.28 24.39 26.44 27.67 28.36
27.61 27.98 28.80 28.10 27.00 26.14 25.41 24.75 23.96 23.16 21.38 17.74 19.05 17.15 15.34 16.38 15.15 15.94 15.50 10.93 10.60 16.18 15.90 15.80 17.50 18.26 19.89 22.51 19.72 20.91 25.30 26.81 27.13 24.75 25.04 23.89 24.72 26.13
22.45 26.09 28.02 28.67 27.79 25.10 25.28 24.54 23.07 22.53 20.54 17.59 17.07 16.69 15.84 16.05 16.28 14.32 11.99 12.19 14.79 15.34 15.16 16.66 17.68 18.51 19.96 20.31 19.23 21.27 23.76 24.51 25.01 25.96 26.50 26.80 24.57 21.04
15.04 16.26 18.15 22.93 28.05 27.72 25.76 24.34 23.34 22.30 21.87 19.89 19.06 17.72 16.03 15.33 16.51 15.15 13.00 12.59 14.25 14.32 13.88 14.40 15.10 16.30 16.66 18.58 17.89 18.29 19.99 21.87 23.86 23.97 23.85 25.36 27.00 28.32

GFSNE_sfc_wetblb_063.txt.gz
Wetbulb
43.71 43.18 42.40 42.38 42.26 41.78 41.37 40.48 38.03 33.48 34.16 36.79 37.55 40.03 39.59 38.98 37.39 36.86 36.12 34.07 33.02 33.61 33.80 34.14 35.29 36.06 36.77 37.34 37.78 38.44 39.39 40.11 40.86 41.17 41.49 42.07 42.83 43.21
42.70 42.05 41.65 41.70 41.55 41.63 41.08 40.88 40.32 37.31 31.64 37.05 37.89 38.36 37.68 36.08 35.76 35.16 34.61 32.54 32.65 32.30 32.65 33.52 34.20 34.87 35.44 36.17 36.61 36.97 37.52 38.13 38.84 39.65 40.37 40.89 41.77 42.03
41.98 41.33 40.92 41.57 40.66 40.75 40.57 40.08 38.92 38.22 34.37 36.32 36.64 36.43 34.97 34.55 34.72 34.75 33.45 33.31 33.93 32.35 32.30 32.98 32.98 33.23 33.49 33.69 34.23 34.69 35.18 35.94 36.68 37.50 38.44 39.50 40.24 41.01
40.99 40.48 39.87 39.57 39.77 40.27 39.33 38.32 37.63 37.64 35.02 32.63 34.93 33.75 33.09 34.13 33.54 32.18 31.67 32.51 32.90 32.21 32.01 31.65 32.17 31.71 32.33 32.82 33.13 33.71 33.97 34.35 34.84 35.63 36.53 37.87 38.60 39.22
40.59 40.20 39.43 39.18 38.62 38.97 38.60 37.41 37.18 35.60 34.70 32.42 32.01 33.59 32.60 32.75 31.87 31.60 31.19 31.75 31.99 31.36 30.80 30.60 30.88 31.54 32.21 32.57 33.01 33.51 33.80 34.06 34.24 34.24 35.04 35.40 36.00 36.58
40.61 39.78 39.13 38.53 38.15 37.79 36.99 36.51 35.93 34.56 33.67 31.87 31.49 31.30 31.48 31.94 30.74 28.34 28.41 30.60 30.06 31.08 31.18 30.49 30.56 31.25 31.66 31.95 32.02 32.70 33.18 33.47 33.64 34.34 34.97 34.93 35.21 35.73
39.48 38.58 38.41 37.97 36.28 35.49 35.19 35.51 34.72 32.96 32.21 31.05 30.27 30.18 29.64 29.49 28.04 28.30 27.18 28.42 29.78 31.29 30.73 31.25 31.53 32.14 32.98 32.34 32.52 32.42 32.39 32.78 33.40 34.04 34.42 35.07 35.20 35.66
38.23 38.59 38.26 35.60 35.34 34.19 34.51 33.31 33.07 32.92 31.16 30.80 30.21 28.80 29.05 29.34 28.50 27.13 26.57 25.51 24.21 32.10 29.32 28.60 31.23 30.91 32.44 33.71 32.35 31.81 32.12 32.73 33.23 33.87 34.66 35.36 35.35 35.39
38.62 37.83 36.98 35.72 34.18 35.16 33.53 32.28 33.09 31.24 29.16 32.17 29.78 29.66 28.88 29.21 27.58 26.33 26.49 26.38 25.92 29.33 28.39 26.26 29.91 29.69 32.82 32.95 32.35 32.10 31.99 32.34 33.02 34.13 35.58 35.78 35.43 35.22
38.64 38.07 37.25 36.71 36.03 34.79 33.99 33.15 33.08 33.36 32.46 30.98 31.37 31.04 31.00 29.84 28.60 28.11 27.42 27.16 27.84 29.14 29.71 23.88 29.21 29.44 31.76 33.20 33.21 32.29 32.70 33.39 33.87 34.50 33.95 35.22 35.38 35.07
38.14 37.92 37.06 36.09 34.47 32.87 32.26 30.97 31.43 32.16 31.75 30.57 29.84 29.58 28.31 27.15 28.57 28.82 26.30 24.90 24.06 26.08 29.12 26.38 27.91 27.64 30.26 31.91 34.69 32.61 32.99 33.14 32.94 32.91 33.19 33.71 34.28 34.41
37.02 36.96 33.70 34.39 33.11 31.38 32.38 32.02 29.96 31.30 31.48 29.84 29.89 29.46 28.69 29.25 27.75 28.29 27.80 24.15 24.25 23.54 29.31 25.08 26.02 26.57 25.00 31.62 33.13 34.20 34.55 33.60 33.25 33.47 33.10 33.48 34.10 34.69
35.72 36.00 36.21 32.31 31.54 31.95 32.17 32.74 32.04 32.63 30.19 29.65 29.44 29.09 28.59 28.76 29.17 29.74 29.33 27.11 24.83 24.48 28.44 26.60 25.44 25.36 24.43 25.40 29.57 31.79 33.72 34.59 35.38 35.32 34.20 34.06 33.88 33.97
33.90 35.59 36.51 33.79 31.91 32.00 32.19 32.45 30.79 29.56 30.29 29.57 28.35 27.53 27.44 28.09 29.18 29.67 29.51 28.79 29.15 26.87 28.27 27.82 24.93 24.91 23.97 23.15 24.58 30.22 31.84 34.32 34.80 33.20 34.21 33.89 34.74 34.21
33.94 33.70 33.11 33.57 32.70 31.36 31.36 31.44 30.66 30.42 29.61 28.11 27.70 27.66 28.66 29.75 29.48 28.59 28.32 28.34 27.94 27.86 27.56 27.63 26.64 25.80 24.75 23.24 24.34 27.08 28.20 31.64 33.65 34.14 33.06 32.67 33.80 34.27
31.89 33.38 32.33 32.11 32.19 31.82 31.31 31.61 32.42 32.20 30.72 29.06 28.89 29.27 29.72 27.99 27.08 28.26 26.32 26.36 25.09 25.62 27.35 27.35 27.11 26.63 24.92 25.92 26.60 26.55 28.87 28.13 31.87 32.27 32.81 35.07 34.46 33.49
30.73 31.62 31.96 31.86 31.98 31.67 30.79 30.99 31.30 31.86 29.72 29.94 28.98 28.04 27.09 26.75 26.57 27.64 25.99 25.34 23.59 23.25 23.98 26.21 27.16 27.00 26.84 25.74 24.99 27.65 28.16 29.17 30.73 30.60 31.77 31.19 33.42 32.83
29.87 30.29 30.83 31.94 31.11 30.34 30.01 30.04 29.76 29.16 29.71 29.66 28.89 27.76 26.90 26.14 26.18 25.98 25.39 24.59 23.26 23.28 23.40 24.95 24.93 24.57 26.35 28.07 27.82 26.78 28.37 28.11 30.57 30.69 31.67 29.08 29.48 32.30
29.45 30.51 31.38 30.97 31.19 29.89 29.65 28.81 29.15 29.95 29.84 28.85 28.24 27.43 27.39 26.72 25.56 25.34 24.86 24.10 23.08 23.17 23.77 24.59 23.74 22.43 21.23 21.42 27.36 27.92 26.73 27.24 28.49 29.45 29.98 30.44 29.56 30.89
21.23 20.25 28.35 31.58 31.22 30.54 30.31 29.16 28.79 29.53 28.70 27.89 28.27 27.92 27.44 26.39 25.45 24.37 24.20 23.59 22.62 22.39 22.52 24.15 23.42 22.36 21.34 21.63 22.10 26.60 26.77 27.54 26.90 26.88 28.17 30.08 32.28 29.15
17.90 18.83 20.15 21.63 26.08 30.39 30.61 30.30 30.39 29.67 28.75 28.28 27.96 27.03 26.66 25.66 25.33 25.15 24.56 21.28 19.97 21.26 20.85 22.13 23.92 21.31 23.86 25.29 23.14 25.78 29.46 27.21 27.45 26.44 26.65 27.60 28.22 29.42
15.66 15.31 16.89 18.71 20.77 22.32 29.91 30.92 30.27 28.68 28.24 27.43 27.79 27.60 26.83 26.14 25.72 24.33 24.36 23.45 21.50 21.80 22.14 23.28 23.69 23.64 24.45 23.81 23.53 24.12 26.11 28.43 28.10 26.03 26.07 26.63 27.18 25.13
13.97 14.39 14.24 15.71 17.65 19.67 20.83 22.93 28.87 28.34 27.97 27.28 27.23 26.95 26.09 24.89 25.78 25.49 25.01 22.78 22.34 21.30 21.48 21.18 22.15 23.03 22.58 22.55 22.42 23.96 23.61 25.27 26.79 27.43 28.33 25.60 26.63 27.42

GFSNE_sfc_wetblb_066.txt.gz
Wetbulb
47.30 46.85 45.68 45.57 45.59 45.13 44.41 43.28 40.29 36.60 37.65 41.66 41.36 43.76 43.33 43.57 42.67 41.68 40.22 38.91 36.08 34.59 34.49 34.47 35.09 35.70 36.58 37.02 37.51 38.28 39.05 39.70 40.37 40.73 41.35 42.02 42.64 43.16
46.30 45.79 45.49 45.30 45.12 44.81 44.03 43.44 42.68 40.17 36.77 41.37 41.28 42.63 42.90 41.80 41.32 40.03 39.20 37.13 36.28 35.55 34.18 33.70 34.26 34.92 35.33 35.27 35.77 36.33 37.01 37.73 38.10 38.77 39.42 40.34 41.22 42.06
45.93 44.84 44.45 45.05 44.04 43.84 43.65 43.09 41.86 41.31 37.91 39.93 41.69 42.62 40.89 39.72 39.80 40.07 39.12 38.29 37.50 36.24 35.06 33.66 33.54 33.76 33.44 33.80 33.78 34.15 34.73 35.47 36.05 36.82 37.56 38.69 39.85 40.82
44.64 44.59 43.70 43.29 43.37 43.36 42.73 42.03 41.53 41.68 39.25 37.03 39.57 39.76 39.79 39.71 39.07 37.77 37.04 36.81 36.62 36.14 34.59 33.18 32.73 32.32 32.27 32.46 33.02 33.59 33.92 34.28 34.77 35.30 35.96 36.58 37.44 38.79
44.43 43.84 43.43 43.32 42.00 42.26 42.10 41.31 41.30 40.40 40.13 38.02 37.10 39.12 38.90 38.88 37.35 37.33 36.52 36.30 36.20 35.64 34.48 33.66 32.86 32.47 32.40 32.69 33.02 33.22 33.40 33.49 33.91 34.25 34.68 35.26 35.69 36.13
44.35 43.89 43.45 42.80 41.80 41.54 41.05 40.77 40.13 39.25 39.01 37.81 37.01 36.65 36.93 37.93 36.95 34.27 33.55 35.20 34.60 35.33 35.36 34.22 32.97 32.90 32.81 32.98 33.04 33.05 33.11 33.33 33.75 33.89 34.48 34.61 34.78 34.87
43.92 43.59 43.66 42.35 39.98 39.11 39.24 39.30 39.23 38.26 37.39 36.40 35.24 34.87 34.12 34.09 33.78 35.13 32.59 33.13 34.08 35.21 34.89 35.09 35.35 35.31 35.48 35.28 34.75 34.00 33.62 33.60 33.56 33.46 33.91 34.67 34.79 35.12
42.18 42.77 43.26 40.65 38.75 35.61 35.43 34.92 35.62 36.83 36.01 35.25 34.16 32.02 32.27 32.97 34.77 33.61 32.08 30.07 28.71 35.75 33.60 32.80 34.72 33.92 34.87 36.13 34.86 33.04 33.07 33.16 33.36 33.55 33.61 34.14 35.14 35.69
42.55 42.26 41.61 41.51 39.45 40.21 36.96 34.11 33.97 33.75 31.78 35.21 33.76 33.67 32.95 33.30 34.07 32.67 31.31 30.77 30.23 33.13 32.37 29.87 33.78 32.50 35.21 35.72 34.84 34.26 33.59 33.52 33.61 33.63 33.60 34.39 35.25 35.38
42.09 42.13 41.70 41.49 41.29 39.87 39.45 38.46 38.05 37.76 36.55 34.79 35.07 34.64 34.26 35.35 34.49 33.06 31.63 31.17 31.82 32.84 33.74 28.46 32.65 31.50 34.16 35.01 34.60 34.96 33.21 33.72 33.96 33.88 33.72 34.65 34.28 34.38
40.60 40.88 40.68 40.14 37.99 37.38 38.01 36.27 36.28 36.46 35.87 34.29 33.89 33.59 31.60 29.58 29.94 31.78 29.33 28.66 27.80 29.82 32.97 30.55 30.86 30.52 32.28 32.78 35.44 34.52 34.11 34.74 34.60 34.47 34.17 33.87 34.16 34.07
39.17 39.46 36.57 37.47 35.31 34.49 37.04 36.35 34.06 35.46 34.80 34.48 34.45 32.51 31.40 32.26 29.63 30.67 30.81 27.77 28.03 27.50 32.15 28.66 29.32 29.33 27.22 32.15 33.89 33.96 35.29 34.36 34.38 35.01 35.25 34.95 34.01 35.60
33.55 34.80 36.86 34.00 34.18 34.29 33.67 36.00 34.65 36.12 33.97 34.47 34.26 32.84 32.44 32.69 32.99 32.12 31.62 30.60 28.71 28.26 32.07 30.58 28.28 28.23 27.77 27.95 31.09 32.37 33.71 35.20 35.87 35.77 35.08 34.85 35.27 34.51
31.78 34.47 35.41 33.49 33.35 32.78 33.73 33.78 33.03 32.96 34.92 35.26 31.88 31.29 31.50 31.28 32.12 32.32 32.42 32.62 32.89 30.91 32.20 31.01 26.90 26.73 26.32 26.39 26.36 30.27 32.79 34.95 35.53 34.75 35.59 35.52 34.88 35.13
31.50 32.14 30.94 31.55 31.84 31.67 32.02 32.41 31.97 32.24 32.34 32.16 30.91 31.03 31.87 32.88 32.11 31.50 32.18 32.45 32.02 31.70 30.78 30.48 29.09 28.90 27.67 25.74 26.03 27.10 27.90 31.46 34.66 34.87 34.87 34.58 35.03 35.36
29.40 31.71 32.67 30.99 30.72 31.31 32.03 32.64 33.02 32.67 32.79 32.34 32.04 32.72 33.29 32.81 30.80 30.76 29.23 29.34 28.50 29.37 30.89 31.03 30.11 29.01 26.98 27.92 27.85 26.74 28.61 29.03 33.15 33.38 33.77 34.95 35.99 35.16
27.17 29.99 31.88 32.52 33.08 33.65 34.01 34.17 33.54 33.11 32.39 33.26 32.93 32.70 32.12 31.27 30.24 30.39 29.13 28.04 26.85 27.24 28.21 30.03 30.76 30.57 29.73 28.11 26.28 27.58 29.24 30.73 32.80 32.34 32.50 32.39 33.96 34.41
27.35 27.43 28.27 31.24 32.75 32.54 32.84 33.21 33.36 32.39 33.21 33.26 32.36 31.84 31.08 29.99 29.43 29.67 28.79 27.21 26.18 27.32 27.44 28.54 28.88 28.19 28.29 30.24 30.52 27.92 29.35 30.27 31.15 31.59 31.53 30.45 31.58 34.51
24.29 24.40 24.89 25.88 27.98 28.86 33.24 33.20 32.09 32.80 32.30 31.54 31.76 31.87 31.36 30.40 29.71 28.92 28.73 26.64 25.95 27.02 27.62 28.48 27.62 26.10 23.37 23.46 29.71 28.19 27.44 27.83 28.48 29.17 30.03 30.54 30.00 32.36
22.61 21.73 21.61 22.41 23.97 24.81 26.31 31.24 32.91 33.23 31.94 30.66 31.10 31.48 31.48 29.81 29.38 27.91 27.89 26.57 25.85 26.69 26.53 27.52 27.39 26.59 24.12 23.66 23.88 28.60 28.11 28.16 28.71 27.57 28.44 30.31 32.93 31.11
20.46 20.15 20.57 20.58 20.64 22.64 24.05 26.73 29.43 32.84 32.46 32.40 31.06 30.71 30.95 29.90 29.09 28.33 26.92 26.36 25.54 26.05 24.60 25.45 28.41 23.75 26.03 27.11 24.50 27.85 30.85 28.23 28.16 27.68 27.70 27.98 29.11 30.76
18.90 18.38 18.81 19.21 19.71 19.91 21.87 22.64 25.65 27.71 31.52 31.33 31.09 31.10 31.13 30.30 28.70 27.74 27.20 26.50 24.69 25.58 25.74 27.64 27.91 26.88 26.04 25.32 24.82 26.32 28.35 29.68 29.77 27.20 26.27 25.87 27.24 25.21
16.94 17.01 17.37 17.54 18.47 18.56 18.37 19.50 21.18 23.72 25.65 30.47 30.71 30.49 30.75 29.30 28.74 29.18 27.50 26.41 25.87 25.21 25.51 25.33 26.35 26.22 24.87 25.17 24.31 25.36 25.81 26.81 28.12 29.09 29.73 25.82 26.32 26.89

GFSNE_sfc_wetblb_069.txt.gz
Wetbulb
44.63 45.88 47.04 47.15 46.88 46.42 45.53 44.27 41.01 37.57 37.82 41.90 41.95 46.01 45.63 45.16 44.72 44.15 43.29 42.00 40.43 38.10 37.62 36.62 36.23 36.47 36.78 37.21 37.48 38.03 38.49 38.89 39.69 40.28 40.82 41.69 42.36 42.71
44.13 44.98 47.03 46.79 46.47 46.03 45.41 44.34 43.21 40.89 38.06 41.61 42.22 44.31 44.79 43.76 44.32 42.82 42.05 41.51 39.80 38.66 38.07 36.87 35.68 35.53 35.41 35.90 36.21 36.29 36.76 36.94 37.47 38.32 38.97 39.75 40.53 41.16
45.00 46.77 45.72 46.23 45.12 45.12 44.81 43.92 42.70 42.00 39.09 41.25 42.72 44.35 44.32 43.88 42.87 42.57 41.85 41.21 40.78 39.34 38.40 37.22 35.27 34.73 34.44 34.37 34.35 34.39 34.69 35.17 35.67 36.32 37.16 38.05 38.75 39.48
44.94 46.07 45.17 45.06 44.93 44.64 44.06 42.87 42.76 43.03 41.03 38.87 41.54 41.85 42.17 43.22 43.02 41.73 39.97 39.54 39.11 38.53 38.30 36.68 35.22 34.61 34.02 33.57 33.42 33.63 33.91 34.16 34.57 35.12 35.55 36.34 37.22 37.94
46.20 45.24 44.85 44.81 43.78 43.90 43.33 42.53 42.89 42.01 42.32 40.48 39.67 41.83 41.85 41.72 40.71 40.80 39.59 39.97 38.63 38.86 37.55 36.35 36.16 35.18 34.26 34.20 34.02 33.99 34.00 33.78 33.53 33.85 34.14 34.66 35.16 35.80
45.83 45.70 44.83 43.89 43.30 43.55 42.71 42.62 42.10 41.30 41.13 39.87 39.27 39.34 40.00 41.02 39.88 36.88 36.56 38.23 37.01 37.19 37.12 36.12 36.49 36.63 36.79 35.98 35.25 34.40 34.38 34.45 33.99 33.72 34.42 34.53 34.70 34.66
45.63 45.25 45.46 44.59 41.68 41.03 41.91 41.50 40.88 39.39 38.92 38.42 37.66 38.03 37.61 37.46 36.21 36.56 35.05 36.00 36.55 36.51 35.68 36.29 36.83 36.27 36.58 37.01 36.75 36.90 35.49 33.57 33.90 33.96 34.21 34.29 34.36 34.64
43.08 44.02 44.23 42.39 41.14 38.23 37.30 36.91 38.65 38.72 36.96 36.23 36.08 35.21 36.29 36.23 36.28 34.92 34.37 32.37 30.25 36.52 34.41 34.11 35.75 34.22 35.73 36.59 36.05 34.46 34.19 33.91 34.06 34.19 34.36 34.22 34.36 34.44
42.08 42.56 42.41 42.84 41.33 43.21 39.23 35.78 35.36 34.73 32.73 37.03 35.18 35.03 35.12 36.48 36.23 34.10 33.50 32.28 31.65 34.03 33.61 31.09 34.64 33.63 35.46 35.47 35.75 34.75 34.95 34.42 33.76 34.35 34.56 34.73 34.71 34.42
41.26 41.64 42.18 42.54 42.92 41.34 41.10 40.64 40.47 40.10 38.08 36.29 36.44 37.09 37.01 36.99 36.53 35.46 33.60 32.74 32.67 33.10 34.37 29.15 33.72 32.74 35.11 35.78 35.58 35.80 35.60 35.21 34.35 35.00 35.01 34.81 34.34 34.17
39.95 40.11 40.03 40.01 38.23 36.53 37.29 37.68 38.13 38.57 38.96 37.09 36.77 36.40 34.39 31.46 31.07 33.56 31.29 29.44 28.91 29.62 33.67 31.52 31.93 31.39 32.83 33.04 35.47 33.52 34.01 34.16 35.11 35.25 35.38 35.26 35.27 34.94
35.80 36.09 34.36 34.42 33.10 33.48 35.35 35.45 34.25 35.85 37.47 37.62 37.51 35.42 33.94 34.14 31.13 32.19 31.93 28.53 28.31 27.91 32.24 30.38 30.03 30.32 27.40 32.55 33.47 34.70 35.49 34.75 34.55 35.03 35.46 35.62 35.49 35.37
30.22 31.69 33.69 31.92 32.04 32.63 33.14 33.65 33.23 33.78 33.00 34.28 35.72 36.52 35.69 34.53 34.04 33.51 32.68 30.89 28.58 28.08 32.53 31.66 28.83 28.62 28.18 27.79 30.79 33.34 33.87 34.27 34.88 35.16 35.44 35.58 35.75 35.40
29.01 31.28 31.49 30.55 30.12 29.91 30.75 31.26 31.50 31.50 32.78 32.15 32.56 33.37 33.37 32.38 33.66 34.65 34.20 33.47 33.46 31.59 33.13 33.41 29.27 27.72 26.89 26.19 25.87 30.73 32.38 33.74 33.52 34.15 35.64 35.74 35.38 35.55
29.17 29.64 29.01 29.30 29.92 30.51 32.27 31.47 30.90 33.50 31.57 30.83 31.02 33.10 33.10 33.79 34.57 34.26 34.53 34.23 33.68 33.63 32.63 32.74 30.80 28.98 28.82 27.01 26.38 28.15 29.11 31.08 33.74 34.02 34.87 35.03 34.66 34.84
27.14 28.63 27.55 28.16 31.05 30.85 31.41 33.85 34.83 34.79 32.63 31.21 32.36 34.28 34.19 33.77 32.98 33.73 31.96 31.63 30.18 30.15 31.91 32.74 32.25 30.66 27.99 27.92 28.08 27.82 29.41 27.77 32.31 33.51 34.08 34.32 35.39 35.75
25.35 27.50 29.59 29.43 29.16 29.99 32.23 33.02 35.25 35.15 32.88 32.27 32.54 33.08 33.82 33.10 32.46 33.53 31.65 30.37 28.33 28.00 28.43 31.27 32.37 31.55 30.51 29.19 27.54 28.28 29.12 29.82 32.22 32.36 31.54 31.63 33.58 35.44
24.30 26.37 25.61 25.57 25.41 26.16 27.04 29.23 30.60 32.85 33.53 33.34 32.86 33.23 32.89 32.20 31.95 31.76 31.29 29.66 27.89 27.70 27.91 29.60 29.49 29.23 29.04 30.14 31.06 28.40 30.06 29.68 31.71 30.57 31.16 30.28 30.75 34.14
24.01 23.92 23.89 23.58 23.29 23.60 24.71 26.13 26.73 27.16 32.98 32.93 33.31 32.63 32.91 32.35 32.08 30.67 30.14 29.25 28.27 27.45 27.73 29.43 28.27 26.70 23.45 23.48 29.05 30.29 27.68 28.05 28.29 29.21 30.02 30.23 29.11 31.16
23.58 22.23 22.21 22.09 21.99 21.51 22.28 23.08 25.10 25.98 26.68 32.83 32.27 31.65 32.37 31.85 31.39 29.87 29.84 29.22 27.89 26.95 26.52 28.33 27.65 26.97 25.12 24.25 24.52 28.40 28.90 28.28 28.52 27.71 27.72 29.89 31.80 31.85
21.37 21.04 21.37 21.06 20.41 20.10 21.53 22.10 22.13 23.92 25.06 26.52 32.25 31.89 32.07 31.15 30.79 30.35 29.91 28.77 28.36 26.88 25.09 25.97 28.13 25.68 28.17 26.84 23.74 26.06 30.60 30.17 29.56 28.15 27.60 26.97 27.66 29.49
19.61 18.96 19.22 19.42 19.27 19.37 20.27 21.03 20.45 20.37 22.29 24.66 26.27 31.44 31.90 31.45 30.45 30.19 29.79 28.17 26.84 26.36 25.95 27.85 28.87 27.80 26.30 24.22 23.81 26.60 28.05 29.89 29.38 28.90 27.99 25.79 25.99 23.40
17.87 17.79 17.81 18.04 18.38 18.43 18.00 18.82 18.64 17.88 19.27 22.41 23.59 24.63 24.75 29.98 31.05 30.51 29.39 28.64 27.74 25.68 25.46 25.56 27.00 27.19 25.48 25.20 24.59 24.64 26.32 27.11 27.98 28.60 28.96 28.31 27.30 27.44

GFSNE_sfc_wetblb_072.txt.gz
Wetbulb
44.25 44.07 44.62 44.58 45.42 44.26 42.20 40.82 37.14 30.49 32.91 35.90 36.10 40.07 40.58 40.47 41.05 38.96 37.95 42.81 41.89 40.66 39.15 39.16 39.67 39.09 37.85 37.44 37.71 38.10 38.78 39.09 39.31 39.79 40.15 40.68 41.54 42.11
44.47 43.51 43.64 44.38 44.66 43.36 42.36 41.08 39.50 36.25 33.25 36.37 36.49 38.00 39.83 41.82 41.56 40.16 39.19 42.51 41.00 40.38 39.97 40.17 39.95 38.43 37.37 36.76 36.77 36.67 37.18 37.50 37.73 38.11 38.26 38.85 39.61 40.43
43.48 43.04 43.33 44.42 42.66 42.20 41.68 40.54 38.26 37.07 34.09 35.60 37.35 37.85 37.19 37.60 38.65 38.08 39.71 36.85 36.81 40.89 39.91 39.78 39.22 37.86 36.81 36.06 35.93 35.62 35.65 35.86 36.05 36.50 37.14 37.71 38.69 39.12
42.39 42.73 43.39 44.77 43.00 41.74 40.71 39.05 37.82 37.31 35.46 33.88 36.52 36.85 36.16 36.87 36.65 36.07 38.69 39.54 35.60 39.44 39.61 39.02 38.47 37.49 36.88 36.15 35.49 35.25 35.02 34.95 35.02 35.17 35.62 36.19 36.70 37.39
43.91 43.14 43.58 43.17 40.56 40.13 39.50 38.17 37.62 39.76 36.20 34.38 34.75 35.30 34.71 35.01 34.65 35.53 35.77 35.83 38.02 40.34 39.16 38.44 38.38 38.14 37.63 36.96 36.21 36.02 35.89 35.66 35.21 34.76 34.60 34.51 34.89 35.50
44.45 44.50 43.29 42.07 40.05 38.99 38.98 37.64 38.26 35.61 34.94 33.46 32.55 32.72 32.69 34.59 33.86 32.60 31.96 31.70 33.56 37.51 37.50 35.90 36.73 37.86 38.50 37.51 36.89 36.81 36.62 36.36 35.82 35.53 35.29 34.77 34.72 34.84
42.74 43.47 42.65 42.40 42.06 40.11 40.17 36.73 36.01 34.93 34.33 33.53 32.86 32.18 31.23 29.81 29.43 31.18 31.79 31.20 31.10 32.07 30.95 29.60 30.15 31.22 32.08 35.74 36.85 38.08 37.44 37.08 36.49 35.58 35.04 34.96 34.83 34.76
38.96 39.77 40.01 40.22 39.83 38.40 37.85 37.61 37.97 36.47 35.16 35.05 33.50 32.09 31.21 30.77 30.65 28.97 28.52 28.55 26.32 31.01 30.83 26.46 29.43 27.52 29.79 30.74 35.71 34.71 34.94 34.87 34.53 34.64 34.33 34.56 35.04 35.10
36.62 36.92 38.09 40.22 38.16 38.77 37.46 36.35 35.34 36.08 33.30 35.53 34.56 33.59 32.75 32.84 31.61 29.88 28.70 29.01 29.26 30.02 27.76 24.88 26.97 25.87 29.73 34.27 35.64 35.78 35.36 35.50 35.46 34.73 34.73 34.99 34.82 34.71
36.76 36.46 35.50 34.94 35.01 33.99 32.50 31.16 32.07 33.83 35.38 35.07 33.55 33.93 34.80 35.31 35.01 32.59 30.22 30.87 29.41 28.07 28.50 22.76 26.06 26.38 28.28 29.57 35.23 35.59 35.50 35.48 35.81 35.28 35.23 35.37 35.09 34.76
34.43 33.70 33.09 31.36 33.49 33.52 29.74 28.54 29.15 30.65 35.02 36.16 36.50 36.57 36.67 36.26 36.06 32.59 29.99 28.09 22.91 25.26 26.98 26.06 26.00 25.75 26.32 26.46 28.03 35.00 34.57 34.79 34.82 35.14 35.30 35.56 35.56 35.32
28.97 29.88 31.13 30.69 31.64 31.12 28.12 26.75 25.38 26.73 29.71 30.69 30.73 31.49 34.54 35.27 34.59 32.97 30.68 27.99 25.62 22.10 26.32 25.34 24.81 24.66 21.66 25.43 26.45 27.29 27.60 32.85 34.30 34.68 34.80 35.17 35.52 32.56
25.44 25.92 27.22 30.47 30.43 30.01 29.62 26.55 26.44 28.00 28.12 28.26 28.18 29.02 30.03 33.14 31.91 31.06 31.42 30.58 27.98 26.04 27.26 24.09 23.27 24.18 22.07 21.96 23.81 25.87 26.43 27.17 26.16 29.22 33.29 34.73 35.40 34.61
24.87 25.40 26.07 28.08 28.35 29.09 28.75 30.11 30.93 29.68 28.86 28.93 28.39 28.69 29.15 31.01 33.52 31.98 31.06 30.46 30.29 28.33 28.45 27.72 22.80 24.42 22.87 20.81 21.36 23.93 24.59 26.09 27.57 26.74 27.68 32.19 34.48 35.12
24.97 25.79 26.25 26.87 27.65 27.96 30.35 30.33 30.25 30.07 29.80 29.10 28.50 28.21 29.75 31.84 33.40 31.97 32.29 31.06 30.17 29.28 31.01 29.10 26.81 26.59 23.68 21.08 21.85 22.98 23.84 25.42 26.29 24.85 28.52 28.90 28.38 27.90
23.91 22.92 23.24 25.13 24.81 25.40 25.91 27.04 27.79 28.65 28.14 30.60 29.59 30.09 31.18 32.57 31.53 31.91 29.98 27.73 25.78 24.96 29.13 28.96 27.78 27.64 24.91 25.05 23.57 22.87 24.10 20.54 25.09 24.20 30.65 29.74 27.70 29.96
20.40 21.61 22.34 23.48 22.48 22.42 22.42 23.76 24.36 25.22 25.19 25.51 31.40 30.94 30.86 31.87 31.11 31.01 28.38 27.92 26.36 24.52 24.81 26.17 28.25 29.06 28.10 26.26 22.06 24.30 25.12 24.49 26.47 27.46 27.24 25.49 26.77 28.30
19.78 19.38 17.82 17.93 18.99 19.80 19.72 20.32 21.15 21.46 22.77 24.38 25.76 31.23 30.24 31.20 30.78 30.95 30.11 28.85 26.73 26.51 26.19 25.70 25.91 26.57 26.68 26.95 29.12 25.31 24.75 25.53 21.80 25.32 25.76 24.00 24.65 26.07
19.25 18.52 14.80 14.91 17.22 19.18 18.84 19.00 18.85 20.12 21.29 22.71 23.78 25.39 30.97 30.10 29.33 28.41 29.17 28.09 27.09 26.85 25.96 26.10 26.02 24.82 21.76 12.43 24.49 30.32 22.89 23.88 22.79 22.49 26.33 22.56 23.37 25.86
18.98 17.43 16.15 16.19 17.15 17.50 17.31 17.24 18.07 18.52 18.14 18.82 20.94 23.32 28.67 27.22 26.47 26.90 28.73 27.02 26.95 27.33 25.74 25.61 25.36 25.26 22.41 18.42 16.34 19.21 29.34 21.93 21.41 21.13 21.21 23.83 25.26 29.28
18.21 17.29 14.89 16.17 16.09 16.28 16.23 16.72 16.41 16.92 16.55 16.60 18.27 21.05 22.19 25.40 24.45 23.75 27.83 28.06 27.83 27.66 25.14 24.37 25.61 25.20 24.97 21.82 12.25 14.04 19.68 30.66 27.47 22.70 22.77 19.17 21.64 24.05
14.99 15.42 15.58 15.45 15.07 15.47 14.98 15.01 15.03 14.50 15.33 15.41 15.79 18.81 19.36 18.94 20.12 26.13 28.45 28.10 26.62 25.33 25.95 25.56 25.46 25.43 23.34 22.79 18.73 13.19 21.65 26.92 28.86 30.13 29.01 25.36 17.98 15.00
12.11 14.06 14.11 12.58 13.75 13.81 14.35 12.83 12.68 13.01 13.55 14.65 14.83 15.31 15.92 15.36 17.17 18.46 27.85 27.55 26.99 25.24 24.47 23.56 24.80 25.13 24.18 23.78 20.99 18.90 18.78 17.45 22.31 21.90 20.75 28.52 28.25 27.82

GFSNE_sfc_wetblb_075.txt.gz
Wetbulb
44.56 44.36 44.54 45.56 45.69 45.56 44.34 41.50 36.17 28.95 31.28 34.28 34.65 38.19 38.36 37.87 39.85 41.04 37.85 42.39 42.36 42.16 42.22 42.15 41.65 41.09 41.15 40.08 39.15 38.78 38.62 38.59 38.95 39.55 39.93 40.23 40.96 41.25
44.31 44.09 44.36 44.76 44.96 44.96 43.79 41.00 38.93 36.14 32.51 34.54 35.19 36.21 37.71 40.14 39.78 39.38 37.15 41.26 42.47 41.73 41.08 41.15 41.32 41.19 41.10 39.67 38.70 38.12 37.92 37.69 37.82 38.10 38.30 38.68 39.16 39.91
44.18 43.55 43.29 43.99 43.74 42.27 40.52 39.96 37.77 35.57 32.04 33.55 35.28 35.92 34.94 35.42 37.08 36.83 37.45 37.83 38.28 41.18 40.19 39.97 40.35 40.68 40.49 39.70 38.39 37.54 37.38 36.96 37.18 37.10 37.19 37.69 38.35 38.99
42.73 42.81 42.87 43.76 41.54 40.92 39.62 37.96 36.91 36.39 34.14 33.56 33.38 33.52 34.06 35.32 34.87 34.09 37.29 39.29 36.53 39.40 41.00 40.69 40.20 39.62 39.16 38.61 37.91 37.67 37.07 36.70 36.61 36.58 36.41 36.70 36.73 37.06
43.28 43.11 42.91 42.19 40.45 38.84 37.94 37.38 37.60 39.08 35.17 32.32 34.30 33.03 32.71 33.32 33.00 33.46 33.78 34.28 36.60 39.64 39.54 39.13 39.63 40.00 39.21 38.51 37.96 37.72 37.49 37.02 36.82 36.54 35.85 35.52 35.74 36.10
44.12 43.48 42.25 41.31 40.85 38.15 37.40 36.17 36.41 34.19 33.78 32.55 33.82 31.48 30.59 32.08 31.25 30.71 30.15 31.52 30.77 36.53 37.83 35.93 36.81 37.69 39.24 39.16 38.43 38.33 37.73 37.62 37.34 36.74 36.00 35.48 35.49 35.60
42.66 43.08 42.31 41.67 41.20 39.79 39.14 35.96 34.93 32.70 30.98 30.92 32.31 33.02 28.87 27.69 28.17 29.28 30.48 28.83 29.32 30.68 29.81 29.77 29.65 29.95 30.07 35.30 36.85 38.21 38.22 38.16 37.49 37.66 36.69 36.17 35.37 35.10
35.63 36.07 36.21 37.86 37.09 36.01 34.47 34.43 33.53 30.62 29.58 30.86 32.76 33.08 34.65 31.55 29.63 32.48 30.47 29.85 28.31 29.70 29.11 26.99 27.85 26.77 28.10 29.57 33.94 35.80 36.43 35.94 36.67 37.03 36.46 35.51 35.24 35.32
33.18 33.30 34.62 35.36 33.51 31.92 31.90 31.82 31.35 33.03 30.62 29.62 29.58 30.76 32.34 34.64 34.59 32.47 30.97 29.74 30.99 31.72 27.85 24.53 25.42 24.89 27.90 31.70 35.03 36.20 35.77 35.85 35.79 35.64 35.47 35.20 34.94 34.74
31.66 31.23 29.87 28.46 29.82 30.85 28.52 26.91 27.08 27.82 28.74 30.03 29.49 30.56 32.35 34.07 35.14 35.26 33.89 32.86 31.35 30.30 27.79 22.83 24.03 24.21 26.14 27.61 33.63 36.08 35.41 35.57 35.12 35.13 35.69 35.10 34.74 34.80
29.94 28.81 28.64 27.05 31.14 31.59 27.51 25.44 24.69 25.18 29.60 31.12 31.60 32.62 33.67 33.96 33.72 31.90 30.75 31.03 29.12 26.42 26.57 26.59 24.22 23.54 25.03 25.14 27.17 33.59 34.74 34.65 35.04 35.25 35.07 34.97 34.70 34.57
25.61 26.82 28.82 28.54 29.56 29.12 25.52 24.65 23.77 25.12 26.53 27.47 27.56 28.37 29.71 29.45 31.26 30.96 31.24 29.13 29.45 26.44 26.47 27.13 24.02 23.00 20.28 23.62 25.09 25.85 25.23 30.02 32.51 33.55 34.42 34.30 34.16 30.68
24.56 24.24 24.49 27.32 27.44 28.09 28.80 26.47 26.37 28.42 28.92 30.32 29.18 29.10 28.58 28.23 28.81 31.15 32.09 31.21 29.75 28.04 28.30 26.07 23.33 22.58 21.82 21.84 23.15 25.70 24.55 24.93 23.50 26.99 30.95 32.30 33.34 33.21
24.09 24.24 24.39 26.31 27.11 27.99 27.61 28.72 28.67 27.13 28.47 28.49 28.05 28.87 28.88 29.02 28.84 29.43 31.84 32.33 32.44 30.86 29.44 26.53 21.09 23.24 21.90 20.05 20.35 23.98 22.62 23.94 22.02 24.27 25.80 29.20 32.02 33.58
24.45 23.91 24.70 25.58 26.28 25.74 26.64 25.79 24.27 23.90 22.97 23.78 23.79 24.72 27.80 30.52 30.04 30.27 33.01 32.56 31.49 30.24 30.22 27.73 25.42 24.93 23.73 21.35 20.36 22.02 21.12 23.98 22.90 20.72 22.55 25.34 25.62 25.83
23.19 22.13 22.07 23.64 23.23 22.89 22.89 23.12 22.02 21.34 20.88 21.65 21.71 23.48 26.12 30.44 30.59 32.14 31.26 30.17 28.66 28.20 28.94 28.59 27.34 27.18 24.33 24.50 23.03 22.81 22.34 19.79 21.91 22.00 25.55 29.91 27.33 26.30
18.63 18.28 20.28 21.35 20.94 20.81 20.40 20.30 19.96 19.75 18.65 19.41 19.07 20.63 22.64 23.28 29.21 30.98 31.28 29.82 27.17 25.06 25.13 26.58 27.65 27.64 26.73 25.88 22.01 23.52 23.44 22.35 22.03 24.40 25.43 23.18 24.59 25.83
18.80 15.84 14.86 10.22 11.79 17.20 16.67 16.95 16.94 16.19 17.58 18.12 17.34 18.74 19.68 21.84 22.85 30.30 29.79 28.18 25.64 23.78 24.40 25.55 26.25 24.99 25.19 26.81 28.70 24.64 20.84 21.87 19.75 24.25 24.09 21.10 24.50 25.67
14.54 13.85 6.12 3.27 7.13 15.99 16.00 15.55 14.35 15.64 17.18 17.09 15.69 15.66 18.41 21.03 19.54 26.58 29.66 28.91 26.67 26.49 26.01 25.82 26.27 24.74 22.34 19.19 24.74 30.69 24.48 24.34 21.95 20.36 22.18 21.24 21.59 24.97
16.13 11.43 7.27 6.45 9.69 13.29 14.00 13.91 14.36 14.03 14.11 14.24 14.10 14.31 15.41 18.33 17.15 17.46 26.96 26.80 27.20 26.79 26.20 26.50 26.13 24.76 22.39 19.65 18.62 19.33 29.07 21.57 19.78 17.09 18.83 20.40 23.37 27.58
14.17 14.89 8.97 10.96 11.12 12.85 7.57 7.49 4.96 8.56 10.31 10.28 11.99 13.20 13.04 15.28 14.73 15.72 17.43 21.52 23.56 27.02 25.69 25.16 26.27 25.76 25.63 22.35 15.57 13.87 17.95 28.70 26.54 22.17 21.71 17.26 17.72 21.00
10.32 12.59 12.06 10.34 8.08 8.19 2.98 6.25 10.40 7.03 9.05 10.44 9.33 11.94 11.29 13.36 13.11 13.78 14.64 15.63 19.24 27.67 26.25 25.93 25.76 25.22 23.83 22.64 19.00 10.75 17.44 21.60 28.21 30.40 29.04 25.61 17.32 12.80
7.73 9.57 7.02 4.24 4.16 2.57 8.51 9.91 8.08 3.50 8.06 9.05 9.70 9.96 8.97 9.59 12.62 13.21 12.89 14.86 17.65 26.08 24.85 24.95 25.22 24.73 24.06 23.57 21.18 19.17 17.65 15.14 21.76 21.25 19.53 28.04 28.99 27.95

GFSNE_sfc_wetblb_078.txt.gz
Wetbulb
45.06 46.18 45.99 46.15 46.58 46.15 45.66 44.21 40.28 35.00 34.41 35.19 35.80 38.12 38.10 37.89 39.03 39.58 40.18 43.62 43.86 43.15 43.32 44.29 45.04 44.12 43.30 42.85 42.25 41.64 40.90 40.14 39.45 39.42 39.32 39.74 40.42 41.13
45.46 44.85 45.03 45.37 45.37 45.39 45.21 44.73 42.38 39.39 33.33 34.52 35.38 36.13 37.26 38.89 39.08 38.49 38.70 41.87 42.93 42.30 41.94 42.57 43.15 43.76 43.55 42.99 42.21 41.28 40.37 39.67 39.07 38.61 38.44 38.50 38.97 39.80
44.73 44.69 44.65 44.56 44.07 44.31 44.20 42.62 39.71 35.87 32.48 33.76 34.83 35.81 34.20 34.91 36.56 36.14 37.13 36.60 37.23 41.61 41.47 41.60 41.51 41.75 41.84 41.89 41.81 41.45 40.16 39.19 38.75 38.36 38.40 38.18 38.49 38.51
44.11 43.71 43.24 43.90 42.90 42.78 41.70 38.95 36.54 36.09 33.74 32.34 33.41 33.01 33.19 34.51 34.68 34.14 36.86 37.93 35.78 39.22 41.43 41.69 41.21 40.86 40.35 40.38 40.28 39.86 39.32 38.97 38.37 37.59 38.06 37.74 37.71 37.96
43.56 42.78 42.97 43.12 41.50 40.42 38.72 37.43 36.91 38.45 35.20 32.41 33.69 32.68 32.54 32.75 32.66 32.86 33.26 33.77 35.78 39.50 39.76 39.71 40.45 40.51 40.68 39.84 39.68 39.36 38.47 38.01 37.74 37.53 37.64 36.91 36.80 36.74
43.97 43.77 43.48 42.34 40.08 38.11 37.21 35.67 36.61 35.51 35.21 31.60 32.14 31.46 30.00 31.59 31.18 30.07 30.19 29.86 31.28 36.26 38.09 36.54 38.62 39.30 39.83 39.85 39.32 39.11 38.80 38.49 37.80 37.40 37.03 36.67 36.30 36.29
43.37 42.74 40.83 39.16 36.82 35.97 33.10 29.89 29.23 28.52 28.08 27.97 27.73 28.19 28.55 27.33 27.57 29.00 28.88 30.14 28.83 30.54 31.83 33.18 31.59 32.87 33.32 38.25 38.03 39.41 38.80 38.47 38.11 37.73 37.42 36.90 36.44 36.35
35.38 33.57 34.80 34.90 34.08 33.78 33.26 33.16 31.35 27.08 25.65 25.23 25.71 26.54 27.35 28.66 30.55 29.32 32.83 31.75 29.72 30.83 30.31 30.38 28.92 28.11 29.50 28.49 33.24 35.34 35.91 36.65 37.14 36.98 36.60 36.58 36.50 35.82
30.53 30.35 31.75 31.04 30.74 29.45 29.76 29.23 28.98 29.67 28.54 26.09 24.70 24.16 25.36 26.54 28.46 29.07 30.84 30.87 30.74 32.52 29.82 29.71 26.02 25.91 27.71 30.67 34.57 35.67 36.03 36.44 36.60 36.03 35.95 35.51 35.24 35.05
28.80 28.04 26.71 26.09 29.48 28.48 26.94 24.93 24.81 25.12 25.68 26.26 24.05 24.83 26.22 27.85 28.93 30.64 30.40 30.11 30.77 31.87 33.86 28.95 27.13 27.50 26.13 26.59 32.74 34.91 36.21 36.23 36.09 35.74 35.35 35.07 34.96 35.02
27.34 27.30 26.91 26.36 28.93 28.97 25.80 24.16 24.22 25.30 29.08 30.84 31.20 31.92 32.58 32.53 31.45 28.96 26.30 24.40 23.36 25.60 27.65 29.67 30.37 27.28 25.42 25.09 26.49 32.74 35.03 34.68 34.03 34.18 34.37 34.56 34.80 34.30
25.51 26.40 27.72 26.45 27.50 27.61 25.34 24.49 23.91 24.70 26.13 26.21 27.83 30.11 31.36 30.81 30.72 29.08 27.30 25.01 25.84 25.26 27.49 27.86 28.79 26.96 24.42 24.29 25.11 25.08 24.80 29.79 31.20 31.70 32.50 32.83 33.14 29.45
24.70 24.34 24.56 26.23 26.59 27.67 28.24 25.72 25.11 24.65 24.86 25.03 24.88 25.92 27.12 28.61 29.51 30.71 29.21 28.33 27.58 26.69 29.80 28.84 27.23 25.72 23.24 21.74 22.65 24.43 23.99 23.94 22.65 25.61 29.93 31.16 31.90 31.36
24.02 24.40 24.43 25.53 26.77 27.22 26.55 25.95 25.24 24.29 22.16 20.60 21.14 21.37 22.11 22.76 25.05 27.83 30.32 30.88 31.76 30.59 31.57 31.45 26.41 24.75 22.37 19.59 20.12 22.96 22.07 23.06 20.63 22.62 24.03 27.46 29.89 31.37
24.52 24.01 24.32 24.93 25.56 25.23 25.07 24.39 22.69 20.98 19.23 17.30 17.64 18.57 19.41 22.10 24.40 25.29 29.27 31.06 31.53 31.94 32.10 31.23 26.30 25.04 22.76 20.67 19.90 20.82 20.66 24.12 21.63 19.46 21.30 23.10 23.83 26.49
23.29 23.20 22.45 23.50 22.78 22.62 22.67 22.82 21.96 20.21 18.46 17.22 16.99 17.84 19.02 19.61 20.51 23.20 22.54 27.72 30.12 29.36 30.75 31.02 27.98 26.31 23.95 23.75 23.24 21.33 22.74 20.69 21.93 21.63 23.64 23.75 28.06 26.09
20.50 19.71 20.60 20.65 19.89 19.60 19.80 19.89 18.97 18.05 16.26 16.03 15.62 16.15 15.91 16.97 18.07 21.55 21.16 22.42 28.33 27.32 27.70 28.15 28.00 27.44 26.60 26.02 22.10 23.04 23.39 22.76 22.31 23.03 24.28 24.45 23.85 24.84
20.56 16.43 12.95 9.64 12.39 16.29 15.43 15.28 14.95 13.58 15.24 15.16 14.47 14.62 13.57 13.94 15.70 17.86 20.14 18.19 24.88 27.27 26.90 26.83 26.63 25.52 26.39 26.06 27.92 24.01 20.21 21.22 16.11 23.24 24.28 20.74 22.34 23.78
16.16 14.62 7.09 3.53 7.14 14.40 13.75 12.50 11.82 13.64 14.92 13.54 12.03 12.37 12.47 13.04 13.03 13.94 16.17 17.49 17.82 27.30 26.25 25.95 27.37 26.19 23.03 12.51 24.32 30.18 24.56 23.22 22.57 20.00 21.71 21.01 20.35 22.46
17.65 14.37 9.95 8.51 10.28 12.05 11.09 11.37 11.49 10.50 9.80 10.01 9.83 8.43 9.14 11.67 10.61 11.90 13.54 14.06 15.31 17.70 26.24 26.28 26.93 26.44 24.12 17.56 16.50 22.12 29.82 23.73 21.76 18.54 17.18 19.12 22.44 26.78
15.40 14.07 11.16 11.89 11.28 10.38 3.67 0.08 -3.35 3.99 -0.87 -1.08 4.34 4.47 8.01 9.18 7.82 9.62 11.78 12.86 12.99 16.00 20.60 25.90 26.60 27.43 27.66 22.15 14.86 17.42 17.19 27.62 25.99 21.43 20.95 16.28 17.11 18.84
11.01 12.71 12.49 11.59 5.19 4.13 -2.81 -6.43 0.63 -2.45 1.75 2.24 4.33 2.19 3.24 5.56 5.90 6.57 9.87 10.87 11.53 13.76 15.22 21.64 27.53 27.06 22.76 22.17 19.74 14.72 17.11 19.99 25.69 29.55 27.68 25.64 18.00 13.15
7.91 10.33 8.98 2.37 1.99 1.60 5.38 3.33 0.70 -2.35 2.65 5.34 7.13 7.07 5.03 4.11 6.09 6.90 10.02 10.38 11.54 12.52 14.38 22.18 25.64 24.10 23.16 23.66 22.03 19.95 17.94 15.45 20.36 20.25 18.31 27.50 29.11 28.43

GFSNE_sfc_wetblb_081.txt.gz
Wetbulb
48.87 48.85 47.90 47.07 47.34 46.63 45.98 44.33 42.24 38.12 36.40 37.77 37.84 40.19 39.40 37.38 38.28 37.39 38.05 42.32 44.15 44.61 44.32 45.00 46.51 47.31 46.97 46.95 46.10 45.39 44.74 43.88 43.07 42.11 41.06 40.77 40.57 40.86
48.03 47.85 46.46 45.43 45.07 46.26 45.83 45.22 43.95 41.29 37.42 38.17 37.77 35.91 37.02 38.61 38.81 37.85 37.34 42.88 42.96 43.11 43.33 43.28 43.86 45.16 45.37 45.58 45.48 44.91 43.56 43.28 42.32 41.44 40.93 40.42 40.24 40.01
45.43 45.78 45.12 45.82 45.15 44.85 44.73 44.23 43.10 41.44 37.78 36.95 34.67 35.16 34.18 34.86 36.32 36.10 37.03 36.06 37.20 41.82 41.96 42.47 42.28 42.46 42.87 43.23 43.58 43.86 43.34 42.72 40.60 41.07 40.42 40.28 40.21 39.99
44.84 45.14 44.65 45.28 43.95 43.66 42.92 41.83 40.50 38.74 35.99 31.75 33.42 32.98 32.93 34.09 33.78 33.38 36.57 37.58 34.99 39.07 40.75 41.22 41.77 41.69 41.58 41.57 41.75 41.77 41.80 40.18 40.52 40.78 39.81 39.43 39.15 39.31
44.92 44.29 44.02 43.47 42.39 41.78 40.96 39.78 38.80 38.59 34.34 31.41 31.69 31.92 31.99 31.89 31.56 32.32 32.47 33.19 35.07 39.24 39.52 39.51 40.23 41.32 41.82 41.39 41.44 40.95 40.44 39.57 39.29 38.96 38.86 38.63 38.03 38.10
44.31 43.79 43.48 42.96 41.52 40.21 39.31 36.86 35.70 31.98 30.83 29.07 28.45 29.15 29.59 30.26 29.34 28.46 29.57 29.89 30.50 34.86 37.26 37.13 37.96 39.54 40.84 41.02 40.59 40.38 40.11 39.37 38.85 38.15 37.59 36.82 36.83 37.31
43.47 43.48 39.67 37.48 36.33 36.04 33.37 28.60 27.92 26.86 25.76 25.58 25.25 25.65 25.70 26.34 26.91 27.67 28.52 30.18 30.87 29.64 30.81 31.81 31.80 34.05 35.16 38.53 39.62 39.93 39.07 39.04 38.74 38.21 37.74 37.11 36.82 36.79
35.69 35.23 34.48 33.80 33.43 33.00 32.94 32.41 29.31 25.20 23.63 23.58 23.46 22.40 21.81 23.36 24.82 24.73 25.61 25.43 23.15 29.36 27.85 29.72 30.39 31.14 31.28 32.11 35.07 37.86 38.25 38.52 38.24 37.78 37.35 36.97 36.51 36.16
32.87 32.36 30.85 30.87 30.17 28.65 29.40 28.79 27.74 28.14 26.49 23.95 21.55 21.53 21.79 22.81 23.18 23.82 24.62 25.65 26.07 28.63 29.87 28.34 28.25 29.19 31.61 32.80 35.35 35.41 36.44 36.45 36.33 36.56 36.64 35.78 35.16 35.09
29.79 27.97 26.57 27.20 28.47 27.21 25.49 24.38 24.60 25.39 26.07 26.00 23.64 23.22 23.78 24.88 26.06 28.01 28.00 27.66 27.70 28.05 27.96 24.22 27.33 27.05 29.75 29.19 33.44 35.28 35.94 35.93 36.30 36.26 36.00 35.45 35.15 34.70
27.17 27.05 26.58 25.64 28.03 28.03 25.58 24.97 24.80 25.86 28.43 29.22 29.40 29.62 30.71 31.94 31.97 29.30 26.17 25.48 24.19 25.13 25.36 24.96 25.96 26.65 28.25 27.33 28.01 33.86 35.10 35.83 36.26 35.85 35.38 34.82 34.50 34.53
26.04 26.05 27.31 26.20 26.57 27.10 25.91 24.91 23.20 23.48 23.07 24.13 24.78 25.17 27.13 27.88 29.24 29.06 28.60 25.41 25.08 24.00 25.65 23.92 24.11 24.06 25.51 24.90 27.94 29.16 30.03 34.26 33.49 32.23 31.85 32.16 33.18 28.41
24.56 23.96 24.11 25.51 26.34 27.36 27.47 25.25 23.63 22.75 22.67 21.81 21.31 22.22 23.73 23.94 23.88 24.71 25.44 25.89 25.43 25.50 27.85 26.88 24.33 25.17 27.00 25.94 25.64 26.23 24.81 24.04 23.28 26.23 30.21 31.10 31.21 30.29
24.31 24.45 24.43 25.14 26.21 26.73 25.48 24.85 24.12 22.85 20.68 19.57 18.53 19.04 19.13 18.46 20.19 21.82 22.86 24.65 26.24 27.08 30.00 30.75 28.38 27.28 26.20 23.56 22.13 23.91 22.56 22.37 21.31 22.09 23.46 26.91 29.63 30.63
24.43 23.96 24.24 24.65 25.31 25.52 24.32 23.53 22.47 20.63 18.55 16.01 16.02 16.30 17.29 18.79 19.00 20.47 21.94 23.69 24.02 24.77 29.93 31.21 30.78 29.27 27.30 22.68 21.35 21.36 22.65 22.77 21.69 19.68 20.64 23.87 23.33 23.15
23.41 23.63 23.29 23.78 23.64 23.49 22.42 22.05 20.59 19.51 17.37 16.20 14.97 16.01 17.54 16.81 16.15 17.34 17.55 19.13 19.41 20.13 27.70 31.50 31.09 30.27 25.83 25.24 24.19 22.36 22.48 19.07 20.62 19.86 22.43 23.30 24.59 25.32
22.40 21.52 21.62 20.65 19.33 19.23 19.16 18.75 18.12 17.30 15.93 15.62 14.58 14.14 13.76 13.94 13.56 15.09 16.12 16.17 15.93 17.09 18.98 28.47 30.85 30.31 28.82 26.35 22.89 23.48 22.08 21.42 21.66 23.46 23.80 24.25 25.09 24.33
21.46 18.58 16.13 14.13 15.16 16.08 15.68 15.04 15.35 14.78 14.76 14.39 12.94 11.96 11.34 10.72 11.30 12.82 14.16 13.36 13.46 15.00 16.62 24.10 27.66 25.93 26.19 26.57 28.40 24.17 18.69 19.92 17.13 23.87 24.58 22.76 22.70 23.46
17.37 15.97 11.62 10.89 12.26 14.77 14.31 13.39 12.31 13.21 14.14 12.57 10.16 8.91 9.95 9.55 9.67 9.64 9.42 10.91 10.82 13.54 15.25 17.40 27.02 25.85 22.52 19.34 24.37 29.72 23.43 22.34 21.50 21.77 23.46 22.99 21.55 21.90
18.36 15.93 13.33 12.12 12.54 12.54 12.01 11.32 10.94 9.38 8.73 8.61 6.69 4.62 3.75 6.86 8.17 6.62 7.39 6.70 8.96 11.60 13.78 17.09 25.41 26.91 25.06 21.35 17.90 20.91 29.61 21.55 21.86 20.15 17.72 19.95 22.49 26.06
15.28 14.33 12.89 12.93 11.65 11.18 7.18 4.34 -1.62 1.99 2.83 -1.13 -0.62 -0.26 -3.76 6.42 5.34 4.89 5.12 5.05 7.91 11.15 11.18 13.89 17.39 19.59 27.55 24.48 19.28 14.85 16.27 28.12 26.61 22.88 20.96 17.44 17.78 18.72
12.79 13.10 13.07 12.20 9.02 7.41 1.94 -2.14 -0.68 -5.03 -1.88 -2.85 -2.49 -3.76 -3.40 0.04 3.74 3.65 3.90 4.01 7.60 8.82 11.10 14.53 17.73 20.03 24.63 23.24 19.07 10.77 15.11 18.06 25.48 28.90 26.97 25.49 18.93 13.79
8.35 9.95 9.37 5.64 3.51 0.75 3.96 -2.31 -1.58 -5.94 -1.17 0.05 3.11 3.61 -2.03 1.07 4.64 4.98 4.44 6.62 5.66 7.57 10.43 11.81 15.19 20.67 24.38 23.69 20.90 16.37 16.35 16.76 20.67 20.20 19.99 27.61 28.71 28.18

GFSNE_sfc_wetblb_084.txt.gz
Wetbulb
51.47 49.94 49.75 49.76 49.12 48.94 47.45 45.67 45.28 40.40 39.58 40.23 39.38 41.46 41.54 41.14 41.31 40.43 39.81 41.87 43.35 43.79 44.65 45.53 46.55 47.13 47.88 48.29 48.61 48.77 48.15 47.57 46.97 46.55 45.39 44.38 43.52 43.12
51.33 49.92 49.21 48.07 47.92 46.88 46.41 45.61 44.76 43.22 40.11 40.51 39.02 39.92 40.13 39.82 40.29 40.42 38.76 41.99 42.77 42.66 42.70 43.89 44.74 45.59 46.20 46.65 47.02 47.35 47.53 47.61 46.35 45.83 44.92 44.04 43.32 42.91
48.38 48.75 48.10 47.09 46.52 46.21 46.09 45.45 44.28 42.99 39.55 40.13 38.54 38.40 37.47 37.52 38.20 38.47 38.32 38.02 38.26 40.64 41.75 42.02 42.65 43.23 43.72 43.99 44.37 44.97 45.36 45.75 45.57 45.10 44.43 43.40 43.42 42.68
47.18 47.54 46.50 46.41 45.94 45.22 44.68 43.75 43.12 42.14 39.96 37.06 36.89 35.96 36.12 37.18 36.22 35.40 36.70 37.73 36.82 38.37 39.86 40.72 41.30 41.63 41.95 42.01 42.10 42.17 42.50 43.01 43.57 43.35 43.40 41.88 41.83 41.56
47.78 46.73 45.67 45.17 44.01 43.00 42.33 41.77 40.65 40.27 37.72 35.46 35.46 34.57 33.98 33.80 33.76 34.04 34.30 34.80 35.47 38.36 38.87 39.02 39.47 40.24 40.56 40.88 41.27 41.69 41.52 41.29 41.01 41.11 40.28 40.06 40.66 39.77
46.14 45.54 44.79 44.27 43.35 42.07 40.81 39.57 38.25 36.21 34.19 32.85 31.66 31.20 31.44 32.11 30.80 29.87 29.41 31.21 31.04 33.95 35.94 36.41 37.15 37.90 38.87 39.09 39.84 40.74 41.21 41.17 40.62 39.81 38.85 37.99 37.80 38.68
43.93 42.62 40.37 39.76 38.93 39.47 37.35 33.19 32.15 30.50 28.86 27.74 27.03 27.29 26.89 27.02 27.05 27.88 26.64 27.55 29.05 30.66 30.98 31.88 32.84 33.80 34.80 36.31 36.89 38.18 38.65 39.57 39.90 39.47 38.78 37.98 37.18 37.50
36.55 35.27 34.97 34.55 33.68 33.72 33.14 31.77 30.63 28.57 26.02 25.69 24.92 23.80 23.16 24.52 25.63 25.24 25.34 24.78 23.90 29.98 29.39 29.26 31.95 31.81 33.04 34.15 34.84 35.67 36.53 37.38 38.04 38.76 38.57 37.89 37.37 36.94
33.50 31.89 31.47 31.66 31.22 30.26 29.77 29.08 28.13 28.57 26.77 25.23 23.11 23.51 23.81 24.98 25.26 24.68 24.59 24.85 24.63 28.30 28.81 26.48 30.53 29.28 31.74 32.36 34.39 35.30 36.25 36.82 37.21 37.56 37.74 37.05 36.42 35.80
31.39 30.16 29.92 29.01 29.01 28.00 26.12 25.73 26.18 26.82 27.29 27.30 25.84 25.78 25.91 26.81 26.74 27.72 28.41 28.68 28.53 29.16 29.41 24.91 28.83 27.67 30.10 30.91 32.93 34.14 34.85 35.86 36.46 36.58 36.12 35.82 35.65 35.03
28.51 28.57 28.25 27.40 28.49 28.34 26.09 25.75 25.56 26.04 27.41 27.31 27.42 28.05 28.00 28.39 29.02 28.34 26.23 25.42 24.20 25.76 28.66 26.87 27.53 27.30 29.15 29.56 31.22 32.54 33.60 35.13 35.91 35.40 36.16 36.30 35.50 34.88
26.70 26.95 27.56 26.66 26.91 27.40 26.80 25.59 23.50 23.68 23.22 23.12 23.41 23.84 24.75 26.36 26.40 25.59 24.09 21.89 22.58 22.91 27.28 25.59 26.61 27.33 25.94 28.21 28.19 29.78 30.91 32.63 35.05 34.64 35.05 35.08 33.86 32.99
25.14 24.44 24.92 25.70 26.43 27.27 27.51 25.79 23.83 23.21 22.01 21.36 21.01 20.99 22.10 22.59 21.54 22.22 22.59 22.43 20.54 21.44 26.33 26.32 26.18 27.27 27.30 26.48 27.89 28.22 29.78 30.89 31.81 32.64 32.16 31.66 31.81 31.84
24.96 24.59 24.69 25.30 26.11 26.67 25.79 24.66 23.72 21.95 20.74 19.31 18.18 18.35 18.36 18.53 19.89 20.29 20.65 22.07 23.34 22.98 25.12 25.65 23.01 26.12 27.04 26.23 24.61 27.42 27.05 27.19 27.74 28.11 28.20 28.41 29.68 30.60
24.84 24.18 24.26 24.49 25.10 25.60 24.26 23.44 21.78 20.28 18.62 16.72 16.36 16.38 16.91 18.40 19.14 19.07 19.60 19.95 21.65 23.03 23.80 24.40 23.85 25.18 28.04 27.39 26.34 25.93 25.70 26.90 26.68 27.28 27.31 27.60 28.18 28.24
23.75 23.96 23.21 24.15 23.78 23.70 22.55 22.21 20.54 19.23 17.35 16.33 15.83 16.10 17.07 16.03 15.71 16.15 15.20 15.83 15.92 16.97 21.16 23.29 23.64 23.61 27.64 28.96 27.80 25.55 25.82 25.68 26.48 25.76 26.42 27.22 27.75 27.94
22.98 22.33 22.43 21.61 20.34 19.69 19.47 19.03 18.24 17.40 15.74 16.03 14.81 14.17 13.33 13.26 12.68 13.75 13.68 13.26 12.01 12.90 14.46 18.41 21.34 22.12 24.73 29.74 26.40 26.87 26.18 25.20 26.29 26.41 25.72 25.79 27.62 28.84
21.85 19.41 17.62 15.78 16.05 16.66 16.42 16.05 15.79 14.95 14.36 13.95 13.64 12.37 10.52 10.11 10.15 10.63 12.21 9.95 9.24 10.51 12.18 14.95 16.37 17.59 26.70 29.08 30.71 26.88 26.17 25.85 24.95 26.37 26.24 25.05 25.48 28.32
19.23 18.07 14.97 13.85 14.01 15.41 15.05 13.71 12.25 13.05 13.36 12.04 11.29 9.29 8.88 9.01 7.95 8.38 8.50 7.81 7.22 8.35 9.96 13.55 14.78 16.66 16.19 21.36 26.52 30.58 26.31 24.90 25.81 24.62 26.03 25.46 25.54 27.06
18.15 16.21 13.66 13.08 12.96 13.20 12.56 11.60 11.17 10.05 8.85 9.57 8.02 6.16 3.96 5.31 5.90 6.55 6.65 5.17 5.61 6.88 8.15 12.44 13.93 15.94 14.30 16.90 22.68 26.02 30.01 26.62 25.44 24.59 23.85 25.03 26.04 26.39
14.60 14.38 13.59 13.05 12.39 11.57 10.16 8.09 3.47 1.90 3.11 1.43 1.65 0.72 0.58 3.13 4.67 5.31 4.94 3.87 3.82 5.88 7.16 8.21 12.34 16.76 17.87 19.89 22.67 22.85 24.31 29.19 27.46 26.54 23.95 23.60 23.59 23.15
10.65 11.25 11.27 10.66 9.43 8.65 5.10 0.18 -1.08 -0.71 1.20 1.56 2.08 -0.93 -0.61 1.15 3.24 3.02 3.71 3.53 4.44 6.15 6.77 9.63 13.14 15.66 16.22 16.34 22.45 20.27 22.70 22.75 27.58 28.33 27.10 26.90 24.19 21.19
6.78 6.25 5.81 4.63 4.56 4.24 4.73 2.84 0.10 -3.80 -0.56 0.35 0.78 2.84 1.29 0.40 2.88 4.45 5.15 5.08 5.22 5.36 5.46 7.39 10.96 13.26 15.01 17.71 23.64 21.07 19.06 20.07 24.11 24.62 26.14 27.22 28.11 28.12

GFSNE_sfc_wetblb_087.txt.gz
Wetbulb
54.83 54.09 53.06 52.75 52.73 52.94 51.42 50.58 50.76 42.69 43.88 46.23 47.77 48.29 47.47 44.34 45.51 45.21 47.52 44.51 43.41 44.16 44.59 45.55 46.99 47.60 47.98 48.29 48.68 48.69 48.90 49.14 48.92 49.17 48.41 47.78 47.54 47.38
54.97 52.77 52.73 51.67 50.89 50.47 50.50 49.94 50.16 47.75 44.81 46.89 46.19 43.27 43.69 43.46 44.64 44.51 44.30 43.19 42.77 42.24 42.54 43.14 44.11 45.51 46.31 46.83 47.39 47.78 48.14 48.20 48.29 48.37 47.99 46.81 46.90 46.86
52.72 51.97 52.24 52.38 50.48 49.06 49.33 47.76 47.60 48.12 46.49 44.23 42.04 41.91 41.51 41.44 42.20 43.78 44.87 44.95 45.57 41.04 40.43 41.13 41.75 42.25 42.92 43.41 43.71 44.62 45.30 46.07 46.53 47.23 47.15 46.68 46.08 46.19
52.62 52.49 52.16 50.08 48.97 47.73 47.26 46.63 46.31 45.40 42.18 41.20 40.61 38.65 39.21 41.19 43.48 42.76 42.48 42.59 43.36 41.47 39.67 39.96 40.50 40.72 41.01 41.22 41.39 41.94 42.10 42.39 42.70 43.57 44.42 45.64 45.23 44.85
51.99 50.79 50.07 47.87 46.94 45.85 45.26 44.84 43.62 43.15 43.83 39.36 38.03 38.47 40.47 41.20 40.05 40.53 41.05 41.08 39.86 38.75 37.85 38.14 38.81 39.54 39.99 39.74 39.30 39.63 39.96 40.04 40.36 40.90 41.55 41.90 42.97 43.73
49.83 49.36 48.05 46.90 45.57 44.52 43.60 43.47 42.41 41.11 38.85 37.08 37.84 38.70 39.24 38.21 38.24 36.76 36.87 37.18 35.03 35.78 36.08 35.63 35.98 36.55 37.19 38.19 38.64 38.28 38.40 38.74 39.38 40.37 40.20 39.54 39.47 40.45
46.52 44.87 44.41 44.18 42.71 42.28 42.42 39.33 38.77 35.03 33.30 32.89 34.55 33.85 34.18 35.65 34.70 35.41 32.29 33.29 34.20 34.80 34.66 35.63 36.23 37.05 37.22 36.91 36.89 36.82 37.01 36.71 37.11 37.44 38.55 38.87 38.77 38.61
37.21 36.54 35.99 35.23 34.19 33.99 33.34 32.76 34.02 33.14 32.81 33.03 33.38 33.27 33.98 31.72 32.46 31.31 30.64 29.96 28.78 35.95 33.45 32.91 35.14 34.02 35.82 37.24 36.47 35.95 35.97 35.69 36.41 36.65 37.29 37.61 38.72 38.03
34.75 33.71 32.95 32.17 31.78 30.33 29.75 29.61 29.55 29.11 28.83 31.34 30.92 29.81 29.55 30.99 30.87 29.74 29.55 29.87 29.90 33.14 32.47 29.98 33.84 32.36 35.66 36.24 35.46 35.03 35.19 35.48 35.84 35.98 36.44 36.86 36.83 37.13
32.42 31.86 30.62 29.68 30.22 29.14 27.97 27.60 28.56 29.24 29.66 30.28 31.28 30.96 30.59 31.27 30.92 30.86 30.72 31.07 31.90 32.45 33.12 28.09 32.67 32.13 34.86 36.15 35.14 34.37 34.62 34.96 34.96 35.44 35.89 36.33 36.42 36.72
30.28 30.24 29.98 28.70 29.36 28.97 27.84 27.85 27.99 28.96 28.22 27.33 27.06 26.62 26.64 27.02 28.45 29.17 27.67 26.96 26.51 28.72 31.51 29.97 30.91 31.09 32.60 33.40 35.50 34.80 34.62 33.77 33.76 34.36 35.33 36.12 35.96 35.50
27.45 27.37 28.10 27.45 27.59 27.94 28.46 28.57 26.78 27.35 26.78 26.19 26.94 26.21 25.79 26.59 25.62 26.75 26.00 23.64 24.26 24.79 31.86 28.50 29.85 30.19 27.03 32.93 34.26 34.76 35.11 34.30 33.48 33.86 35.52 35.74 36.16 36.37
25.52 25.36 26.20 26.54 27.38 27.90 27.93 28.39 26.51 26.36 23.96 23.96 23.86 24.21 24.35 24.37 24.20 24.32 24.24 23.22 22.54 23.25 27.84 26.39 26.46 26.41 25.35 26.68 30.89 33.28 34.58 35.03 34.82 34.78 34.47 34.36 35.11 34.89
27.04 26.73 26.38 25.96 26.65 27.51 26.87 25.72 23.93 23.92 24.85 23.45 22.18 21.59 21.45 21.19 22.27 23.02 22.84 22.89 23.64 22.75 24.55 24.00 22.98 23.88 23.32 23.37 24.98 31.07 33.87 35.07 35.02 34.54 35.14 33.30 31.58 31.82
26.37 25.18 24.58 24.96 25.40 26.37 24.61 24.43 22.81 24.33 22.82 21.31 20.67 20.55 20.57 20.92 21.31 20.86 21.55 21.18 21.30 21.53 22.32 23.38 23.30 24.12 24.37 23.72 23.69 27.67 30.20 32.79 34.24 33.87 33.51 32.92 32.82 33.43
25.66 25.71 24.62 24.96 25.06 25.99 25.08 24.73 24.68 23.20 20.99 19.76 19.68 19.84 19.87 19.38 18.05 18.76 17.27 17.74 17.79 19.18 22.59 23.35 23.53 24.19 22.29 23.53 24.89 27.85 31.09 29.10 33.09 32.87 32.92 33.37 33.33 33.30
25.82 25.97 25.23 24.15 23.63 23.35 23.23 22.39 22.17 21.02 19.55 19.52 18.59 18.22 18.22 18.02 17.09 18.15 17.33 16.88 16.06 16.63 17.61 20.64 22.64 23.00 23.42 23.02 23.45 25.73 31.17 30.45 32.88 32.05 31.04 29.90 31.74 32.74
24.37 22.86 22.18 21.88 20.78 20.22 19.85 19.47 19.65 17.98 17.90 17.11 16.69 16.09 15.51 14.78 14.51 15.28 15.72 15.33 14.42 14.81 15.41 17.49 18.15 18.83 21.60 25.53 28.37 27.22 31.09 31.24 32.86 31.43 31.25 29.60 29.61 32.74
21.43 20.91 20.32 19.41 18.52 18.32 17.88 17.01 16.01 16.49 15.71 15.03 14.54 14.18 13.51 13.06 12.33 12.86 13.42 13.51 12.99 13.54 14.63 16.11 15.98 16.62 15.09 16.80 24.21 29.82 30.31 30.75 30.34 29.71 30.94 30.48 29.61 31.18
19.13 17.75 16.96 17.18 17.01 16.21 15.49 14.54 14.09 13.86 13.21 12.76 12.63 12.24 11.46 11.04 10.42 10.70 11.69 10.86 11.25 11.95 12.24 15.04 16.10 15.93 14.37 14.50 15.76 20.59 22.79 30.60 29.78 29.57 29.89 31.41 31.62 26.99
14.67 14.74 14.73 14.02 13.47 13.15 12.85 12.47 11.42 10.68 9.94 9.67 9.95 9.67 9.70 9.74 9.22 9.62 10.00 8.67 8.84 10.21 10.41 12.12 15.38 15.23 16.42 18.19 16.79 19.78 25.23 30.73 31.95 31.36 30.71 29.33 28.11 28.16
11.45 11.01 11.28 11.07 10.58 10.49 10.21 9.94 9.40 8.77 8.67 8.38 8.45 8.42 9.01 9.27 8.27 8.31 8.99 8.91 9.56 10.14 10.47 13.40 15.25 15.93 15.96 14.92 15.33 18.35 24.48 30.23 29.87 29.25 29.89 29.88 28.78 24.66
8.16 8.30 8.20 8.20 8.52 8.50 8.22 7.72 6.89 6.61 6.75 6.72 6.96 7.44 7.73 6.79 8.14 8.73 9.32 9.37 9.37 9.50 10.07 10.36 12.92 14.46 14.38 14.18 14.50 16.65 24.96 27.92 28.68 26.96 29.69 27.18 27.94 27.48

GFSNE_sfc_wetblb_090.txt.gz
Wetbulb
62.21 62.62 61.78 61.48 61.18 58.53 53.62 54.60 50.94 46.77 47.77 50.62 50.70 53.18 54.12 53.62 51.21 51.41 49.35 47.03 45.16 44.86 45.09 46.32 47.60 48.21 48.48 48.69 48.60 48.22 48.15 48.19 48.62 49.10 49.79 49.85 49.91 49.62
60.63 59.46 58.56 58.59 57.85 55.47 53.33 54.06 51.99 50.09 47.89 50.46 48.96 50.77 52.41 51.61 49.48 48.72 49.23 46.63 43.97 43.03 43.30 43.48 44.15 45.11 45.75 46.29 46.72 46.96 47.10 47.06 47.30 47.54 48.08 48.20 48.38 48.11
57.79 56.40 55.93 55.83 54.29 53.63 53.28 53.18 50.95 50.64 48.39 47.51 49.55 46.17 47.68 48.37 44.09 45.27 45.88 45.90 46.56 42.56 41.87 41.51 41.53 42.12 42.75 43.10 43.42 44.03 44.42 44.56 44.81 45.15 45.71 46.42 47.22 47.67
56.50 56.42 55.20 54.31 53.10 53.32 53.67 52.63 50.05 49.44 47.76 46.81 43.32 41.49 42.09 43.86 44.29 43.03 43.60 44.75 46.85 44.80 41.48 40.51 40.56 40.72 40.68 40.73 40.89 41.29 41.61 42.12 42.13 42.20 42.33 42.81 43.68 44.81
57.62 56.35 54.76 53.84 52.19 53.22 52.65 50.25 50.60 46.29 44.05 43.00 41.32 43.80 42.32 41.69 41.54 42.92 43.56 46.81 46.12 43.87 38.64 38.47 38.50 38.89 38.96 39.22 39.86 40.16 39.30 39.13 39.28 39.71 40.09 40.40 41.31 41.97
56.52 54.83 53.57 52.94 51.78 49.86 47.20 45.83 44.50 43.30 43.14 41.81 41.15 39.00 39.22 40.03 40.38 41.15 41.83 44.71 43.89 43.70 40.58 37.46 37.39 37.93 37.99 38.05 37.91 38.44 38.92 39.04 38.61 38.23 37.98 37.93 38.88 40.32
50.30 48.00 46.01 47.13 44.47 44.68 45.04 45.82 43.20 40.44 39.22 38.15 36.41 35.52 35.02 37.55 38.36 42.01 41.33 41.04 41.20 40.45 38.97 38.09 38.47 38.72 39.22 38.63 38.14 38.53 38.14 38.03 37.82 37.31 36.90 36.71 36.39 38.16
38.90 37.57 36.01 36.07 35.03 34.20 34.13 33.13 35.02 34.89 34.54 33.86 34.45 34.84 37.55 38.88 39.59 38.11 36.75 34.92 33.15 39.59 36.88 36.69 37.74 35.92 36.77 37.54 37.33 37.41 36.86 36.71 36.65 36.47 36.58 36.28 36.41 36.55
35.55 34.60 33.83 32.92 32.07 30.91 30.94 30.61 30.28 29.96 28.80 34.11 33.62 34.42 34.97 35.74 35.50 34.39 33.97 33.14 32.76 35.99 35.59 33.99 37.15 35.18 36.93 36.96 36.72 36.69 36.47 36.08 35.98 36.07 35.86 35.56 35.40 35.74
32.67 32.30 31.67 30.97 31.07 30.70 29.63 28.86 29.34 30.09 30.27 31.04 32.27 33.74 34.12 34.04 33.72 33.06 32.82 32.68 33.68 34.62 35.73 31.54 35.16 34.59 36.81 37.45 36.96 36.85 36.10 35.73 35.71 35.58 35.43 35.45 35.07 35.28
30.80 30.76 30.35 29.71 29.47 30.30 29.28 29.33 29.69 29.49 28.39 27.53 27.14 26.49 26.51 26.54 27.45 29.45 29.28 29.15 28.82 30.76 34.21 31.51 32.07 32.11 34.19 35.48 36.90 36.14 35.95 35.73 35.15 34.84 34.97 34.94 35.29 35.62
27.17 27.44 28.05 27.75 28.30 28.89 29.37 29.44 28.15 29.72 29.71 29.10 30.03 28.83 28.02 29.88 26.46 28.24 29.01 25.98 25.86 26.05 32.04 29.86 30.54 29.87 27.10 33.26 35.42 36.77 36.13 34.98 34.65 35.44 34.81 34.48 35.50 36.85
27.09 26.69 26.78 27.34 27.78 28.32 28.21 29.76 28.71 29.19 27.08 28.15 28.73 28.75 28.99 28.89 28.77 28.73 28.26 26.91 24.96 25.09 29.45 27.96 26.87 27.32 26.34 27.09 30.24 32.75 33.71 34.21 37.02 36.82 35.41 34.84 35.29 35.72
28.37 29.67 28.43 26.59 26.43 26.84 27.79 26.61 24.48 25.33 28.58 27.83 27.15 26.57 26.44 26.56 27.18 27.18 27.03 26.76 26.67 24.78 26.41 25.42 23.05 23.71 23.54 23.64 24.98 29.65 31.45 33.91 36.69 35.59 36.21 35.66 34.41 34.33
29.18 26.13 25.14 25.41 25.58 27.26 25.24 24.96 24.01 27.21 26.13 25.12 24.62 24.71 25.35 25.70 25.42 24.88 25.29 25.21 25.15 24.68 24.33 24.56 23.56 23.97 24.11 23.22 24.15 26.70 27.36 30.25 34.27 36.07 35.85 34.87 34.00 34.97
27.63 28.12 26.81 26.23 25.76 26.11 26.31 26.91 27.35 25.68 23.66 23.03 23.03 23.39 23.63 23.08 22.54 23.23 21.57 21.83 21.70 22.65 25.60 26.55 25.76 24.65 22.91 24.36 25.09 24.95 27.60 27.45 31.86 34.56 35.13 34.93 34.99 35.39
28.06 28.40 27.06 26.17 25.52 25.42 25.18 25.36 24.64 24.01 21.81 22.81 21.14 20.35 20.10 20.16 20.20 20.87 19.85 19.31 17.97 19.29 20.86 23.85 25.03 24.96 24.29 23.29 21.47 23.81 25.20 26.88 31.31 31.89 33.70 32.58 33.30 34.42
26.61 25.10 24.12 24.31 22.77 22.17 21.87 22.00 21.76 20.99 20.84 18.89 18.45 18.17 17.17 17.43 16.72 17.16 17.13 16.59 16.20 17.04 17.93 20.24 20.96 20.67 21.35 23.64 25.85 24.01 26.63 28.32 31.40 31.29 33.39 30.89 30.49 33.32
23.21 21.84 21.50 20.31 19.96 20.11 19.90 18.65 17.45 17.82 17.89 16.66 15.82 15.58 15.21 14.96 14.69 14.15 14.89 15.02 14.91 15.55 16.90 18.32 18.04 17.24 15.61 15.83 23.05 26.53 24.06 25.85 23.12 29.84 32.48 31.42 30.47 32.02
20.20 19.13 17.94 17.92 17.35 16.75 16.43 15.70 15.49 15.20 14.80 14.30 13.45 13.25 13.34 12.80 11.83 12.13 12.97 12.80 12.94 13.49 13.96 16.23 16.82 16.81 15.24 14.72 16.07 20.21 21.74 22.21 22.71 25.48 31.14 32.08 32.31 27.83
16.76 16.70 16.86 16.22 15.62 15.25 14.63 14.03 13.57 12.99 12.59 12.01 12.18 11.84 12.06 11.40 10.81 11.36 11.93 11.13 11.48 12.16 11.87 13.44 16.16 17.74 18.44 19.42 16.28 19.03 24.33 25.89 26.30 25.63 31.61 30.30 29.44 29.93
14.70 14.43 14.59 14.29 13.56 13.34 13.29 12.87 12.49 12.04 11.81 11.21 10.86 11.01 11.24 11.17 10.16 10.61 10.95 10.70 11.16 12.07 12.31 14.55 16.65 16.79 16.04 14.90 14.58 17.32 20.02 22.97 25.01 29.58 31.08 31.11 30.57 26.88
12.70 12.68 12.81 12.89 12.92 12.81 12.49 11.95 10.90 10.49 10.23 9.90 9.99 10.48 10.24 9.36 10.73 11.47 11.28 11.47 11.46 11.60 12.15 12.15 14.30 15.53 15.01 15.14 15.69 16.66 16.70 18.54 21.47 28.95 28.89 28.36 28.26 28.19

GFSNE_sfc_wetblb_093.txt.gz
Wetbulb
62.80 63.03 61.84 61.66 61.50 62.56 62.00 58.82 55.49 50.77 51.07 52.26 53.19 53.50 53.48 53.24 52.88 51.89 50.31 48.85 45.87 45.78 46.27 47.39 48.73 49.49 49.43 49.33 49.29 49.05 48.69 48.48 48.53 48.59 49.03 49.31 49.75 50.27
62.56 62.00 61.95 61.40 60.90 60.96 59.12 57.91 55.92 52.83 49.79 54.62 51.31 52.63 52.47 53.70 53.43 51.66 50.78 50.10 45.69 44.76 44.59 45.08 45.94 47.06 47.37 47.46 47.56 47.90 47.64 47.32 47.42 47.66 47.92 47.93 48.24 48.56
62.03 61.01 60.55 58.64 56.77 56.71 57.40 56.36 54.05 53.35 50.19 51.80 52.03 53.25 49.22 50.43 46.36 48.91 49.46 51.07 48.31 43.40 42.81 43.08 43.16 43.63 43.93 43.88 44.16 44.70 45.07 45.36 45.38 45.52 45.93 46.57 47.18 47.59
60.76 59.68 56.37 55.72 57.51 57.62 55.66 53.65 52.85 52.23 50.92 49.12 50.91 45.26 48.72 44.53 43.85 43.86 45.89 47.35 47.74 44.57 42.83 42.40 42.17 41.62 41.39 41.28 41.39 41.61 41.98 42.18 42.47 42.73 42.70 43.10 43.94 44.61
59.06 55.83 54.93 55.43 56.34 55.43 53.97 52.92 51.75 51.47 51.40 49.61 44.96 43.01 42.09 42.86 42.95 43.65 43.18 43.67 44.60 45.64 42.57 41.01 40.61 40.58 40.41 40.07 39.89 39.77 39.61 39.74 39.89 39.70 39.24 39.60 39.43 39.58
58.26 56.59 56.07 56.38 55.61 54.95 52.74 52.24 49.71 46.87 44.68 43.58 41.46 39.63 39.91 41.01 40.13 39.42 39.58 41.29 41.65 45.83 45.04 41.91 40.24 40.11 39.76 39.39 38.93 38.86 39.16 38.87 38.17 38.21 38.46 37.78 37.72 38.23
45.26 41.85 39.53 39.21 38.30 38.88 45.41 44.72 43.81 42.74 39.85 38.78 36.15 35.86 35.39 35.87 35.51 37.99 37.88 39.88 42.21 43.87 43.05 43.14 42.03 41.23 40.71 39.14 38.34 39.15 38.22 38.05 38.31 38.31 38.32 37.48 36.77 37.05
37.60 35.66 35.07 34.37 34.00 33.97 33.92 33.42 33.57 35.91 35.06 34.29 34.49 34.02 34.67 36.26 37.32 35.78 34.83 33.20 32.33 41.43 38.59 38.05 40.23 38.55 38.76 38.99 38.20 37.59 37.43 38.30 38.29 37.99 37.39 36.80 36.56 36.43
34.76 33.78 32.76 32.71 33.29 32.72 32.10 31.90 31.63 31.85 29.99 31.82 31.44 31.68 31.36 32.50 31.94 32.00 32.55 32.19 33.15 36.56 36.11 33.98 37.75 36.10 38.75 38.43 37.73 37.61 37.33 37.23 36.96 36.63 36.23 35.97 35.72 35.54
32.45 32.44 31.06 30.27 31.45 31.56 31.37 30.54 29.99 30.25 30.96 32.91 32.57 32.98 33.07 33.11 33.35 32.91 32.19 32.36 33.08 33.86 34.56 29.30 33.95 33.20 37.09 38.64 38.55 38.33 37.77 36.96 36.50 36.18 35.93 35.85 35.51 35.05
29.71 30.09 29.44 28.74 30.56 32.29 30.59 29.97 30.64 29.27 28.83 28.11 28.15 27.57 27.46 27.24 27.31 27.17 26.44 27.30 27.99 29.97 33.84 32.15 32.88 32.61 34.31 35.02 36.39 37.40 37.30 36.90 36.56 36.23 36.05 35.65 35.20 35.15
27.90 28.03 29.14 28.68 29.14 29.91 30.22 29.77 28.81 30.19 30.59 31.14 31.68 30.17 28.98 31.17 27.96 27.76 27.32 26.00 26.10 25.97 31.01 28.90 27.91 29.28 27.47 32.67 33.51 34.95 35.31 34.84 35.27 35.59 35.55 35.54 35.67 35.37
27.80 27.09 27.50 28.27 28.51 28.47 27.90 30.19 27.85 27.86 29.06 29.66 29.56 30.20 30.78 31.00 30.80 30.54 29.57 27.52 25.29 24.58 28.61 26.65 25.56 25.28 25.81 26.05 29.40 31.40 32.64 33.26 33.91 34.16 34.56 35.77 35.95 35.45
29.87 29.86 27.82 26.59 27.05 27.97 28.57 26.36 25.60 26.52 29.02 27.94 27.22 27.11 27.66 27.90 28.62 28.17 27.78 27.15 27.52 25.69 27.03 26.63 23.43 22.66 21.93 21.81 22.30 27.52 29.75 31.41 32.67 32.84 33.84 35.38 35.42 35.67
28.59 26.47 26.16 26.45 27.35 26.80 25.67 25.36 26.03 28.06 26.16 24.60 23.96 24.53 25.32 25.82 25.70 25.89 26.61 26.77 26.31 26.44 26.50 26.83 25.52 24.29 23.45 21.67 21.91 24.19 25.31 27.97 30.62 31.31 32.25 33.21 33.99 35.12
28.44 29.06 27.47 26.93 26.93 27.59 27.93 27.33 27.44 26.33 23.86 23.11 22.34 22.49 23.41 22.72 22.35 23.03 21.99 22.23 21.46 21.70 24.32 26.07 25.84 25.06 23.57 23.20 23.01 22.53 24.80 23.62 28.42 29.76 31.27 32.45 34.00 35.54
29.07 29.29 27.78 26.32 25.51 25.27 25.49 25.01 24.77 23.70 22.23 21.27 19.84 18.97 18.92 19.15 19.23 20.55 19.64 19.12 17.37 17.48 18.93 22.02 23.87 24.12 23.85 22.49 20.40 21.90 22.48 23.86 26.66 27.97 28.46 27.91 29.51 34.68
27.27 25.10 24.18 23.29 22.05 22.14 21.54 21.02 21.39 20.20 19.50 18.53 17.96 17.30 16.26 15.88 15.95 16.77 16.93 16.40 15.46 16.09 17.07 18.50 19.36 19.08 19.94 21.49 23.76 21.62 23.26 23.70 27.02 28.20 28.43 26.05 27.00 33.19
23.10 22.32 21.24 20.53 19.91 19.85 19.13 18.76 17.62 17.93 17.59 16.84 15.81 14.78 14.69 14.38 14.42 14.12 14.43 14.63 14.22 14.90 15.48 16.45 16.16 15.24 13.36 12.61 20.30 23.79 19.05 19.65 20.39 21.13 24.53 24.51 22.60 32.44
20.30 19.45 18.66 18.70 18.15 17.45 17.31 16.24 15.75 15.63 15.24 14.64 14.04 14.01 13.81 13.16 12.30 12.13 12.41 12.60 12.42 13.14 13.56 15.25 15.67 15.86 14.05 12.53 13.16 17.60 21.54 19.48 19.94 20.48 21.95 25.12 27.95 30.32
17.96 17.62 17.60 16.81 16.39 16.00 15.49 15.16 14.69 14.31 14.13 13.61 13.22 13.06 12.96 12.09 11.21 11.69 11.99 11.48 11.95 12.20 11.52 12.74 15.43 17.62 18.35 18.61 14.54 15.86 20.27 23.16 23.21 22.72 22.76 21.55 25.08 28.80
16.13 15.98 16.14 15.86 15.16 14.94 14.72 14.47 14.05 13.61 12.90 12.49 12.03 11.96 12.37 12.12 10.75 10.86 11.71 11.41 11.67 12.37 12.80 15.06 16.71 17.01 16.05 14.49 13.05 14.60 17.51 21.15 23.73 23.65 24.15 24.10 25.95 26.22
14.51 14.59 14.55 14.66 14.66 14.20 13.76 12.76 11.88 11.59 11.41 11.24 11.29 11.32 11.33 10.13 11.32 11.65 12.23 12.23 12.04 12.11 12.46 13.07 14.81 15.24 14.17 14.43 13.99 15.10 16.15 17.82 19.08 19.78 24.02 29.51 29.49 29.62

GFSNE_sfc_wetblb_096.txt.gz
Wetbulb
58.66 58.19 57.97 58.72 58.75 58.64 57.38 56.41 53.70 49.84 50.58 52.57 51.14 54.45 55.03 54.54 54.00 54.17 53.18 50.67 47.21 47.22 47.35 48.17 49.23 49.99 50.32 50.72 51.22 51.81 52.28 52.25 51.95 51.71 51.35 50.96 50.97 51.06
58.59 58.16 58.18 58.38 58.44 58.95 58.95 57.45 55.41 54.17 50.66 53.73 53.14 54.29 53.68 54.01 53.32 52.62 52.99 49.90 46.34 45.22 44.82 45.78 46.86 48.05 48.66 48.96 49.09 49.17 49.15 49.39 49.05 48.84 48.49 48.37 48.65 48.78
57.75 57.41 57.90 58.49 58.33 58.29 55.61 54.71 54.68 54.25 51.69 53.22 53.87 53.13 52.49 51.56 51.84 52.42 52.15 50.78 48.88 45.16 43.99 44.49 44.70 45.36 45.83 45.87 46.01 46.56 47.01 47.23 47.45 47.29 47.04 47.36 47.76 48.10
57.31 57.44 57.54 58.06 57.18 55.67 54.56 54.19 54.25 54.74 52.80 50.85 52.67 48.69 50.22 48.09 48.11 45.51 46.44 48.20 47.53 45.58 44.06 43.99 43.68 43.27 43.31 43.01 42.74 42.65 42.87 43.20 43.71 44.15 44.57 44.90 45.38 46.06
57.48 56.83 57.22 55.93 54.55 54.58 54.29 54.57 54.72 53.31 53.07 51.30 50.42 42.92 42.55 42.88 42.68 43.61 44.02 44.29 45.54 45.45 43.38 42.30 42.36 42.46 42.18 41.63 41.34 41.11 40.66 40.39 40.17 40.02 40.21 40.73 41.41 41.42
56.46 49.98 44.53 42.87 43.21 47.22 52.82 52.18 51.21 50.60 48.25 46.62 41.42 39.43 39.56 40.01 39.78 38.81 39.01 41.21 41.16 44.28 44.93 42.40 41.78 41.97 41.78 41.11 40.47 39.83 39.33 39.09 38.84 38.60 38.49 37.82 37.51 38.36
39.47 37.62 37.00 37.69 36.72 36.32 40.30 37.81 41.52 40.67 39.42 37.74 35.24 35.61 35.25 35.54 35.22 36.79 35.57 35.94 37.17 40.08 38.59 38.99 39.57 39.38 39.21 39.94 39.64 39.85 39.10 38.90 38.59 38.46 38.32 37.67 37.92 37.96
35.30 34.49 34.37 34.50 33.92 33.98 34.01 33.49 33.41 34.23 33.13 33.37 32.28 31.74 30.88 31.83 31.89 31.68 31.89 31.86 31.06 38.13 34.11 33.43 36.62 35.29 36.87 36.35 38.35 38.31 38.56 38.50 38.99 39.00 38.71 38.22 37.79 37.16
33.44 32.50 32.15 32.80 32.89 32.59 32.39 32.54 32.56 32.80 31.15 32.34 30.55 30.35 30.71 31.09 32.01 31.23 31.41 31.23 31.02 34.07 33.32 30.86 33.04 32.05 34.80 36.62 37.25 37.74 38.31 38.16 37.94 37.33 37.39 37.14 36.39 35.96
30.90 30.90 30.78 31.30 32.25 32.28 31.81 30.78 29.72 29.96 30.16 31.08 30.58 30.39 30.42 30.46 30.23 28.92 27.22 27.58 28.46 29.99 31.59 26.47 30.14 29.53 31.93 33.66 36.42 37.45 37.36 37.31 37.82 37.56 37.19 36.37 35.73 35.47
30.29 29.78 29.48 29.57 31.73 32.93 30.98 30.31 30.20 29.29 30.13 29.38 29.05 28.69 28.59 28.32 28.29 27.09 26.01 25.13 23.26 25.13 28.63 27.39 27.86 28.32 28.49 28.70 31.82 35.77 36.24 35.67 34.72 35.36 36.70 36.58 36.30 35.83
28.25 28.84 29.74 29.16 29.22 29.82 30.16 28.98 26.95 25.75 28.31 28.49 28.85 29.98 29.89 29.68 28.94 26.26 26.29 23.71 23.26 21.37 25.06 23.28 23.86 24.06 21.46 25.44 26.15 27.26 28.75 30.98 32.80 33.27 34.22 35.03 35.13 33.58
27.44 26.49 26.81 28.32 28.97 29.49 27.56 25.26 24.59 25.46 27.75 26.88 26.43 26.46 27.14 27.03 26.72 26.15 25.63 23.87 21.22 20.45 24.65 23.47 21.85 21.15 20.92 20.34 22.06 23.79 24.78 25.77 27.05 29.30 32.07 33.43 34.00 34.30
27.33 27.02 27.17 28.71 28.28 27.64 26.24 27.03 27.67 27.48 24.96 23.25 22.57 22.58 21.80 21.50 21.96 22.75 23.46 23.34 23.86 23.30 24.44 24.01 21.46 21.34 20.39 18.89 17.73 21.61 22.40 24.27 25.75 26.42 27.46 29.78 32.25 33.10
27.34 27.50 28.05 29.10 27.98 27.03 27.23 27.26 25.92 23.18 20.99 19.66 18.98 18.37 18.86 19.93 20.68 20.76 21.49 21.23 21.05 21.31 22.38 21.37 19.80 19.99 19.85 18.95 18.90 20.62 21.13 22.02 24.30 25.44 25.71 26.68 28.00 29.67
28.20 27.85 26.84 27.33 26.81 26.07 24.93 24.72 23.13 21.20 19.70 17.32 16.23 16.94 18.17 17.72 16.54 17.57 15.73 16.05 14.84 15.42 19.75 20.56 20.44 20.02 18.00 18.94 19.21 18.16 19.14 17.25 20.90 22.28 23.57 24.52 26.15 27.79
27.77 25.76 23.62 22.79 21.97 21.49 21.01 20.21 19.69 18.70 16.28 15.47 14.52 14.57 14.60 14.63 14.16 15.13 14.45 13.95 11.52 11.98 13.44 16.96 19.22 18.78 18.15 17.62 15.03 16.74 17.02 18.16 20.55 21.56 21.47 20.64 24.41 26.34
23.67 20.66 19.10 17.97 16.26 16.84 15.82 15.94 15.90 14.33 14.66 14.98 13.16 13.19 12.23 12.09 12.20 13.27 13.62 11.58 10.31 11.47 11.78 13.58 13.87 13.00 14.43 16.43 20.14 16.65 16.30 15.58 16.27 17.88 18.99 18.59 19.38 23.18
18.77 17.30 14.89 13.46 13.15 15.19 14.42 13.58 12.31 13.19 14.74 13.01 11.46 11.41 11.64 11.46 10.40 9.76 10.12 10.25 9.53 10.29 11.16 12.41 12.28 12.05 9.44 6.71 13.80 19.67 13.79 14.92 15.49 15.54 17.60 18.31 18.61 21.16
16.80 14.92 13.02 12.04 13.16 12.99 12.73 12.22 12.03 11.23 10.96 11.38 10.07 8.50 7.18 9.55 8.86 9.24 9.40 7.66 8.36 9.53 9.78 11.84 11.43 11.66 9.27 8.14 9.23 13.16 20.29 16.21 16.11 16.19 16.37 18.56 21.57 25.56
14.44 13.95 12.08 12.59 12.07 11.61 8.52 7.96 5.66 7.18 6.10 4.20 6.83 6.46 2.46 8.76 7.72 7.99 8.15 7.90 8.23 9.58 8.47 9.23 11.99 15.55 15.09 14.76 9.37 9.95 13.44 20.12 19.96 17.65 18.91 18.38 17.21 18.88
12.60 12.68 12.33 11.77 8.80 9.67 6.32 5.50 5.82 4.68 5.64 5.60 2.42 1.81 2.88 6.71 6.33 6.94 7.57 7.69 8.57 8.83 9.26 11.14 13.67 14.08 12.00 10.59 8.68 8.89 11.22 14.56 19.32 21.51 22.31 21.20 18.15 15.19
9.24 10.12 8.49 8.25 8.66 7.97 8.93 6.44 5.64 1.97 5.42 5.25 6.73 6.39 3.67 5.18 7.54 7.70 8.04 8.13 8.06 7.96 8.99 9.28 10.53 11.17 10.94 10.95 10.30 10.39 11.43 13.08 15.19 15.88 18.09 22.94 24.03 24.64

GFSNE_sfc_wetblb_102.txt.gz
Wetbulb
56.04 55.90 55.48 55.85 54.98 55.40 53.96 53.19 51.39 48.20 47.96 49.92 51.01 54.00 55.40 54.29 53.22 54.00 53.80 50.99 48.41 48.27 48.61 49.46 50.94 52.29 52.70 53.36 54.00 54.55 54.98 55.60 56.23 56.20 56.94 56.76 56.18 56.36
56.47 56.00 55.42 55.64 54.98 54.64 55.16 55.76 54.58 53.31 50.30 51.33 51.47 52.16 53.34 54.59 54.57 54.16 54.64 51.17 48.70 46.45 45.86 46.34 47.54 48.92 50.02 50.76 51.32 51.80 52.69 53.39 53.78 54.44 54.12 53.22 53.33 53.92
55.52 55.74 55.58 55.92 56.06 55.66 55.14 55.46 54.82 54.42 52.58 54.08 53.97 53.44 51.42 52.74 51.29 51.78 50.32 50.14 48.96 44.31 43.92 43.94 44.27 44.86 45.45 46.06 46.82 48.13 49.10 49.86 50.09 50.40 50.73 50.90 50.92 50.94
55.26 53.93 55.34 56.13 55.42 55.74 55.42 54.85 54.78 55.30 54.10 53.28 55.28 48.39 45.03 44.70 45.08 44.90 44.97 45.44 46.21 45.07 43.59 42.83 42.70 42.68 42.77 43.08 43.62 44.10 44.10 44.44 44.32 43.33 42.65 43.48 44.28 45.04
55.62 55.54 55.36 53.63 53.34 52.45 52.36 54.01 54.25 53.59 52.84 50.78 44.63 41.66 40.85 40.78 41.43 42.04 41.24 40.62 42.69 42.93 41.27 40.50 40.66 40.46 40.71 40.47 41.24 41.58 42.13 41.52 40.77 40.54 40.34 40.24 40.24 41.27
47.00 44.70 42.38 42.46 43.11 44.44 46.64 43.73 45.23 43.94 43.08 42.07 38.85 37.55 37.38 37.80 36.27 34.88 35.20 36.88 37.49 38.65 38.24 38.09 38.08 38.11 38.34 38.56 38.58 39.12 39.04 38.85 38.94 39.09 38.83 38.23 37.78 38.69
38.63 37.72 37.60 37.65 36.90 37.17 39.74 38.08 39.70 38.56 36.90 35.95 34.09 33.43 32.26 31.49 30.65 32.27 31.35 32.26 34.49 32.80 29.71 31.46 33.22 34.83 34.15 34.97 35.88 35.66 36.12 36.96 37.09 36.94 37.21 37.29 37.02 38.27
35.31 35.25 35.27 35.38 34.79 34.73 34.57 33.94 34.39 34.86 33.45 32.59 31.49 29.12 28.78 29.37 29.82 27.86 25.46 25.32 25.12 31.01 26.94 27.06 30.35 29.03 31.05 31.35 31.50 31.97 33.59 33.83 33.52 32.64 33.09 34.12 35.19 35.88
34.24 33.70 33.38 33.62 33.40 32.49 32.31 31.96 31.97 31.80 30.81 30.94 27.89 28.31 26.76 26.83 26.86 24.15 23.18 21.36 21.88 25.69 24.80 23.43 25.93 24.13 25.81 27.64 29.03 30.37 31.65 30.51 29.84 29.64 29.68 29.78 30.22 31.00
33.10 33.04 32.35 31.99 32.14 31.39 30.07 29.36 29.32 29.69 29.33 29.21 28.01 26.45 25.61 26.12 25.82 25.11 24.54 23.85 24.27 24.27 22.80 18.48 22.36 20.89 22.53 23.69 27.72 28.72 28.34 27.86 27.89 27.78 27.97 28.26 28.51 29.84
30.86 31.57 32.00 31.67 32.98 32.48 28.85 28.01 27.70 28.10 31.28 30.49 28.93 28.08 27.30 26.58 24.91 21.95 19.77 18.99 16.88 19.62 20.49 17.82 19.19 18.94 19.29 20.24 21.59 24.96 25.69 25.17 25.67 26.64 26.66 27.30 27.90 28.49
29.49 28.77 29.37 28.45 29.08 29.31 28.23 26.85 24.67 24.66 25.28 23.95 22.82 22.43 22.84 22.77 22.96 20.71 18.99 15.83 15.51 14.22 18.08 14.77 16.31 15.33 12.50 18.86 18.53 19.53 19.65 23.36 24.04 23.97 25.02 25.98 26.80 24.00
26.87 26.87 28.54 30.29 29.90 28.92 27.63 25.93 24.75 25.07 22.87 21.26 20.10 19.92 19.87 18.91 18.37 18.46 18.12 16.15 13.74 12.84 16.95 15.04 14.17 14.30 13.53 13.53 16.75 17.94 17.94 17.59 18.16 19.49 22.87 24.22 24.79 24.56
26.39 27.34 28.77 29.47 28.15 26.91 25.46 24.99 23.42 21.83 20.28 18.51 17.17 16.09 14.99 15.27 16.67 17.04 17.38 17.54 17.26 15.72 17.51 16.94 8.27 13.36 12.01 10.22 9.58 14.93 15.60 16.87 17.34 17.96 19.27 20.39 21.30 22.15
28.58 29.05 28.81 27.15 25.87 24.39 23.45 21.74 19.94 18.42 16.45 14.31 13.48 13.10 14.55 15.70 16.34 15.82 16.61 16.61 16.23 16.75 17.81 17.15 15.04 14.46 12.29 9.92 9.59 11.58 12.45 15.64 18.17 15.76 15.86 16.31 16.49 17.76
25.06 24.20 23.28 22.94 21.14 20.00 19.15 18.42 17.85 16.62 14.66 13.04 12.61 13.28 14.32 13.67 12.55 13.69 11.93 12.01 10.95 11.02 15.69 16.36 15.92 14.82 11.42 12.09 12.52 11.67 13.43 11.21 14.38 14.77 15.29 15.80 17.23 18.30
23.36 22.04 20.23 19.14 17.23 16.04 15.59 15.56 15.77 14.94 13.22 12.48 11.86 11.66 11.15 10.94 10.31 11.99 11.38 10.09 7.34 7.79 9.04 12.23 14.91 15.35 14.51 13.52 10.30 11.69 11.75 12.35 13.84 13.94 14.22 13.61 15.77 17.00
18.75 15.75 14.21 14.34 13.42 13.03 11.89 12.29 12.96 12.59 12.77 12.25 10.68 10.33 8.84 8.49 8.71 9.55 9.61 7.44 6.22 7.35 7.85 9.63 10.40 9.22 10.35 12.18 15.54 11.69 11.77 11.43 11.95 13.55 14.00 11.83 12.10 15.50
13.80 12.51 11.32 11.24 12.28 12.49 11.93 11.68 10.53 11.12 11.64 9.53 8.38 7.02 7.08 7.51 5.50 4.82 5.42 5.78 5.41 6.63 7.61 9.17 8.13 7.03 3.92 0.91 9.71 16.28 10.29 10.79 11.65 11.92 12.99 12.66 11.94 14.13
13.45 10.94 9.63 9.78 11.65 11.04 10.12 9.16 8.48 7.34 5.97 6.52 1.90 -1.58 -3.01 3.85 2.99 4.43 5.10 3.35 4.34 5.74 6.00 7.02 7.09 6.92 4.77 3.73 4.80 8.25 16.11 11.95 11.90 11.17 11.84 14.40 15.81 19.16
12.08 11.44 10.02 9.67 9.06 8.24 4.96 2.01 -2.31 -3.52 -6.93 -7.48 -2.83 -1.64 -11.65 0.28 -0.01 2.24 2.90 2.50 3.18 4.42 3.70 4.79 7.09 10.82 9.88 9.87 5.12 6.02 9.53 16.20 16.17 13.91 13.95 13.04 12.42 14.20
10.35 9.18 8.86 7.85 6.58 4.04 -3.20 -8.57 -4.40 -3.13 -2.77 -1.40 -10.56 -13.28 -13.82 -6.57 -4.05 0.24 0.83 0.64 1.84 3.29 4.28 6.08 8.08 8.21 7.82 6.72 4.38 4.83 7.25 11.22 16.04 18.79 20.36 19.85 14.92 11.67
6.81 6.61 4.06 0.76 -0.85 -3.69 0.14 -4.06 -4.76 -13.10 -4.94 -4.58 -6.03 -5.13 -15.09 -7.84 0.10 -0.24 -0.64 0.70 2.22 1.94 2.62 3.20 5.38 6.97 5.68 5.59 5.35 6.51 8.21 9.91 13.54 14.88 17.60 21.78 22.09 22.34

GFSNE_sfc_wetblb_105.txt.gz
Wetbulb
55.54 55.09 55.24 55.60 55.94 55.84 54.98 53.74 51.64 46.38 47.36 49.54 50.13 53.59 54.53 54.09 53.04 53.50 52.81 51.52 48.52 46.97 46.57 47.32 48.93 50.54 51.36 52.42 53.13 53.92 55.20 56.19 56.74 56.74 57.20 57.87 58.11 58.71
56.16 55.34 55.10 55.36 55.16 54.98 54.46 54.56 53.51 52.74 49.99 50.37 50.80 51.38 51.96 53.03 52.78 53.15 52.80 49.78 44.97 44.00 43.89 44.66 45.28 45.98 46.25 46.79 47.42 48.33 49.39 50.40 51.68 53.02 54.19 54.99 55.96 56.45
55.70 55.36 55.07 55.36 55.27 54.56 54.76 54.68 54.38 54.11 52.32 53.44 52.35 49.72 46.51 49.04 47.43 47.54 47.56 46.52 46.46 42.57 41.95 41.93 41.79 41.65 41.81 42.33 42.74 43.54 44.18 44.91 45.82 46.48 46.65 47.48 48.41 48.83
55.13 54.63 54.91 55.14 54.56 55.21 54.86 54.34 54.10 53.74 53.69 52.60 52.07 45.23 43.02 44.13 43.85 42.63 42.60 43.31 43.58 41.83 40.30 39.84 39.47 39.44 40.19 39.56 40.22 40.16 39.84 39.64 40.02 40.71 41.51 41.95 42.21 42.94
54.77 54.55 55.04 54.67 54.75 54.57 53.11 52.73 53.23 52.60 52.66 52.66 46.31 40.99 39.49 39.28 39.74 40.36 38.50 38.52 41.25 39.56 38.16 36.49 37.35 37.38 37.30 38.07 37.81 37.10 36.79 37.15 37.31 37.51 37.69 38.07 38.63 39.67
51.42 48.21 45.33 46.21 46.59 46.80 47.60 46.55 45.61 44.90 43.83 42.25 39.08 36.80 36.39 36.09 35.15 33.27 33.57 34.68 35.85 32.81 33.28 33.15 34.93 34.87 35.39 35.44 33.23 33.17 33.66 35.14 35.46 35.09 33.72 33.61 34.09 35.57
40.46 38.97 38.20 38.45 37.90 39.22 41.77 39.49 41.38 39.53 38.25 36.94 34.40 33.15 31.66 30.56 29.09 29.62 28.53 30.36 32.08 29.24 29.31 30.17 31.63 30.85 28.75 29.08 29.65 30.56 31.73 33.10 31.95 31.43 30.90 30.68 30.84 31.17
36.70 35.90 36.13 35.73 35.02 34.66 34.28 33.63 34.48 35.69 33.63 32.70 30.42 27.41 26.94 27.51 27.68 26.15 25.57 25.08 23.94 27.26 24.74 26.17 27.38 25.60 24.77 25.84 28.09 29.41 30.99 30.13 29.61 29.12 28.55 28.50 28.84 29.13
35.54 34.00 33.58 33.75 32.74 31.54 31.66 31.48 31.30 30.90 29.81 29.50 26.62 26.63 25.35 26.04 26.22 24.72 23.29 22.44 22.46 23.31 21.48 21.37 22.60 21.22 22.92 24.41 26.48 28.40 27.60 27.49 27.05 26.82 27.21 27.63 27.38 27.45
34.09 33.52 32.01 31.28 31.41 30.40 29.81 29.46 29.45 29.25 28.91 28.50 26.91 25.63 24.78 24.18 24.49 23.39 21.98 21.48 22.60 20.45 19.50 16.39 20.56 17.60 19.68 20.55 25.35 25.98 25.78 25.34 25.55 25.75 25.45 25.34 25.46 26.13
32.20 32.38 31.79 31.06 32.13 32.11 28.92 27.82 26.75 26.38 28.42 28.03 27.27 26.30 25.15 24.44 22.62 20.51 17.82 17.04 16.18 18.32 17.06 15.43 16.68 15.26 16.56 17.00 19.58 23.40 23.40 23.24 23.69 23.38 23.82 24.34 24.76 25.29
28.94 29.49 30.40 30.07 30.72 30.06 27.91 26.61 24.21 23.46 22.84 21.61 21.53 21.33 21.30 20.64 20.91 18.80 16.93 13.73 13.36 12.47 16.71 13.68 14.33 14.02 10.20 17.03 17.04 18.06 17.38 20.79 21.65 21.84 22.80 23.53 24.22 20.77
27.58 28.03 29.27 29.54 29.06 28.61 27.28 25.10 23.25 23.37 21.82 20.75 19.38 18.32 18.04 17.87 17.64 17.91 17.68 15.45 12.75 11.70 16.03 13.31 12.51 12.77 11.72 11.44 14.51 15.56 15.60 16.22 16.53 17.57 20.93 21.76 21.72 21.25
26.80 27.10 27.60 27.93 27.10 26.06 24.21 24.11 23.15 21.12 19.80 17.30 15.72 14.76 14.58 15.01 15.57 16.46 16.87 16.24 16.44 15.13 16.75 16.43 8.27 12.02 10.07 8.64 8.04 13.70 14.45 15.54 16.09 15.99 18.16 18.51 19.75 19.96
27.18 27.48 27.48 26.00 24.27 23.21 22.78 21.41 19.16 17.68 15.99 13.95 12.92 12.73 13.48 14.68 15.15 14.69 15.45 15.50 15.25 15.72 16.45 16.33 13.86 13.32 11.36 9.01 8.66 10.17 10.67 13.88 15.49 14.99 15.03 15.52 15.13 15.72
23.80 21.95 21.40 20.87 19.51 18.96 18.91 17.94 16.77 15.90 14.43 13.21 12.38 12.24 13.05 12.59 11.63 12.97 11.18 10.98 9.47 10.05 14.28 15.07 14.55 13.56 10.36 10.75 10.74 9.52 11.66 9.57 13.28 14.03 14.92 14.58 15.41 16.21
21.68 20.60 18.73 17.51 15.78 15.50 15.27 14.94 15.07 14.20 12.53 12.66 11.48 10.09 10.04 9.91 9.71 10.88 10.01 8.72 5.83 6.38 7.54 10.74 13.36 13.51 12.44 11.53 8.33 9.78 10.09 10.87 12.46 12.74 12.60 11.73 13.95 15.16
18.45 15.82 13.99 13.66 13.31 13.03 12.34 12.20 12.31 11.92 11.34 10.64 9.56 8.79 7.64 6.88 6.80 7.98 7.93 5.79 4.61 5.59 6.14 7.75 8.57 7.66 8.67 10.43 14.21 9.96 9.46 9.93 10.62 11.95 12.60 10.69 10.99 14.19
14.00 12.86 10.99 10.45 11.30 11.90 11.12 10.42 8.88 10.34 10.78 8.83 6.78 5.22 5.49 5.85 4.87 4.43 3.69 3.57 3.27 4.55 5.57 7.24 6.72 5.51 2.05 -1.26 7.98 14.97 9.02 9.48 10.45 10.43 11.70 11.24 10.81 12.89
13.08 10.83 9.51 9.34 10.59 9.90 9.29 8.39 8.34 7.74 6.95 5.89 2.65 -0.92 -3.64 1.82 1.37 2.50 3.08 0.30 1.98 3.28 4.02 5.34 5.22 5.08 2.57 1.39 2.88 6.82 15.09 11.27 10.72 9.35 10.24 12.85 15.01 18.77
11.99 10.55 9.36 8.77 8.36 7.59 5.44 3.74 1.58 -0.37 -2.84 -4.28 -1.87 -2.63 -14.00 -2.32 -3.74 -0.64 -0.51 -0.64 -0.47 2.37 1.81 3.00 5.18 9.01 8.06 8.26 3.41 4.29 8.79 15.34 16.03 13.80 13.33 12.71 12.63 14.82
10.21 9.56 9.08 7.48 5.86 4.29 -0.38 -5.87 -4.23 -4.23 -3.88 -3.67 -13.46 -15.81 -16.54 -9.29 -7.11 -4.77 -4.50 -3.76 -0.48 1.01 1.98 3.84 6.34 6.66 5.67 4.48 2.65 3.40 6.88 10.94 16.57 20.02 21.78 21.02 15.47 10.16
6.28 6.74 4.94 3.66 1.49 -0.55 2.28 -2.85 -2.46 -13.28 -6.21 -6.21 -7.66 -7.13 -18.35 -11.65 -3.44 -3.58 -3.79 -1.68 0.10 0.01 0.86 1.79 3.44 4.86 3.90 3.95 4.10 5.30 7.36 10.29 13.36 13.68 19.17 24.03 23.00 23.23

GFSNE_sfc_wetblb_108.txt.gz
Wetbulb
54.74 54.67 54.83 55.32 55.56 55.68 55.14 53.91 51.39 48.35 48.95 51.29 51.76 54.08 54.81 54.73 52.82 53.71 52.33 45.59 44.93 44.59 45.22 46.13 46.92 47.31 47.42 47.58 47.72 48.14 48.90 49.36 49.77 50.68 51.35 52.43 53.32 54.30
55.57 54.93 54.96 55.00 55.26 54.90 54.64 54.14 53.54 52.06 49.51 51.57 51.76 52.40 51.52 52.03 49.63 50.74 48.08 44.86 43.05 42.23 42.31 42.29 42.69 43.38 43.65 43.58 43.77 43.96 44.28 44.53 44.97 45.29 45.98 46.83 47.59 48.28
55.33 55.03 54.86 55.02 54.70 54.54 54.17 53.95 53.77 53.57 51.79 53.17 52.92 49.08 46.97 47.66 45.99 46.30 46.74 42.48 41.82 40.76 40.19 39.95 40.22 39.83 39.72 40.44 39.87 39.58 39.71 40.34 40.60 41.10 41.62 42.40 43.03 43.85
55.26 54.68 54.55 54.96 54.34 54.74 54.78 54.36 54.25 54.72 53.62 52.00 51.99 45.06 42.85 43.43 41.98 40.29 41.80 42.72 40.59 37.99 36.75 38.13 37.67 37.66 38.18 36.11 35.21 34.82 35.93 36.48 37.42 37.39 37.07 37.16 37.82 39.18
55.44 54.87 54.85 54.69 54.25 54.60 54.19 53.94 53.87 52.86 53.53 53.00 51.97 41.02 37.79 38.69 38.78 38.49 36.84 39.17 36.66 35.93 34.69 35.50 35.89 36.33 33.95 33.15 32.69 32.79 33.14 34.45 33.66 33.21 32.73 32.52 32.97 34.03
53.74 52.74 51.23 50.49 50.81 50.43 50.17 50.23 48.65 47.79 46.32 44.71 39.92 36.06 35.89 35.18 33.98 32.09 32.05 33.77 30.84 31.46 32.08 33.39 32.96 31.16 30.74 30.32 29.89 31.00 32.51 33.35 31.92 30.97 30.19 29.46 29.70 30.39
42.70 40.33 39.46 39.53 38.81 40.36 44.28 43.41 44.29 43.06 41.05 38.67 34.51 32.97 30.31 28.30 26.97 28.19 28.35 30.24 26.43 27.13 27.77 29.93 29.19 27.38 26.98 27.16 27.35 30.03 30.66 29.87 29.34 28.97 28.67 28.47 28.82 29.00
38.28 36.54 36.08 35.55 34.63 34.45 34.01 33.51 35.23 37.76 35.15 31.52 29.01 26.58 26.25 26.77 26.87 25.85 25.83 25.22 24.23 25.83 23.82 25.88 25.94 24.35 23.73 24.90 26.31 29.00 28.03 27.53 27.39 27.23 27.39 27.14 26.64 26.57
36.73 34.49 33.18 32.94 32.58 31.50 31.65 31.44 31.03 30.31 29.40 29.28 25.79 25.25 23.54 25.35 25.44 23.36 23.13 22.45 22.26 21.46 21.47 21.50 22.79 20.54 22.07 23.21 25.22 27.09 26.48 26.14 25.65 25.76 25.81 25.28 25.51 25.77
35.51 34.01 31.82 30.90 31.20 30.50 28.52 27.08 26.49 26.37 26.11 26.06 24.12 23.45 23.01 23.25 23.34 22.49 21.27 21.35 21.81 19.72 19.22 16.16 19.79 17.77 19.65 21.23 23.81 25.20 25.05 24.26 24.13 24.50 24.52 24.37 24.55 24.79
32.51 32.12 31.53 30.95 32.34 31.58 27.07 24.64 24.28 24.77 27.74 27.46 26.61 25.75 24.46 23.25 22.26 20.22 17.88 17.00 16.60 17.78 17.58 16.39 17.53 15.91 17.82 18.81 21.15 22.91 22.45 22.45 22.50 22.95 23.21 23.61 23.81 24.32
30.47 30.75 31.16 30.27 30.53 29.55 26.95 24.88 22.11 22.21 22.39 21.01 20.43 20.75 20.85 20.54 20.56 18.86 17.45 14.52 14.17 14.09 16.65 13.84 14.54 14.04 11.04 17.79 18.45 18.64 18.58 19.83 21.17 21.44 21.94 22.35 22.89 22.20
28.65 28.37 29.01 29.70 29.32 28.00 26.22 23.78 22.20 22.57 21.05 19.71 18.71 18.09 17.97 17.72 17.88 18.22 17.46 15.71 13.47 12.58 16.71 14.85 13.13 12.62 12.14 11.86 14.61 16.72 17.40 17.84 17.91 18.70 20.12 20.89 21.63 21.19
26.20 26.90 27.51 27.98 27.27 25.99 24.29 24.34 23.05 20.43 19.25 17.36 15.72 14.51 14.33 14.16 15.51 16.47 16.91 16.65 17.09 15.75 16.97 16.72 12.31 11.71 10.63 9.48 9.27 15.09 16.17 17.20 17.61 17.64 17.95 19.24 19.59 20.10
26.26 26.71 26.77 25.99 24.82 23.11 22.64 21.24 18.95 17.42 15.77 13.73 12.58 12.09 13.11 14.83 15.22 14.85 15.28 15.48 15.52 16.11 16.49 15.88 14.12 13.20 12.04 9.54 9.54 11.19 11.78 14.64 16.59 16.82 16.61 16.92 16.64 17.00
22.66 20.48 20.12 20.13 18.53 17.91 17.78 17.46 16.99 16.51 14.80 13.11 11.56 12.25 13.25 12.51 11.55 12.39 10.92 10.97 10.32 10.79 14.41 15.05 14.35 13.36 10.53 10.87 11.39 10.45 12.68 10.41 14.72 15.35 15.50 16.00 16.41 17.48
20.00 18.88 17.63 16.61 15.72 15.45 15.28 14.72 14.47 13.91 12.43 12.05 11.03 10.17 9.79 9.70 9.78 10.48 9.69 8.87 7.05 7.27 8.58 11.26 13.16 13.20 12.59 11.52 9.78 11.18 11.60 12.24 13.89 13.56 13.28 12.39 14.83 16.85
18.21 15.65 14.20 14.05 13.35 13.19 12.16 11.75 11.97 11.46 10.74 9.81 8.84 8.42 7.51 7.07 7.24 7.95 7.95 6.13 5.02 5.98 6.55 8.24 8.96 8.49 9.73 12.31 14.80 11.60 11.84 11.47 12.47 12.78 13.71 11.83 11.91 16.48
14.78 13.52 12.40 12.36 11.88 11.86 11.16 10.28 9.23 9.64 9.40 7.49 5.76 4.61 5.88 5.87 5.67 5.25 4.92 3.77 3.53 4.91 5.96 7.63 7.25 5.88 2.67 1.04 8.58 14.69 10.55 10.51 11.77 11.54 13.06 13.43 12.99 15.30
13.50 12.12 11.34 11.61 11.52 10.50 9.67 8.92 8.22 7.17 6.00 3.97 1.89 0.12 0.34 3.45 2.67 2.66 2.97 1.07 2.04 3.57 5.03 6.80 6.33 5.44 3.03 2.18 3.63 8.16 14.44 12.10 11.83 11.96 13.30 16.26 18.04 20.20
11.78 10.88 10.88 10.31 9.16 8.25 5.82 4.93 3.17 1.73 1.44 -0.50 0.01 -0.17 -4.97 0.64 -0.16 0.45 -0.02 -1.71 -0.92 2.82 2.57 3.83 5.95 8.50 8.68 8.62 4.48 6.29 10.36 15.85 17.15 16.44 17.51 17.11 15.77 16.98
10.74 9.72 9.00 7.81 6.37 5.19 3.42 2.21 0.46 -1.94 -0.92 0.10 -4.72 -5.65 -7.06 -2.20 -1.65 -2.20 -2.06 -1.52 0.48 1.86 2.67 4.64 7.05 6.97 6.24 5.03 3.87 4.99 8.56 12.80 18.15 20.23 21.71 24.02 18.49 15.01
7.91 7.48 6.69 5.44 4.63 3.76 3.51 1.11 0.19 -2.14 0.01 -0.85 -1.11 -1.82 -9.92 -3.45 -1.28 -1.31 -1.47 -0.62 0.43 0.74 1.75 2.25 3.94 5.17 4.47 4.51 4.30 6.59 8.07 11.94 13.67 14.68 18.83 27.94 25.74 24.30

GFSNE_sfc_wetblb_111.txt.gz
Wetbulb
56.53 57.79 57.93 57.68 58.70 59.20 58.86 58.90 56.11 50.82 51.33 55.38 56.49 57.37 57.24 57.29 54.24 57.90 51.32 44.49 43.99 44.09 44.81 45.70 46.27 46.31 46.12 45.82 45.62 45.76 46.15 46.10 46.24 46.31 46.75 47.24 47.82 48.30
57.35 57.30 57.42 57.79 58.27 58.51 58.16 57.44 57.67 54.75 51.13 55.73 55.53 54.10 53.96 51.63 50.95 48.41 44.54 43.14 41.38 41.26 41.50 41.42 41.96 42.74 41.85 40.48 39.95 40.08 40.56 41.38 42.19 42.49 42.28 42.65 43.36 43.91
57.43 58.05 56.79 57.22 57.45 57.52 57.11 55.78 55.64 54.72 51.98 54.78 55.14 52.68 50.84 50.16 46.79 45.68 43.65 40.35 39.11 39.29 38.74 38.81 39.23 37.38 36.49 35.90 35.59 35.94 37.45 37.97 37.09 37.24 37.32 37.73 38.44 39.38
55.73 55.24 55.16 55.04 55.66 56.52 55.06 55.10 54.86 54.41 53.74 52.16 53.45 45.70 43.54 42.02 41.07 41.40 41.38 38.27 36.72 37.04 37.02 38.08 36.07 34.77 33.90 33.06 32.91 33.42 34.71 34.52 33.75 33.47 33.43 33.51 33.91 34.48
55.40 55.20 54.91 54.98 54.49 55.01 54.77 54.89 55.12 54.11 54.39 53.38 51.85 41.71 38.12 39.72 38.02 37.22 37.31 35.50 34.98 34.83 35.38 34.26 32.87 32.32 31.44 30.64 31.12 32.53 33.88 32.77 31.59 30.86 30.42 30.40 30.95 31.72
55.66 55.26 54.99 54.41 54.09 54.27 54.32 54.28 52.28 52.37 50.78 49.01 42.08 36.91 36.00 34.21 33.32 33.78 31.16 30.71 29.09 30.98 32.99 31.96 30.40 29.85 29.14 28.76 29.42 31.58 30.50 30.12 29.49 29.00 28.71 28.88 28.64 28.94
48.81 46.02 44.11 43.31 41.18 43.95 47.81 47.87 47.69 46.98 44.45 42.46 36.18 33.60 30.67 28.95 28.51 29.31 29.28 29.46 26.40 26.37 27.63 28.72 28.09 27.45 26.60 27.53 27.85 30.07 28.80 28.24 28.10 27.96 27.51 27.77 27.50 27.41
40.89 39.02 38.81 37.18 35.84 35.12 34.70 34.36 38.37 44.69 40.81 35.88 31.31 29.16 27.24 27.76 27.62 26.74 26.75 26.82 25.46 24.80 23.55 26.53 26.32 26.29 26.59 27.19 26.07 28.21 27.31 26.98 26.64 26.61 26.71 26.59 26.39 26.23
38.79 36.36 34.66 34.37 34.42 32.94 31.51 30.67 30.43 30.53 31.04 31.86 27.28 26.02 25.18 26.37 26.23 24.47 24.06 23.70 23.14 21.72 23.49 24.51 24.01 23.73 25.73 26.13 24.99 26.59 26.29 25.87 25.48 25.35 25.37 25.27 25.18 25.27
38.10 36.07 33.96 32.59 32.42 30.77 28.95 27.17 26.46 26.43 26.44 26.07 24.79 24.38 24.74 25.00 24.54 24.09 23.28 24.81 24.29 22.93 22.74 20.68 24.12 23.83 25.60 26.57 23.98 24.65 25.41 24.66 24.38 24.34 24.38 24.61 24.62 24.69
33.44 33.24 32.43 31.17 31.42 31.67 27.85 25.60 25.20 25.75 27.89 27.22 26.36 25.49 24.66 24.37 23.79 23.51 21.44 22.09 20.24 20.83 20.90 20.94 22.57 21.37 23.12 24.05 26.37 24.52 23.99 23.67 23.31 23.65 23.64 23.89 23.96 23.98
31.96 32.09 32.18 30.70 29.63 28.76 26.89 24.97 21.86 21.11 21.02 20.48 20.38 21.01 21.76 21.86 21.54 21.52 20.82 18.42 18.70 18.93 19.95 19.55 20.12 19.20 18.52 24.07 23.97 24.55 24.69 23.60 23.13 23.11 23.31 23.25 23.13 24.07
29.91 29.66 30.06 30.01 29.15 28.07 26.32 24.09 21.67 21.73 20.67 20.51 19.65 19.30 19.64 19.42 19.70 20.43 21.18 21.43 19.30 18.65 19.68 19.65 18.50 18.50 18.45 18.14 20.98 23.51 23.72 23.45 23.55 23.89 23.30 23.43 22.97 22.67
28.14 28.33 28.58 28.69 27.82 26.66 25.16 24.80 23.24 21.27 20.44 18.86 17.35 16.79 16.65 17.13 18.84 19.89 20.53 20.85 20.95 19.33 19.93 19.57 17.81 17.09 16.02 16.00 17.10 21.79 22.66 23.20 23.71 23.09 23.44 23.12 22.74 22.61
27.30 27.73 27.79 26.53 25.41 23.77 23.49 22.34 20.13 19.22 18.10 17.07 15.50 15.93 18.06 18.57 18.60 18.21 18.69 19.51 19.09 19.09 19.56 19.15 18.25 17.71 17.53 16.36 16.61 18.41 18.35 21.83 23.25 22.22 22.47 21.75 21.73 22.46
22.95 20.29 19.97 20.17 19.61 19.49 19.76 19.63 18.94 18.24 16.79 15.37 15.30 16.22 17.21 17.03 16.31 17.20 16.63 17.21 18.12 17.93 18.55 19.06 18.64 17.92 16.17 18.09 17.82 17.45 20.35 18.07 21.66 21.54 20.90 21.31 23.19 24.57
20.06 19.16 17.91 17.58 16.94 16.35 16.37 16.32 16.07 16.63 15.95 15.95 15.63 15.14 14.85 15.29 14.82 16.40 15.78 16.62 15.99 15.59 16.74 18.62 19.14 19.11 18.92 17.45 16.16 19.17 19.36 19.49 20.96 19.46 19.31 19.82 23.73 26.22
19.03 16.72 16.33 15.72 15.24 14.52 14.25 13.93 14.37 14.04 14.46 14.68 14.20 14.11 13.97 14.22 14.82 14.96 15.22 14.85 14.46 14.72 15.18 16.15 16.63 16.84 18.60 20.38 17.85 17.52 18.48 18.44 19.09 19.47 20.14 19.39 21.92 27.07
18.22 17.23 16.03 15.28 15.55 14.90 14.65 14.05 12.37 12.77 13.41 13.07 13.44 13.17 13.90 13.36 14.83 13.97 13.13 13.69 14.03 14.18 15.02 15.87 15.50 13.90 12.06 11.86 17.83 17.62 15.51 15.85 17.35 18.97 21.04 21.36 21.33 25.25
16.97 15.86 15.00 15.17 14.69 13.82 13.90 12.79 12.45 12.52 11.87 11.62 11.04 10.59 11.64 12.50 12.34 11.80 12.27 10.73 12.20 13.30 14.34 15.90 14.93 12.38 10.03 10.11 10.28 15.14 18.01 16.77 17.24 18.30 20.69 24.05 27.29 26.03
14.82 14.13 15.38 15.16 14.64 14.10 12.96 11.70 10.73 10.15 10.09 10.05 9.90 8.78 9.40 11.52 10.29 10.36 10.58 5.68 6.88 12.16 11.99 12.62 13.21 11.78 14.53 15.06 13.44 15.77 18.70 19.94 19.83 19.80 22.01 23.22 26.20 26.42
14.70 13.96 14.05 13.56 12.49 12.04 11.97 10.97 9.84 10.12 9.86 9.84 8.76 8.58 9.61 10.92 9.71 8.76 9.37 10.06 10.81 10.80 11.19 13.14 14.41 14.21 13.57 11.95 11.55 12.91 17.14 19.79 23.09 23.23 23.89 23.76 26.05 23.38
13.21 13.31 12.91 12.67 12.41 12.23 11.84 11.56 10.81 10.43 9.69 8.91 9.24 9.24 7.91 9.10 9.29 10.42 10.02 9.57 9.40 9.15 10.23 10.71 12.22 13.46 11.93 12.07 11.09 13.68 14.98 17.83 20.84 22.63 26.87 27.13 27.88 28.12

GFSNE_sfc_wetblb_114.txt.gz
Wetbulb
61.92 62.87 61.56 61.10 62.01 61.27 61.11 60.18 57.40 53.73 54.45 56.00 58.49 59.46 57.69 56.69 54.02 56.24 49.73 43.48 43.44 43.75 44.86 46.06 46.11 45.50 44.49 43.78 43.53 43.87 44.43 44.88 44.86 44.10 43.81 44.19 44.77 45.27
59.44 59.27 59.78 59.89 60.36 61.07 60.86 60.22 59.80 57.08 54.35 55.76 56.69 57.03 53.22 51.75 47.63 47.83 43.89 42.05 40.73 40.80 41.69 41.06 39.88 39.53 38.80 38.38 38.87 40.13 40.68 39.59 39.51 39.39 39.25 39.37 39.54 39.99
58.93 58.77 58.80 59.77 59.64 59.49 60.03 59.38 58.34 57.60 55.15 56.28 57.89 52.98 49.48 47.74 45.31 42.90 40.98 40.28 39.69 39.57 38.19 37.33 36.30 35.44 34.60 34.39 34.67 35.81 36.48 36.16 35.73 35.35 35.15 35.34 35.64 36.46
57.83 57.30 57.94 58.28 58.89 59.19 58.86 58.16 58.31 58.39 56.28 54.04 53.44 46.01 43.15 42.39 42.66 39.95 38.31 37.36 37.44 38.29 36.03 34.96 34.12 33.04 32.30 32.09 33.45 34.78 34.46 33.01 32.13 31.84 31.72 32.16 32.76 33.65
56.72 56.66 57.79 58.40 58.12 58.25 58.16 56.72 56.81 54.93 54.99 53.65 51.43 41.32 40.12 39.77 38.38 36.95 35.77 34.62 35.79 36.18 33.98 32.90 32.22 31.23 30.56 30.33 32.48 32.26 31.31 30.39 29.90 29.64 29.71 29.74 30.28 30.89
56.13 55.96 55.43 55.69 55.17 54.60 54.36 54.38 54.23 53.92 53.82 53.46 48.05 38.97 36.59 35.10 36.83 33.15 31.07 30.95 29.49 32.24 32.50 31.42 30.57 29.67 28.68 28.83 30.08 30.87 29.76 28.96 28.97 28.91 28.61 28.23 28.35 28.81
53.57 52.96 50.63 48.50 45.04 47.07 52.26 52.96 53.07 52.86 51.33 48.95 39.23 34.79 32.66 31.13 31.97 31.56 30.92 27.75 25.76 26.95 28.28 28.89 28.50 28.52 28.10 28.56 29.21 29.73 28.33 28.21 28.05 27.82 27.62 27.37 27.36 27.57
46.42 41.60 40.05 38.74 36.70 35.89 35.47 34.49 36.60 47.68 45.32 40.48 34.69 33.30 29.26 28.86 29.59 29.83 30.16 28.28 25.13 24.89 25.01 28.03 27.48 28.06 30.49 31.82 25.09 27.97 27.87 27.75 27.45 26.98 26.79 26.72 26.76 26.63
41.81 38.87 36.97 35.80 35.40 33.97 32.54 31.71 30.85 31.20 32.28 37.15 33.55 30.05 28.03 28.19 27.92 25.87 25.77 26.14 24.26 23.40 24.99 26.63 29.11 27.69 29.38 29.34 25.21 26.30 27.00 26.87 26.36 26.21 26.21 26.16 25.91 25.98
39.77 37.89 35.64 35.15 36.01 34.16 31.46 29.37 28.20 28.09 28.56 28.61 27.35 26.57 26.95 28.01 27.69 26.65 25.90 23.90 23.80 23.51 25.75 24.86 27.19 25.37 29.45 31.28 25.95 25.92 26.61 26.30 26.00 25.84 26.03 25.89 25.73 25.58
38.15 36.91 35.63 33.17 32.92 33.55 30.11 27.48 26.41 26.19 28.45 28.32 27.76 27.22 26.79 26.61 26.44 26.33 25.51 25.58 23.44 22.87 24.57 25.98 26.99 25.16 27.32 28.90 29.85 27.78 26.89 26.63 26.27 26.15 26.01 25.88 25.86 25.87
34.19 33.36 32.90 32.24 31.08 30.70 29.04 25.43 22.24 22.00 21.64 21.77 22.30 22.72 23.05 23.81 24.82 25.87 25.62 23.52 23.50 23.23 23.77 24.39 25.26 24.18 22.37 27.78 28.23 28.63 28.78 27.82 27.08 26.99 26.65 26.80 26.43 27.29
31.71 30.47 30.64 30.51 29.74 28.79 26.80 23.90 21.87 21.74 20.93 21.09 20.96 20.86 21.04 21.52 23.55 24.50 25.98 25.35 23.68 22.00 20.76 22.98 23.33 24.52 23.55 22.97 26.24 28.38 28.54 28.54 28.76 29.28 27.82 27.78 26.44 26.15
29.12 29.08 29.39 29.09 27.66 26.51 24.85 24.69 23.83 22.35 21.44 20.01 19.97 19.56 19.91 20.57 22.68 23.85 23.47 23.75 24.61 23.22 23.30 23.49 23.53 22.36 21.25 21.40 22.64 26.32 27.71 28.67 29.21 28.29 28.85 28.09 27.68 27.71
28.50 28.86 28.56 27.47 26.31 24.68 24.54 23.41 22.35 22.04 21.49 20.19 19.46 19.14 20.58 22.21 22.86 22.65 23.02 23.43 23.04 22.47 22.90 22.89 22.82 22.19 22.05 21.14 21.82 23.73 23.55 27.22 28.67 28.01 28.16 27.73 28.30 30.01
23.69 21.86 21.83 22.04 21.47 21.09 21.29 22.12 22.54 22.97 21.62 20.41 19.70 19.78 20.87 20.92 20.15 22.14 21.49 22.39 23.28 23.00 22.53 23.45 22.89 22.92 21.73 23.05 22.87 22.55 25.71 23.58 27.40 27.35 26.60 27.94 29.87 31.94
20.16 19.66 18.89 18.74 17.77 17.68 18.15 18.61 19.28 19.25 18.43 19.20 18.47 18.61 18.64 18.95 18.98 20.80 21.16 22.15 21.84 21.69 22.89 24.49 24.81 25.20 24.78 23.76 21.85 24.18 24.31 24.85 25.74 25.41 25.46 26.49 29.37 30.96
20.30 18.46 18.49 18.82 17.74 17.45 17.22 16.59 18.04 17.44 18.35 19.43 19.11 19.26 19.71 20.20 20.31 20.98 22.32 22.77 22.03 21.38 21.20 21.99 22.49 22.76 23.93 26.01 23.09 22.26 23.37 22.87 24.23 25.13 26.48 25.40 26.92 31.03
22.21 20.33 19.21 19.04 18.77 18.03 18.60 18.01 15.66 16.44 18.54 20.00 19.66 19.98 20.29 19.98 21.27 20.67 20.47 21.67 20.71 20.70 21.24 22.59 21.50 19.82 17.58 17.54 22.82 18.22 20.20 21.23 22.52 23.49 24.68 25.37 25.50 28.97
22.65 21.51 20.61 19.87 19.36 19.81 18.62 17.87 17.82 18.22 17.86 17.83 18.34 18.64 18.96 19.25 19.04 18.87 18.79 17.90 18.67 19.53 20.54 22.10 20.94 18.21 15.27 15.61 16.46 20.82 22.98 22.18 22.09 21.93 23.37 25.74 29.96 30.12
20.59 20.79 20.96 20.32 19.52 18.81 18.57 18.86 17.79 17.00 16.77 17.21 17.37 17.06 18.43 19.28 17.70 18.10 18.08 13.07 12.73 19.02 18.09 18.77 19.61 16.68 19.66 20.98 19.58 21.69 24.18 24.65 23.94 22.41 23.64 23.85 26.41 28.53
20.13 19.11 19.03 18.60 17.01 16.64 16.88 16.54 15.90 16.47 16.70 17.00 16.82 17.16 18.31 18.44 16.88 16.87 16.71 16.85 17.53 17.33 17.77 19.44 20.63 20.51 19.87 17.98 17.73 18.60 22.02 24.90 26.27 27.21 26.37 24.83 25.55 24.37
18.23 17.97 17.69 17.01 17.06 17.24 17.37 17.16 17.37 17.50 16.45 16.13 16.37 15.80 16.85 17.02 16.53 16.91 16.85 16.60 16.15 15.30 16.56 16.78 19.00 20.31 18.98 19.00 17.28 19.34 20.54 22.39 25.09 26.22 28.53 28.55 28.14 28.45

GFSNE_sfc_wetblb_117.txt.gz
Wetbulb
59.12 59.23 59.63 61.12 62.95 62.67 62.06 61.64 57.24 54.28 54.92 58.13 57.67 60.36 60.19 57.60 52.91 50.58 43.90 43.45 44.10 44.69 44.95 44.61 43.96 43.50 43.33 43.81 44.16 44.51 43.02 42.67 41.94 41.46 41.18 40.99 41.07 41.20
60.13 59.32 59.62 60.74 60.99 62.65 62.61 61.20 61.20 58.17 53.76 57.41 57.96 55.24 54.07 49.71 45.83 45.12 42.22 42.25 40.97 40.10 40.08 39.37 38.82 38.75 38.17 38.40 39.49 39.02 38.96 38.69 38.16 37.71 37.43 37.42 38.00 38.34
58.91 59.46 59.46 60.29 59.48 60.71 61.67 60.73 59.65 58.86 55.52 56.51 55.11 52.56 48.78 45.94 43.09 42.53 41.40 40.20 39.15 38.10 36.97 35.97 35.07 34.66 34.58 35.09 36.35 36.79 35.62 34.88 34.37 34.16 34.40 34.89 35.68 36.34
58.20 59.05 59.52 59.91 60.16 59.58 59.54 59.03 58.78 58.09 56.71 54.18 53.49 47.19 44.64 44.68 42.02 39.08 38.74 39.42 37.00 36.06 35.25 34.43 33.53 32.66 32.67 34.14 34.88 33.09 32.40 31.85 31.52 31.39 31.68 31.95 32.71 33.33
58.89 59.54 59.51 59.69 59.04 59.42 59.00 58.04 58.32 57.03 57.08 54.35 51.66 43.43 40.98 40.22 37.78 36.56 35.98 36.31 35.72 35.66 33.97 32.94 31.90 30.92 30.97 32.39 32.65 31.40 30.62 29.94 29.89 29.61 29.61 29.66 29.84 30.41
59.04 58.39 58.24 58.01 56.65 57.44 57.25 58.04 57.99 56.98 55.52 53.36 47.54 40.81 38.19 38.71 36.52 32.24 30.54 31.78 31.20 32.95 32.44 31.55 30.64 30.05 28.88 29.28 31.12 30.27 29.19 29.36 29.25 28.84 28.63 28.23 28.31 28.76
53.61 53.78 53.38 52.57 51.17 53.42 55.85 56.11 55.56 52.75 51.13 51.46 42.81 36.75 33.84 32.93 33.66 33.51 29.81 27.02 25.92 27.27 29.00 29.15 28.82 28.94 28.97 29.10 29.77 29.88 28.64 28.99 28.79 28.38 28.08 27.88 27.81 28.00
52.22 46.05 44.12 41.70 38.65 37.67 37.10 36.26 40.36 52.29 51.88 50.38 39.62 36.97 32.56 32.07 31.84 31.88 27.63 25.84 23.97 26.28 26.64 28.17 28.31 28.27 29.70 30.35 26.53 27.14 28.23 28.06 28.11 27.68 27.53 27.63 27.64 27.50
49.94 43.98 39.86 38.09 37.78 36.16 33.71 32.99 32.18 32.51 31.27 41.08 36.19 32.85 30.39 30.52 31.08 30.60 29.87 28.69 23.95 23.05 24.49 26.96 28.32 27.02 30.35 31.11 27.47 26.26 26.78 27.60 27.62 27.37 27.62 27.42 27.27 27.30
45.37 44.92 41.41 35.81 35.40 34.58 32.12 29.04 28.29 28.69 29.53 30.02 29.84 29.55 29.90 30.26 30.23 29.46 26.11 23.67 23.43 23.56 26.00 24.42 28.32 27.52 29.82 31.34 28.68 27.11 28.28 27.93 27.65 27.83 27.71 27.48 27.57 27.82
37.79 37.97 37.42 34.92 34.55 34.75 30.30 27.20 26.78 27.34 30.00 30.33 29.73 29.55 29.27 29.50 28.97 26.92 24.81 24.31 22.97 22.80 25.66 25.77 27.00 25.94 27.27 28.62 29.90 29.27 29.03 28.54 28.71 28.81 28.45 28.41 28.61 28.35
33.56 32.91 33.57 33.21 33.02 32.15 29.58 26.80 23.97 23.64 22.79 22.82 23.02 24.26 26.30 27.40 28.32 28.79 29.45 26.35 24.25 22.59 23.15 24.80 24.70 24.64 23.54 28.73 28.73 29.47 29.65 30.41 29.63 29.54 29.44 29.72 29.12 28.45
31.26 30.52 30.99 31.35 30.94 30.15 28.08 24.58 21.95 22.41 21.87 21.57 20.91 21.04 22.35 22.86 24.01 26.15 27.15 27.49 25.72 21.13 21.77 25.11 24.35 24.23 23.47 23.20 26.54 28.73 29.24 29.49 29.97 30.12 30.99 30.60 29.77 29.24
29.11 29.49 29.67 29.31 28.01 26.97 25.33 25.40 24.36 22.62 21.71 20.63 20.31 19.71 20.21 21.38 22.99 23.47 24.58 25.14 25.72 23.67 23.68 24.47 23.23 22.17 21.31 21.80 22.86 26.76 28.12 29.23 30.15 29.35 30.36 30.48 30.78 31.75
28.25 28.58 28.57 27.57 26.66 25.40 25.32 24.42 23.32 22.43 22.37 21.04 20.24 19.95 21.59 22.72 23.25 23.18 23.72 24.03 23.15 23.00 23.69 23.93 22.94 22.30 22.28 21.48 21.83 24.02 24.32 27.76 29.65 29.41 29.19 28.44 29.34 31.39
24.61 23.23 22.78 22.89 22.40 22.55 23.14 23.88 23.39 23.43 23.10 21.27 20.78 21.94 22.84 22.03 21.56 22.63 21.32 22.81 23.10 22.24 23.23 24.55 24.90 24.68 22.74 24.01 23.50 23.06 25.95 24.25 27.91 27.67 27.58 28.84 30.61 32.08
21.45 21.06 20.34 19.73 18.64 18.96 19.66 20.63 21.66 21.51 20.35 20.72 20.14 20.81 21.39 21.31 20.76 22.97 23.38 23.65 22.47 22.60 23.56 25.19 26.04 26.64 26.17 24.95 22.98 24.60 24.65 24.83 25.82 25.65 26.15 26.44 29.74 31.92
21.21 19.77 19.35 20.61 19.22 20.31 20.25 20.06 20.34 20.73 21.37 21.43 21.50 21.33 20.50 20.80 20.48 21.86 23.22 22.85 21.80 21.64 22.30 23.12 23.86 23.65 24.69 25.59 25.72 23.14 23.62 23.05 24.64 24.66 25.93 24.83 25.71 30.63
23.92 22.51 21.77 22.06 20.50 20.35 20.13 19.79 18.81 20.40 21.37 21.32 21.90 21.94 21.71 21.62 22.65 22.45 22.26 22.28 21.67 21.86 22.51 23.69 22.91 20.49 17.63 17.28 23.34 21.13 21.20 21.86 22.79 23.40 24.82 25.55 25.38 28.60
24.66 22.46 22.62 22.68 22.25 21.12 20.50 20.06 20.85 21.51 21.17 21.05 21.50 21.81 22.37 21.67 20.77 20.44 19.95 19.66 20.36 20.88 21.73 23.15 21.89 18.82 15.98 15.91 16.72 21.30 24.83 22.63 22.80 22.04 23.07 25.83 28.37 29.55
24.27 23.36 23.67 23.23 22.26 21.72 21.98 21.53 20.44 20.51 20.99 20.69 20.10 20.09 20.90 20.76 19.31 19.50 18.41 16.53 16.23 20.32 19.42 19.63 21.02 19.72 22.07 22.95 20.01 21.37 24.98 26.87 26.08 24.01 24.56 23.90 24.65 27.06
23.34 22.52 22.35 22.01 21.77 21.36 20.77 19.07 18.82 19.27 19.36 19.26 19.22 19.81 20.00 19.97 18.24 18.32 17.94 18.14 18.57 18.48 19.07 20.59 22.35 22.54 21.75 19.94 18.73 19.87 22.49 25.99 28.13 28.69 28.26 26.59 25.18 22.70
21.22 21.01 21.52 21.22 20.32 19.61 19.53 20.18 19.78 19.18 18.50 18.30 18.26 17.68 18.72 17.87 18.19 18.47 18.51 18.20 17.79 16.85 18.05 17.33 19.74 21.51 20.70 20.85 19.15 20.28 21.82 22.91 24.75 25.41 27.88 30.72 28.36 27.44